[[{"header":{"parameterUnit":"m.s-1","parameterCategory":1,"la1":30.6,"la2":28.766,"lo1":-90.7593,"lo2":-88.6598,"dy":0.0162,"dx":0.0183,"nx":116,"ny":114,"refTime":"2023-04-30T00:00:00:Z","depth":0,"parameterNumber":2,"parameterNumberName":"U-component_of_WINDS"},"data":[0.0,0.0,0.0,0.0,0.0,0.0,0.0,0.0,0.0,0.0,0.0,0.0,0.0,0.0,0.0,0.0,0.0,0.0,0.0,0.0,0.0,0.0,0.0,0.0,0.0,0.0,0.0,0.0,0.0,0.0,0.0,0.0,0.0,0.0,0.0,0.0,0.0,0.0,0.0,0.0,0.0,0.0,0.0,0.0,0.0,0.0,0.0,0.0,0.0,0.0,0.0,0.0,0.0,0.0,0.0,0.0,0.0,0.0,0.0,0.0,0.0,0.0,0.0,0.0,0.0,0.0,0.0,0.0,0.0,0.0,0.0,0.0,0.0,0.0,0.0,0.0,0.0,0.0,0.0,0.0,0.0,0.0,0.0,0.0,0.0,0.0,0.0,0.0,0.0,0.0,0.0,0.0,0.0,0.0,0.0,0.0,0.0,0.0,0.0,0.0,0.0,0.0,0.0,0.0,0.0,0.0,0.0,0.0,0.0,0.0,0.0,0.0,0.0,0.0,0.0,0.0,0.0,0.0,0.0,0.0,0.0,0.0,0.0,0.0,0.0,0.0,0.0,0.0,0.0,0.0,0.0,0.0,0.0,0.0,0.0,0.0,0.0,0.0,0.0,0.0,0.0,0.0,0.0,0.0,0.0,0.0,0.0,0.0,0.0,0.0,0.0,0.0,0.0,0.0,0.0,0.0,0.0,0.0,0.0,0.0,0.0,0.0,0.0,0.0,0.0,0.0,0.0,0.0,0.0,0.0,0.0,0.0,0.0,0.0,0.0,0.0,0.0,0.0,0.0,0.0,0.0,0.0,0.0,0.0,0.0,0.0,0.0,0.0,0.0,0.0,0.0,0.0,0.0,0.0,0.0,0.0,0.0,0.0,0.0,0.0,0.0,0.0,0.0,0.0,0.0,0.0,0.0,0.0,0.0,0.0,0.0,0.0,0.0,0.0,0.0,0.0,0.0,0.0,0.0,0.0,0.0,0.0,0.0,0.0,0.0,0.0,0.0,0.0,0.0,0.0,0.0,0.0,0.0,0.0,0.0,0.0,0.0,0.0,0.0,0.0,0.0,0.0,0.0,0.0,0.0,0.0,0.0,0.0,0.0,0.0,0.0,0.0,0.0,0.0,0.0,0.0,0.0,0.0,0.0,0.0,0.0,0.0,0.0,0.0,0.0,0.0,0.0,0.0,0.0,0.0,0.0,0.0,0.0,0.0,0.0,0.0,0.0,0.0,0.0,0.0,0.0,0.0,0.0,0.0,0.0,0.0,0.0,0.0,0.0,0.0,0.0,0.0,0.0,0.0,0.0,0.0,0.0,0.0,0.0,0.0,0.0,0.0,0.0,0.0,0.0,0.0,0.0,0.0,0.0,0.0,0.0,0.0,0.0,0.0,0.0,0.0,0.0,0.0,0.0,0.0,0.0,0.0,0.0,0.0,0.0,0.0,0.0,0.0,0.0,0.0,0.0,0.0,0.0,0.0,0.0,0.0,0.0,0.0,0.0,0.0,0.0,0.0,0.0,0.0,0.0,0.0,0.0,0.0,0.0,0.0,0.0,0.0,0.0,0.0,0.0,0.0,0.0,0.0,0.0,0.0,0.0,0.0,0.0,0.0,0.0,0.0,0.0,0.0,0.0,0.0,0.0,0.0,0.0,0.0,0.0,0.0,0.0,0.0,0.0,0.0,0.0,0.0,0.0,0.0,0.0,0.0,0.0,0.0,0.0,0.0,0.0,0.0,0.0,0.0,0.0,0.0,0.0,0.0,0.0,0.0,0.0,0.0,0.0,0.0,0.0,0.0,0.0,0.0,0.0,0.0,0.0,0.0,0.0,0.0,0.0,0.0,0.0,0.0,0.0,0.0,0.0,0.0,0.0,0.0,0.0,0.0,0.0,0.0,0.0,0.0,0.0,0.0,0.0,0.0,0.0,0.0,0.0,0.0,0.0,0.0,0.0,0.0,0.0,0.0,0.0,0.0,0.0,0.0,0.0,0.0,0.0,0.0,0.0,0.0,0.0,0.0,0.0,0.0,0.0,0.0,0.0,0.0,0.0,0.0,0.0,0.0,0.0,0.0,0.0,0.0,0.0,0.0,0.0,0.0,0.0,0.0,0.0,0.0,0.0,0.0,0.0,0.0,0.0,0.0,0.0,0.0,0.0,0.0,0.0,0.0,0.0,0.0,0.0,0.0,0.0,0.0,0.0,0.0,0.0,0.0,0.0,0.0,0.0,0.0,0.0,0.0,0.0,0.0,0.0,0.0,0.0,0.0,0.0,0.0,0.0,0.0,0.0,0.0,0.0,0.0,0.0,0.0,0.0,0.0,0.0,0.0,0.0,0.0,0.0,0.0,0.0,0.0,0.0,0.0,0.0,0.0,0.0,0.0,0.0,0.0,0.0,0.0,0.0,0.0,0.0,0.0,0.0,0.0,0.0,0.0,0.0,0.0,0.0,0.0,0.0,0.0,0.0,0.0,0.0,0.0,0.0,0.0,0.0,0.0,0.0,0.0,0.0,0.0,0.0,0.0,0.0,0.0,0.0,0.0,0.0,0.0,0.0,0.0,0.0,0.0,0.0,0.0,0.0,0.0,0.0,0.0,0.0,0.0,0.0,0.0,0.0,0.0,0.0,0.0,0.0,0.0,0.0,0.0,0.0,0.0,0.0,0.0,0.0,0.0,0.0,0.0,0.0,0.0,0.0,0.0,0.0,0.0,0.0,0.0,0.0,0.0,0.0,0.0,0.0,0.0,0.0,0.0,0.0,0.0,0.0,0.0,0.0,0.0,0.0,0.0,0.0,0.0,0.0,0.0,0.0,0.0,0.0,0.0,0.0,0.0,0.0,0.0,0.0,0.0,0.0,0.0,0.0,0.0,0.0,0.0,0.0,0.0,0.0,0.0,0.0,0.0,0.0,0.0,0.0,0.0,0.0,0.0,0.0,0.0,0.0,0.0,0.0,0.0,0.0,0.0,0.0,0.0,0.0,0.0,0.0,0.0,0.0,0.0,0.0,0.0,0.0,0.0,0.0,0.0,0.0,0.0,0.0,0.0,0.0,0.0,0.0,0.0,0.0,0.0,0.0,0.0,0.0,0.0,0.0,0.0,0.0,0.0,0.0,0.0,0.0,0.0,0.0,0.0,0.0,0.0,0.0,0.0,0.0,0.0,0.0,0.0,0.0,0.0,0.0,0.0,0.0,0.0,0.0,0.0,0.0,0.0,0.0,0.0,0.0,0.0,0.0,0.0,0.0,0.0,0.0,0.0,0.0,0.0,0.0,0.0,0.0,0.0,0.0,0.0,0.0,0.0,0.0,0.0,0.0,0.0,0.0,0.0,0.0,0.0,0.0,0.0,0.0,0.0,0.0,0.0,0.0,0.0,0.0,0.0,0.0,0.0,0.0,0.0,0.0,0.0,0.0,0.0,0.0,0.0,0.0,0.0,0.0,0.0,0.0,0.0,0.0,0.0,0.0,0.0,0.0,0.0,0.0,0.0,0.0,0.0,0.0,0.0,0.0,0.0,0.0,0.0,0.0,0.0,0.0,0.0,0.0,0.0,0.0,0.0,0.0,0.0,0.0,0.0,0.0,0.0,0.0,0.0,0.0,0.0,0.0,0.0,0.0,0.0,0.0,0.0,0.0,0.0,0.0,0.0,0.0,0.0,0.0,0.0,0.0,0.0,0.0,0.0,0.0,0.0,0.0,0.0,0.0,0.0,0.0,0.0,0.0,0.0,0.0,0.0,0.0,0.0,0.0,0.0,0.0,0.0,0.0,0.0,0.0,0.0,0.0,0.0,0.0,0.0,0.0,0.0,0.0,0.0,0.0,0.0,0.0,0.0,0.0,0.0,0.0,0.0,0.0,0.0,0.0,0.0,0.0,0.0,0.0,0.0,0.0,0.0,0.0,0.0,0.0,0.0,0.0,0.0,0.0,0.0,0.0,0.0,0.0,0.0,0.0,0.0,0.0,0.0,0.0,0.0,0.0,0.0,0.0,0.0,0.0,0.0,0.0,0.0,0.0,0.0,0.0,0.0,0.0,0.0,0.0,0.0,0.0,0.0,0.0,0.0,0.0,0.0,0.0,0.0,0.0,0.0,0.0,0.0,0.0,0.0,0.0,0.0,0.0,0.0,0.0,0.0,0.0,0.0,0.0,0.0,0.0,0.0,0.0,0.0,0.0,0.0,0.0,0.0,0.0,0.0,0.0,0.0,0.0,0.0,0.0,0.0,0.0,0.0,0.0,0.0,0.0,0.0,0.0,0.0,0.0,0.0,0.0,0.0,0.0,0.0,0.0,0.0,0.0,0.0,0.0,0.0,0.0,0.0,0.0,0.0,0.0,0.0,0.0,0.0,0.0,0.0,0.0,0.0,0.0,0.0,0.0,0.0,0.0,0.0,0.0,0.0,0.0,0.0,0.0,0.0,0.0,0.0,0.0,0.0,0.0,0.0,0.0,0.0,0.0,0.0,0.0,0.0,0.0,0.0,0.0,0.0,0.0,0.0,0.0,0.0,0.0,0.0,0.0,0.0,0.0,0.0,0.0,0.0,0.0,0.0,0.0,0.0,0.0,0.0,0.0,0.0,0.0,0.0,0.0,0.0,0.0,0.0,0.0,0.0,0.0,0.0,0.0,0.0,0.0,0.0,0.0,0.0,0.0,0.0,0.0,0.0,0.0,0.0,0.0,0.0,0.0,0.0,0.0,0.0,0.0,0.0,0.0,0.0,0.0,0.0,0.0,0.0,0.0,0.0,0.0,0.0,0.0,0.0,0.0,0.0,0.0,0.0,0.0,0.0,0.0,0.0,0.0,0.0,0.0,0.0,0.0,0.0,0.0,0.0,0.0,0.0,0.0,0.0,0.0,0.0,0.0,0.0,0.0,0.0,0.0,0.0,0.0,0.0,0.0,0.0,0.0,0.0,0.0,0.0,0.0,0.0,0.0,0.0,0.0,0.0,0.0,0.0,0.0,0.0,0.0,0.0,0.0,0.0,0.0,0.0,0.0,0.0,0.0,0.0,0.0,0.0,0.0,0.0,0.0,0.0,0.0,0.0,0.0,0.0,0.0,0.0,0.0,0.0,0.0,0.0,0.0,0.0,0.0,0.0,0.0,0.0,0.0,0.0,0.0,0.0,0.0,0.0,0.0,0.0,0.0,0.0,0.0,0.0,0.0,0.0,0.0,0.0,0.0,0.0,0.0,0.0,0.0,0.0,0.0,0.0,0.0,0.0,0.0,0.0,0.0,0.0,0.0,0.0,0.0,0.0,0.0,0.0,0.0,0.0,0.0,0.0,0.0,0.0,0.0,0.0,0.0,0.0,0.0,0.0,0.0,0.0,0.0,0.0,0.0,0.0,0.0,0.0,0.0,0.0,0.0,0.0,0.0,0.0,0.0,0.0,0.0,0.0,0.0,0.0,0.0,0.0,0.0,0.0,0.0,0.0,0.0,0.0,0.0,0.0,0.0,0.0,0.0,0.0,0.0,0.0,0.0,0.0,0.0,0.0,0.0,0.0,0.0,0.0,0.0,0.0,0.0,0.0,0.0,0.0,0.0,0.0,0.0,0.0,0.0,0.0,0.0,0.0,0.0,0.0,0.0,0.0,0.0,0.0,0.0,0.0,0.0,0.0,0.0,0.0,0.0,0.0,0.0,0.0,0.0,0.0,0.0,0.0,0.0,0.0,0.0,0.0,0.0,0.0,0.0,0.0,0.0,0.0,0.0,0.0,0.0,0.0,0.0,0.0,0.0,0.0,0.0,0.0,0.0,0.0,0.0,0.0,0.0,0.0,0.0,0.0,0.0,0.0,0.0,0.0,0.0,0.0,0.0,0.0,0.0,0.0,0.0,0.0,0.0,0.0,0.0,0.0,0.0,0.0,0.0,0.0,0.0,0.0,0.0,0.0,0.0,0.0,0.0,0.0,0.0,0.0,0.0,0.0,0.0,0.0,0.0,0.0,0.0,0.0,0.0,0.0,0.0,0.0,0.0,0.0,0.0,0.0,0.0,0.0,0.0,0.0,0.0,0.0,0.0,0.0,0.0,0.0,0.0,0.0,0.0,0.0,0.0,0.0,0.0,0.0,0.0,0.0,0.0,0.0,0.0,0.0,0.0,0.0,-5.8229,0.0,0.0,0.0,0.0,0.0,0.0,0.0,0.0,0.0,0.0,0.0,0.0,0.0,0.0,0.0,0.0,0.0,0.0,0.0,0.0,0.0,0.0,0.0,0.0,0.0,0.0,0.0,0.0,0.0,0.0,0.0,0.0,0.0,0.0,0.0,0.0,0.0,0.0,0.0,0.0,0.0,0.0,0.0,0.0,0.0,0.0,0.0,0.0,0.0,0.0,0.0,0.0,0.0,0.0,0.0,0.0,0.0,0.0,0.0,0.0,0.0,0.0,0.0,0.0,0.0,0.0,0.0,0.0,0.0,0.0,0.0,0.0,0.0,0.0,0.0,0.0,0.0,0.0,0.0,0.0,0.0,0.0,0.0,0.0,0.0,0.0,0.0,0.0,0.0,0.0,0.0,0.0,0.0,0.0,0.0,0.0,0.0,0.0,0.0,0.0,0.0,0.0,0.0,0.0,0.0,0.0,0.0,0.0,0.0,0.0,0.0,0.0,0.0,0.0,0.0,0.0,-5.8204,0.0,0.0,0.0,0.0,0.0,0.0,0.0,0.0,0.0,0.0,0.0,0.0,0.0,0.0,0.0,0.0,0.0,0.0,0.0,0.0,0.0,0.0,0.0,0.0,0.0,0.0,0.0,0.0,0.0,0.0,0.0,0.0,0.0,0.0,0.0,0.0,0.0,0.0,0.0,0.0,0.0,0.0,0.0,0.0,0.0,0.0,0.0,0.0,0.0,0.0,0.0,0.0,0.0,0.0,0.0,0.0,0.0,0.0,0.0,0.0,0.0,0.0,0.0,0.0,0.0,0.0,0.0,0.0,0.0,0.0,0.0,0.0,0.0,0.0,0.0,0.0,0.0,0.0,0.0,0.0,0.0,0.0,0.0,0.0,0.0,0.0,0.0,0.0,0.0,0.0,0.0,0.0,0.0,0.0,0.0,0.0,0.0,0.0,0.0,0.0,0.0,0.0,0.0,0.0,0.0,0.0,0.0,0.0,-5.7934,-5.803,-5.8704,-5.7981,-5.8069,-5.8761,-5.9281,-5.9492,-5.9435,-5.8627,0.0,0.0,0.0,0.0,0.0,0.0,0.0,0.0,0.0,0.0,0.0,0.0,0.0,0.0,0.0,0.0,0.0,0.0,0.0,0.0,0.0,0.0,0.0,0.0,0.0,0.0,0.0,0.0,0.0,0.0,0.0,0.0,0.0,0.0,0.0,0.0,0.0,0.0,-5.1406,-5.1406,-5.1152,-5.0723,-5.0723,0.0,0.0,0.0,0.0,0.0,0.0,0.0,0.0,0.0,0.0,0.0,0.0,0.0,0.0,0.0,0.0,0.0,0.0,0.0,0.0,0.0,0.0,0.0,0.0,0.0,0.0,0.0,0.0,0.0,0.0,0.0,0.0,0.0,0.0,0.0,0.0,0.0,0.0,0.0,0.0,0.0,0.0,0.0,-5.3968,-5.5586,0.0,0.0,0.0,0.0,0.0,0.0,0.0,0.0,0.0,0.0,0.0,0.0,0.0,-5.8011,-5.8127,-5.8934,-5.9338,-5.9358,-5.9992,-6.0358,-6.0473,-6.0339,-6.0358,-6.0435,-5.9781,0.0,-5.9435,-5.8627,0.0,0.0,0.0,0.0,0.0,0.0,0.0,0.0,0.0,0.0,0.0,0.0,0.0,0.0,0.0,0.0,0.0,0.0,0.0,0.0,0.0,0.0,0.0,0.0,0.0,0.0,0.0,0.0,0.0,0.0,0.0,0.0,0.0,0.0,0.0,0.0,-5.1598,-5.3359,-5.4316,-5.4316,-5.4316,-5.4316,-5.4316,-5.2832,-5.0312,-5.0312,0.0,0.0,0.0,0.0,0.0,0.0,0.0,0.0,0.0,0.0,0.0,0.0,0.0,0.0,0.0,0.0,0.0,0.0,0.0,0.0,0.0,0.0,0.0,0.0,0.0,0.0,0.0,0.0,0.0,0.0,0.0,0.0,0.0,0.0,0.0,0.0,0.0,0.0,0.0,-5.2409,-5.3854,-5.455,-5.4865,-5.5028,0.0,0.0,0.0,0.0,0.0,0.0,0.0,0.0,0.0,-5.83,-5.8742,-5.8973,-5.8973,-5.9819,-6.0223,-6.0242,-6.0608,-6.08,-6.08,-6.08,-6.08,-6.0781,-6.0396,-6.0223,-6.0165,-5.9319,-5.8704,-5.8146,0.0,0.0,0.0,0.0,-5.3972,-5.4607,0.0,0.0,0.0,0.0,0.0,0.0,0.0,0.0,0.0,0.0,0.0,0.0,0.0,0.0,0.0,-4.4231,0.0,0.0,0.0,0.0,0.0,0.0,0.0,0.0,0.0,0.0,0.0,-5.1659,-5.3689,-5.5332,-5.6601,-5.6601,-5.6601,-5.6601,-5.6601,-5.4902,-5.207,-5.207,-5.0586,0.0,0.0,0.0,0.0,0.0,0.0,0.0,0.0,0.0,0.0,0.0,0.0,0.0,0.0,0.0,0.0,0.0,0.0,0.0,0.0,0.0,0.0,0.0,0.0,0.0,0.0,0.0,0.0,0.0,0.0,0.0,0.0,0.0,0.0,0.0,0.0,0.0,0.0,-5.2006,-5.3255,-5.3588,-5.4128,-5.447,0.0,0.0,0.0,0.0,0.0,0.0,-5.7766,-5.8074,-5.8412,-5.8748,-5.9336,-5.9718,-5.9838,-6.0473,-6.08,-6.08,-6.0678,-6.069,-6.08,-6.0678,-6.069,-6.08,-6.08,-6.08,-6.0742,-6.0108,-5.9473,-5.8896,-5.8473,-5.7511,-5.6299,-5.5857,-5.5972,-5.6376,0.0,0.0,0.0,0.0,0.0,0.0,0.0,0.0,0.0,0.0,0.0,0.0,0.0,0.0,-4.5834,-4.5958,-4.6041,-4.5421,0.0,0.0,0.0,0.0,0.0,0.0,0.0,0.0,0.0,-5.2636,-5.5215,-5.6504,-5.6601,-5.6601,-5.6601,-5.6601,-5.6601,-5.5586,-5.3867,-5.3867,-5.2402,-4.9844,0.0,0.0,0.0,0.0,0.0,0.0,0.0,0.0,0.0,0.0,0.0,0.0,0.0,0.0,0.0,0.0,0.0,0.0,0.0,0.0,0.0,0.0,0.0,0.0,0.0,0.0,0.0,0.0,0.0,0.0,0.0,0.0,0.0,0.0,0.0,0.0,0.0,0.0,0.0,-5.3065,-5.3931,0.0,0.0,0.0,0.0,-5.3424,-5.446,-5.5511,-5.6351,-5.75,-5.8694,-5.9965,-6.0056,-6.0294,-6.0723,-6.0781,-6.08,-6.0781,-6.0351,-6.0365,-6.0769,-6.0338,-6.0384,-6.08,-6.08,-6.08,-6.08,-6.0742,-6.0704,-6.0512,-5.8915,-5.8261,-5.7973,-5.6299,-5.6742,-5.8165,0.0,0.0,0.0,0.0,0.0,0.0,0.0,0.0,0.0,0.0,0.0,0.0,0.0,-4.5634,-4.7404,-4.7638,-4.8678,-4.8677,-4.7148,0.0,0.0,0.0,0.0,0.0,0.0,0.0,-5.1189,-5.2695,-5.5312,-5.6601,-5.6601,-5.6601,-5.6601,-5.6601,-5.6601,-5.625,-5.5664,-5.5664,-5.418,-5.1738,-5.0781,-4.8437,0.0,0.0,0.0,0.0,0.0,0.0,0.0,0.0,0.0,0.0,0.0,0.0,0.0,0.0,0.0,0.0,0.0,0.0,0.0,0.0,0.0,0.0,0.0,0.0,0.0,0.0,0.0,0.0,0.0,0.0,0.0,0.0,0.0,0.0,0.0,0.0,0.0,-5.2307,-5.2674,0.0,-5.3592,-5.3628,-5.4052,-5.5124,-5.6064,-5.7098,-5.8219,-5.8699,-5.9156,-5.9625,-5.9661,-5.9725,-5.9901,-5.9901,-6.0055,-6.0338,-5.987,-5.9901,-6.0338,-5.987,-5.9741,-5.9901,-5.9901,-5.9901,-5.9901,-5.9901,-6.025,-6.0742,-6.0146,-5.9915,-5.9819,-5.9204,-5.9377,-5.9915,0.0,0.0,0.0,0.0,0.0,0.0,0.0,0.0,0.0,0.0,0.0,-4.4162,-4.4739,-4.7298,-4.9087,-4.9353,-5.0437,-5.0228,-4.8163,0.0,0.0,0.0,0.0,0.0,0.0,-4.9668,-5.1973,-5.3144,-5.5469,-5.6601,-5.6601,-5.6601,-5.6601,-5.6601,-5.6601,-5.6601,-5.6601,-5.6601,-5.5605,-5.3945,-5.3066,-5.0312,-4.666,0.0,0.0,0.0,0.0,0.0,0.0,0.0,0.0,0.0,0.0,0.0,0.0,0.0,0.0,0.0,0.0,0.0,0.0,0.0,0.0,0.0,0.0,0.0,0.0,0.0,0.0,0.0,0.0,0.0,0.0,0.0,0.0,0.0,0.0,-5.0527,-5.1389,-5.194,-5.2234,-5.2729,-5.3537,-5.361,-5.4294,-5.5941,-5.6813,-5.7644,-5.8464,-5.8783,-5.899,-5.9158,-5.9158,-5.923,-5.9389,-5.9389,-5.9561,-5.9855,-5.9389,-5.9407,-5.9855,-5.9372,-5.8947,-5.8614,-5.9161,-5.9086,-5.8614,-5.918,-5.9757,-6.0324,-6.0324,-6.0324,-6.0351,-6.0508,-6.0565,-6.0578,0.0,0.0,0.0,0.0,0.0,0.0,0.0,0.0,0.0,0.0,-4.4528,-4.622,-4.7836,-4.9634,-5.0814,-5.1088,-5.1094,-4.9763,-4.6581,-4.6328,0.0,0.0,0.0,0.0,-4.8828,-5.0605,-5.2305,-5.4004,-5.5742,-5.6601,-5.6601,-5.6601,-5.6601,-5.6601,-5.6601,-5.6601,-5.6601,-5.6601,-5.6601,-5.6387,-5.3848,-5.1797,-5.0,0.0,0.0,0.0,0.0,0.0,0.0,0.0,0.0,0.0,0.0,0.0,0.0,0.0,0.0,0.0,0.0,0.0,0.0,0.0,0.0,0.0,0.0,0.0,0.0,0.0,0.0,0.0,0.0,0.0,0.0,0.0,0.0,0.0,-4.9665,-5.1024,-5.2013,-5.2068,-5.2766,-5.3555,-5.4363,-5.4436,-5.4766,-5.5574,-5.6363,-5.6822,-5.684,-5.7538,-5.8139,-5.8579,-5.86,-5.8819,-5.9279,-5.9335,-5.9354,-5.9372,-5.8913,-5.8914,-5.9354,-5.8894,-5.8072,-5.7123,-5.8693,-5.8467,-5.7142,-5.8712,-5.9373,-5.9354,-5.9389,-5.9389,-5.946,-5.9916,-6.0069,-6.0127,0.0,0.0,0.0,0.0,0.0,0.0,0.0,0.0,0.0,0.0,-4.3767,-4.5787,-4.6249,-4.9015,-5.0911,-5.1098,-5.1133,-5.031,-4.832,0.0,0.0,0.0,0.0,0.0,-4.8848,-5.1777,-5.3516,-5.4004,-5.5742,-5.6601,-5.6601,-5.6601,-5.6601,-5.6601,-5.6601,-5.6601,-5.6601,-5.6601,-5.6601,-5.6543,-5.582,-5.4121,-5.1933,0.0,0.0,0.0,0.0,0.0,0.0,0.0,0.0,0.0,0.0,0.0,0.0,0.0,0.0,0.0,0.0,0.0,0.0,0.0,0.0,0.0,0.0,0.0,0.0,0.0,0.0,0.0,0.0,0.0,0.0,0.0,-4.9499,-5.1355,-5.1355,-5.172,-5.2417,-5.3592,-5.394,-5.4399,-5.5188,-5.5262,-5.5592,-5.6418,-5.6675,-5.706,-5.7648,-5.6767,-5.6323,-5.6439,-5.6461,-5.6507,-5.6638,-5.7783,-5.8568,-5.8894,-5.8418,-5.8439,-5.8874,-5.8397,-5.802,-5.7746,-5.819,-5.8135,-5.7746,-5.819,-5.8375,-5.8442,-5.914,-5.9389,-5.9425,-5.9543,-5.9595,-5.9363,0.0,0.0,0.0,0.0,0.0,0.0,0.0,0.0,0.0,0.0,-4.394,-4.5864,-4.6567,-4.9144,-5.0901,-5.1074,-5.1137,-5.0204,-4.7968,0.0,0.0,0.0,0.0,-4.8183,-4.9902,-5.2617,-5.4004,-5.4004,-5.5742,-5.6601,-5.6601,-5.6601,-5.6601,-5.6601,-5.6601,-5.6601,-5.6601,-5.6601,-5.6601,-5.6601,-5.6601,-5.5254,-5.3242,-5.3242,-5.1875,-4.9941,-4.9856,-5.0134,-5.0362,-4.9235,0.0,0.0,0.0,0.0,0.0,0.0,0.0,0.0,0.0,0.0,0.0,0.0,0.0,0.0,0.0,0.0,0.0,0.0,0.0,0.0,0.0,0.0,0.0,0.0,-5.0306,-5.2234,-5.2913,-5.3004,-5.3353,-5.4289,-5.4693,-5.5207,-5.6014,-5.6106,-5.6436,-5.7244,-5.7299,-5.7519,-5.7978,-5.7097,-5.629,-5.5611,-5.6235,-5.6271,-5.5614,-5.7189,-5.8142,-5.8397,-5.8142,-5.8142,-5.8397,-5.8119,-5.7629,0.0,-5.7703,-5.7611,-5.7042,-5.7721,-5.7997,0.0,0.0,0.0,0.0,0.0,-5.923,-5.9201,0.0,0.0,0.0,0.0,0.0,0.0,0.0,0.0,0.0,0.0,0.0,-4.624,-4.7913,-4.9673,-5.0811,-5.1088,-5.0928,-4.9536,0.0,0.0,0.0,-4.875,-4.8906,-4.9726,-5.1504,-5.3164,-5.4043,-5.4141,-5.5781,-5.6601,-5.6601,-5.6601,-5.6601,-5.6601,-5.6601,-5.6601,-5.6601,-5.6601,-5.6601,-5.6601,-5.6601,-5.5664,-5.4297,-5.4297,-5.332,-5.1992,-5.1992,-5.1948,-5.1863,-5.1642,0.0,0.0,0.0,0.0,0.0,0.0,0.0,0.0,0.0,0.0,0.0,0.0,0.0,0.0,0.0,0.0,0.0,0.0,0.0,0.0,0.0,0.0,0.0,0.0,-5.1114,-5.2766,-5.4197,-5.4564,-5.4675,-5.4675,-5.5299,-5.6051,-5.6859,-5.695,-5.7226,-5.7941,-5.7997,-5.7997,-5.7997,0.0,0.0,0.0,0.0,-5.7042,-5.5592,-5.7189,-5.7997,-5.7997,-5.7997,-5.7997,-5.7997,-5.7997,-5.7207,-5.5941,-5.7373,-5.7189,-5.6,-5.7409,-5.7997,-5.7997,-5.7997,-5.7997,-5.801,-5.8167,-5.8651,0.0,0.0,0.0,0.0,0.0,0.0,0.0,0.0,0.0,0.0,-4.2874,-4.4547,-4.624,-4.7913,-4.9746,-5.0925,-5.1098,-4.9905,-4.8341,0.0,0.0,-4.5254,-4.875,-4.8906,-5.0019,-5.2402,-5.3476,-5.4336,-5.5058,-5.6094,-5.6601,-5.6601,-5.6601,-5.6601,-5.6601,-5.6601,-5.6601,-5.6601,-5.6601,-5.6601,-5.6601,-5.6601,-5.6406,-5.6094,-5.6094,-5.5898,-5.5586,-5.5586,-5.5586,-5.5349,-5.3822,-5.3296,-5.3256,-5.3154,-5.2108,0.0,0.0,0.0,0.0,0.0,0.0,0.0,0.0,0.0,0.0,0.0,0.0,0.0,0.0,0.0,0.0,0.0,0.0,0.0,-5.0508,-5.2454,-5.4032,-5.4363,-5.5519,-5.6345,-5.6345,-5.6473,-5.6877,-5.7685,-5.7776,-5.7831,-5.7997,-5.7997,-5.7997,-5.7997,-5.6767,-5.5904,-5.5614,-5.5908,-5.5904,-5.5614,-5.7189,-5.7997,-5.7997,0.0,0.0,-5.7997,-5.7997,-5.7831,-5.7538,-5.785,-5.7813,-5.7556,-5.7868,-5.7997,-5.7997,-5.7997,-5.7997,-5.7781,-5.5926,-5.6513,-5.8005,0.0,0.0,0.0,0.0,0.0,0.0,0.0,0.0,0.0,0.0,-4.3278,-4.4989,-4.6663,-4.7295,-4.8021,-4.9055,-4.7733,0.0,0.0,-4.6797,-4.7441,-5.0039,-5.0566,-5.1406,-5.2676,-5.3984,-5.4863,-5.5293,-5.6172,-5.6601,-5.6601,-5.6601,-5.6601,-5.6601,-5.6601,-5.6601,-5.6601,-5.6601,-5.6601,-5.6601,-5.6601,-5.6601,-5.6601,-5.6601,-5.6601,-5.6601,-5.6601,-5.6601,-5.6465,-5.5522,-5.5205,-5.5183,-5.512,-5.4394,-5.3216,0.0,0.0,0.0,0.0,0.0,0.0,0.0,0.0,0.0,0.0,0.0,0.0,0.0,0.0,-4.8769,-4.9177,0.0,-5.0453,-5.1261,-5.2747,-5.4087,-5.4876,-5.6033,-5.6804,-5.6804,-5.7171,-5.7556,-5.796,-5.7997,-5.7997,-5.7997,-5.7997,-5.7997,-5.7997,-5.7226,-5.6418,-5.5633,-5.6363,-5.64,-5.5614,-5.7189,-5.7997,-5.7997,-5.7997,-5.7997,-5.7997,-5.7997,-5.7997,-5.7997,-5.7997,-5.7997,-5.7997,-5.7997,-5.7997,-5.7997,-5.7997,-5.7997,-5.785,-5.6638,-5.695,-5.7831,0.0,0.0,0.0,0.0,0.0,0.0,0.0,0.0,0.0,0.0,0.0,-4.3739,-4.5421,-4.4816,-4.4831,0.0,0.0,0.0,0.0,-4.8826,-4.9861,-5.1541,-5.2461,-5.3027,-5.3203,-5.457,-5.5371,-5.5547,-5.6269,-5.6601,-5.6601,-5.6601,-5.6601,-5.6601,-5.6601,-5.6601,-5.6601,-5.6601,-5.6601,-5.6601,-5.6601,-5.6601,-5.6601,-5.6601,-5.6601,-5.6601,-5.6601,-5.6601,-5.6601,-5.6601,-5.6601,-5.6601,-5.6601,-5.6419,-5.5594,-5.2485,-5.2359,0.0,0.0,0.0,0.0,0.0,0.0,0.0,0.0,-5.0768,-5.0894,-5.0304,-5.0043,-5.014,-5.0775,-5.0564,-5.0785,-5.2215,-5.3151,-5.4179,-5.5629,-5.6528,-5.7042,-5.7042,-5.7611,-5.7997,-5.7997,-5.7997,-5.7997,-5.7997,-5.7997,-5.7997,-5.7997,-5.7997,-5.7409,-5.6106,-5.7317,-5.7373,-5.6069,-5.7354,-5.7997,-5.7997,-5.7997,-5.7997,-5.7997,-5.7997,-5.7997,-5.7997,-5.7997,-5.7997,-5.7997,-5.7997,-5.7997,-5.7997,-5.7997,-5.7997,-5.7997,-5.7997,-5.7997,-5.7997,0.0,0.0,0.0,0.0,0.0,0.0,0.0,0.0,0.0,0.0,0.0,0.0,0.0,0.0,0.0,0.0,0.0,0.0,-4.6345,-4.8593,-5.0627,-5.2308,-5.3335,-5.4219,-5.498,-5.5195,-5.5683,-5.6445,-5.6543,-5.6601,-5.6601,-5.6601,-5.6601,-5.6601,-5.6601,-5.6601,-5.6601,-5.6601,-5.6601,-5.6601,-5.6601,-5.6601,-5.6601,-5.6601,-5.6601,-5.6601,-5.6601,-5.6601,-5.6601,-5.6601,-5.6601,-5.6601,-5.6601,-5.6419,-5.5827,-5.3891,-5.3262,-5.2452,-4.9029,-4.824,-4.8759,-5.0308,-5.1818,-5.2712,0.0,-5.318,-5.4103,-5.2583,-5.2806,-5.3293,-5.3386,-5.3077,-5.3096,-5.3995,-5.4803,-5.5629,-5.6547,-5.7354,-5.7868,-5.7868,-5.7941,-5.7997,-5.7997,-5.7997,-5.7997,-5.7997,-5.7997,-5.7997,-5.7997,-5.7997,-5.7923,-5.774,-5.7905,-5.7905,-5.7721,-5.7905,-5.7997,-5.7997,-5.7997,-5.7997,-5.7997,-5.7997,-5.7997,-5.7997,-5.7997,-5.7997,-5.7997,-5.7997,-5.7997,-5.7997,-5.7997,-5.7997,-5.7997,-5.7997,-5.7997,-5.7997,0.0,0.0,0.0,0.0,0.0,0.0,0.0,0.0,0.0,0.0,0.0,0.0,0.0,0.0,0.0,0.0,0.0,0.0,-4.735,-4.9465,-5.1398,-5.3069,-5.4092,-5.4805,-5.5176,-5.5759,-5.623,-5.6601,-5.6601,-5.6601,-5.6601,-5.6601,-5.6601,-5.6601,-5.6601,-5.6601,-5.6601,-5.6601,-5.6601,-5.6601,-5.6601,-5.6601,-5.6601,-5.6601,-5.6601,-5.6465,-5.5364,-5.4969,0.0,0.0,-5.4912,-5.5042,-5.6146,-5.5607,-5.4433,-5.3696,-5.2666,-5.1529,-5.0567,-5.0683,-5.1356,-5.2606,-5.378,-5.4568,-5.4184,-5.4798,-5.5255,-5.4553,-5.4296,-5.4204,-5.4204,-5.3662,-5.3463,-5.4271,-5.5078,-5.5868,-5.6693,-5.7483,-5.7997,-5.7997,-5.7171,-5.6602,-5.6602,-5.7446,-5.7611,-5.6657,-5.7464,-5.7997,-5.7997,-5.7997,-5.7997,-5.7997,-5.7997,-5.7997,-5.7997,-5.7997,-5.7997,-5.7997,-5.7997,-5.7997,-5.7997,-5.7997,-5.7997,-5.7997,-5.7997,-5.7997,-5.7997,-5.7997,-5.7997,-5.7997,-5.7997,-5.7997,-5.7997,-5.7997,-5.7997,-5.7997,0.0,0.0,0.0,0.0,0.0,0.0,0.0,0.0,0.0,0.0,0.0,0.0,0.0,0.0,0.0,0.0,0.0,0.0,0.0,-5.0151,-5.2119,-5.3823,-5.4873,-5.5399,-5.5399,-5.6151,-5.6539,-5.6539,-5.6581,-5.6601,-5.6601,-5.6601,-5.6601,-5.6601,-5.6601,-5.6601,-5.6601,-5.6601,-5.6601,-5.6601,-5.6601,-5.6601,-5.6601,-5.6601,-5.6288,-5.564,-5.4291,-5.3654,0.0,0.0,-5.3155,-5.3463,-5.4593,-5.4226,-5.3305,-5.2848,-5.1413,-5.026,-5.1538,-5.2019,-5.2529,-5.4107,-5.4934,-5.5434,-5.5645,-5.5703,-5.5703,-5.5703,-5.5147,-5.47,-5.4802,-5.4224,-5.3999,-5.4917,-5.5556,-5.6198,-5.7024,-5.7629,-5.7831,-5.7391,-5.6308,-5.5174,-5.4054,-5.5996,-5.7042,-5.6308,-5.7336,-5.7997,-5.7997,-5.7997,-5.7997,-5.7997,-5.7997,-5.7997,-5.7997,-5.7997,-5.7997,-5.7997,-5.7997,-5.7997,-5.7997,-5.7997,-5.7997,-5.7997,-5.7997,-5.7997,-5.7997,-5.7997,-5.7997,-5.7997,-5.7997,-5.7997,-5.7997,-5.7997,-5.7997,-5.7997,0.0,0.0,0.0,0.0,0.0,0.0,0.0,0.0,0.0,0.0,0.0,0.0,0.0,0.0,0.0,0.0,0.0,0.0,0.0,-5.0199,-5.2848,-5.4591,-5.5636,-5.6177,-5.6177,-5.6312,-5.6414,-5.6414,-5.6537,-5.6601,-5.6601,-5.6601,-5.6601,-5.6601,-5.6601,-5.6601,-5.6601,-5.6601,-5.6601,-5.6601,-5.6601,-5.6601,-5.6601,-5.6601,-5.5463,-5.3871,-5.3811,0.0,0.0,0.0,-5.1734,-5.2295,-5.1505,-5.2249,-5.3073,-5.1453,-4.9655,-4.8721,-5.1212,-5.0741,-5.0317,-5.3664,-5.4511,-5.4741,-5.5511,-5.5703,-5.5703,-5.5703,-5.5375,-5.5213,-5.5586,-5.5263,-5.5332,-5.6544,-5.6767,-5.7042,-5.785,-5.7978,-5.7409,-5.5849,-5.5633,-5.4072,0.0,-5.3356,-5.629,-5.7813,-5.796,-5.7997,-5.7997,-5.7997,-5.7997,-5.7997,-5.7997,-5.7997,-5.7997,-5.7997,-5.7997,-5.7997,-5.7997,-5.7997,-5.7997,-5.7997,-5.7997,-5.7997,-5.7997,-5.7997,-5.7997,-5.7997,-5.7997,-5.7997,-5.7997,-5.7997,-5.7997,-5.7997,-5.7997,-5.7997,0.0,0.0,0.0,0.0,0.0,0.0,0.0,0.0,0.0,0.0,0.0,0.0,0.0,0.0,0.0,0.0,0.0,0.0,0.0,-4.9059,-5.1324,-5.361,-5.518,-5.6003,-5.6003,-5.6191,-5.6275,-5.6275,-5.6391,-5.6479,-5.646,-5.656,-5.6601,-5.6601,-5.6601,-5.6601,-5.6601,-5.6601,-5.6601,-5.6601,-5.6601,-5.6601,-5.6465,-5.5312,-5.4096,-5.2698,0.0,0.0,0.0,-4.7892,-4.7714,-4.8053,-4.8954,-4.9165,-4.8855,-4.7725,-4.8544,-4.9894,-5.0164,-5.1068,-5.2337,-5.4068,-5.4895,-5.5376,-5.5645,-5.5703,-5.5703,-5.5703,-5.4927,-5.4205,-5.4072,-5.4357,-5.4725,-5.5156,-5.5876,-5.6795,-5.784,-5.662,-5.5996,-5.706,-5.5317,0.0,0.0,0.0,0.0,-5.4087,-5.6492,-5.7997,-5.7997,-5.7997,-5.7997,-5.7997,-5.7997,-5.7997,-5.7997,-5.7997,-5.7997,-5.7997,-5.7997,-5.7997,-5.7997,-5.7997,-5.7997,-5.7997,-5.7997,-5.7997,-5.7997,-5.7997,-5.7997,-5.7997,-5.7997,-5.7997,-5.7997,-5.7997,-5.7997,-5.7997,0.0,0.0,0.0,0.0,0.0,0.0,0.0,0.0,0.0,0.0,0.0,0.0,0.0,0.0,0.0,0.0,0.0,0.0,0.0,0.0,-4.9048,-5.1279,-5.2499,-5.3099,-5.3099,-5.4186,-5.4737,-5.4737,-5.5808,-5.6324,-5.6328,-5.6419,-5.6486,-5.6536,-5.6536,-5.656,-5.6601,-5.6601,-5.6601,-5.6543,-5.5918,-5.5664,-5.5488,-5.3708,-5.2244,0.0,0.0,0.0,0.0,-4.5123,-4.5175,-4.5755,-4.6599,-4.6672,-4.6567,-4.723,-4.8538,-4.9913,-5.0587,-5.1952,-5.3491,-5.4645,-5.5318,-5.5703,-5.5703,-5.5934,-5.6145,-5.6145,-5.5769,-5.5186,-5.4448,-5.4724,-5.5065,-5.5061,-5.5699,-5.6629,-5.7826,-5.6657,-5.6051,-5.7024,-5.5317,-5.4528,0.0,0.0,0.0,-5.2986,-5.5244,-5.6712,-5.6712,-5.6712,-5.7116,-5.796,-5.7997,-5.7997,-5.7997,-5.7997,-5.7997,-5.7997,-5.7997,-5.7997,-5.7997,-5.7997,-5.7519,-5.6748,-5.7629,-5.7501,-5.6785,-5.7629,-5.7997,-5.7997,-5.7997,-5.7997,-5.7997,-5.7997,-5.7997,-5.7997,0.0,0.0,0.0,0.0,0.0,0.0,0.0,0.0,0.0,0.0,0.0,0.0,0.0,0.0,0.0,0.0,0.0,0.0,0.0,0.0,0.0,-4.7894,-4.8048,-4.8105,-4.8105,-5.0596,-5.1903,-5.1903,-5.4562,-5.5875,-5.5861,-5.593,-5.6015,-5.614,-5.614,-5.6211,-5.6328,-5.6328,-5.6308,-5.6133,-5.4473,-5.3808,-5.3613,-5.1797,0.0,0.0,0.0,0.0,-4.4124,-4.3355,-4.4201,-4.5479,-4.4795,-4.5141,-4.6422,-4.9634,-4.951,-4.9048,-5.2222,-5.3203,-5.3703,-5.5299,-5.5722,-5.5761,-5.5761,-5.6445,-5.7041,-5.6945,-5.755,-5.7678,-5.6305,-5.6047,-5.6076,-5.6127,-5.6102,-5.6518,-5.7725,-5.7854,-5.7262,-5.5776,-5.5614,-5.4711,-5.2509,-5.4363,0.0,-5.4473,0.0,-5.4583,-5.4583,-5.4583,-5.5629,-5.7923,-5.7997,-5.7997,-5.7997,-5.7997,-5.7997,-5.7997,-5.7997,-5.7997,-5.7997,-5.7997,-5.6748,-5.4711,-5.7005,-5.6693,-5.4766,-5.706,-5.7997,-5.7997,-5.7997,-5.7997,-5.7997,-5.7997,-5.7997,-5.7997,0.0,0.0,0.0,0.0,0.0,0.0,0.0,0.0,0.0,0.0,0.0,0.0,0.0,0.0,0.0,0.0,0.0,0.0,0.0,0.0,0.0,0.0,0.0,0.0,0.0,0.0,0.0,0.0,0.0,-5.1338,-5.1458,-5.2203,-5.2598,-5.2672,-5.2672,-5.2694,-5.2734,-5.2734,-5.2383,-5.1797,0.0,-5.1172,-5.0976,0.0,0.0,0.0,0.0,0.0,-4.3374,-4.3162,-4.4201,-4.5918,-4.7697,-4.8321,-4.8471,-4.8702,-5.026,-5.1818,-5.1433,-5.3164,-5.5164,-5.5588,-5.6195,-5.6676,-5.6676,-5.7338,-5.7607,-5.6299,-5.5722,-5.4885,-5.2933,-5.2824,-5.3441,-5.4721,-5.4875,-5.53,-5.6546,-5.591,-5.539,-5.5596,-5.5614,-5.5812,-5.64,-5.7024,-5.6547,0.0,-5.6069,-5.7079,-5.7079,-5.7079,-5.7354,-5.7978,-5.7997,-5.7997,-5.7997,-5.7997,-5.7997,-5.7997,-5.7997,-5.7997,-5.7997,-5.7997,-5.7666,-5.7116,-5.7721,-5.7648,-5.7134,-5.774,-5.7997,-5.7997,-5.7997,-5.7997,-5.7997,-5.7997,-5.7997,-5.7997,0.0,0.0,0.0,0.0,0.0,0.0,0.0,0.0,0.0,0.0,0.0,0.0,0.0,0.0,0.0,0.0,0.0,0.0,0.0,0.0,0.0,0.0,0.0,0.0,0.0,0.0,0.0,0.0,0.0,0.0,0.0,-4.9722,-5.0066,-5.0222,-5.0222,-5.0249,-5.0332,-5.0703,0.0,0.0,0.0,0.0,0.0,0.0,0.0,0.0,0.0,-4.4795,-4.4522,-4.6086,-4.6418,-4.6773,-5.0194,-5.0668,-5.0164,-5.1144,-5.2279,-5.3241,-5.3424,-5.4848,-5.6357,-5.6742,-5.7203,-5.7357,-5.6599,-5.7088,-5.7242,-5.553,-5.5088,-5.443,-5.2479,-5.2329,-5.2965,-5.4472,-5.4697,-5.5063,-5.6145,-5.5685,-5.5323,-5.5563,-5.5614,-5.6216,-5.7831,-5.7997,-5.7446,-5.6088,-5.6253,-5.6418,-5.6418,-5.6418,-5.6914,-5.796,-5.7997,-5.7997,-5.7997,-5.7997,-5.7997,-5.7997,-5.7997,-5.7997,-5.7997,-5.7997,-5.7409,-5.6473,0.0,-5.7391,-5.6492,-5.7556,-5.7997,-5.7997,-5.7997,-5.7997,-5.7997,-5.7997,-5.7997,-5.7997,0.0,0.0,0.0,0.0,0.0,0.0,0.0,0.0,0.0,0.0,0.0,0.0,0.0,0.0,0.0,0.0,0.0,0.0,0.0,0.0,0.0,0.0,0.0,0.0,0.0,0.0,0.0,0.0,0.0,0.0,0.0,0.0,0.0,0.0,0.0,0.0,0.0,0.0,0.0,0.0,0.0,0.0,0.0,0.0,0.0,0.0,-4.588,-4.5815,-4.635,-4.9921,-4.9478,-4.8157,-5.243,-5.2655,-5.1885,-5.4568,-5.4587,-5.4145,-5.6137,-5.6926,-5.7349,-5.8107,-5.8377,-5.8069,-5.6549,-5.6703,-5.6695,-5.5011,-5.503,-5.4914,-5.3472,-5.3203,-5.3626,-5.488,-5.5037,-5.5184,-5.573,-5.6089,-5.606,-5.5435,-5.5489,-5.6216,-5.7831,-5.7813,-5.7758,-5.7978,-5.6051,-5.4876,-5.4876,-5.4876,-5.5831,-5.7923,-5.7997,-5.7997,-5.7997,-5.7997,-5.7997,-5.7997,-5.7997,-5.7997,-5.7997,-5.7997,-5.6859,-5.4987,0.0,0.0,-5.5042,-5.7134,-5.7997,-5.7997,-5.7997,-5.7997,-5.7997,-5.7997,-5.7997,-5.7997,0.0,0.0,0.0,0.0,0.0,0.0,0.0,0.0,0.0,0.0,-4.5594,0.0,0.0,0.0,0.0,0.0,0.0,0.0,0.0,0.0,0.0,0.0,0.0,0.0,0.0,0.0,0.0,0.0,0.0,0.0,0.0,0.0,0.0,0.0,0.0,0.0,0.0,0.0,0.0,0.0,0.0,0.0,0.0,0.0,0.0,0.0,-4.5939,-4.5886,-4.6435,-5.0059,-5.0758,-5.0782,-5.453,-5.5304,-5.4664,-5.3876,-5.4914,-5.6137,-5.5184,-5.6472,-5.8107,-5.8261,-5.88,-5.9204,-5.8915,-5.8434,-5.7588,-5.5838,-5.4491,-5.3549,-5.326,-5.3203,-5.372,-5.5319,-5.5256,-5.4602,-5.3416,-5.497,-5.5691,-5.4275,-5.4986,-5.6216,-5.7831,-5.6785,-5.6565,0.0,-5.7611,-5.7373,-5.7373,-5.7373,-5.7574,-5.7997,-5.7997,-5.7997,-5.7997,-5.7997,-5.7997,-5.7997,-5.7997,-5.7997,-5.7997,-5.7997,-5.7776,-5.7391,-5.7813,0.0,-5.7409,-5.7831,-5.7997,-5.7997,-5.7997,-5.7997,-5.7997,-5.7997,-5.7997,-5.7997,0.0,0.0,0.0,0.0,0.0,0.0,0.0,0.0,0.0,0.0,-4.5594,-4.5594,0.0,0.0,0.0,0.0,0.0,0.0,0.0,0.0,0.0,0.0,0.0,0.0,0.0,0.0,-4.095,-4.0496,0.0,-4.1638,-4.1383,-4.1846,-4.2376,-4.296,0.0,0.0,0.0,0.0,0.0,0.0,0.0,0.0,0.0,0.0,0.0,0.0,0.0,-4.5998,-4.6417,-4.9052,-4.9841,-5.0471,-5.4824,-5.6022,-5.5557,-5.4263,-5.5357,-5.683,-5.6022,-5.7319,-5.9031,-5.9492,-5.9896,-5.9704,-5.7934,-5.7223,-5.6203,-5.3626,-5.2452,-5.1895,-5.1895,-5.1895,-5.2722,-5.528,-5.5524,-5.5331,-5.5262,-5.605,-5.6237,-5.5211,-5.5401,-5.5908,-5.6675,-5.5666,-5.5464,-5.6657,-5.6363,-5.6675,-5.7923,-5.7997,-5.7997,-5.7997,-5.7997,-5.7997,-5.7997,-5.7997,-5.7997,-5.7997,-5.7997,-5.7997,-5.7997,-5.7997,-5.7997,-5.7997,-5.7997,0.0,-5.6216,-5.7483,-5.7262,-5.6253,-5.7501,-5.7997,-5.7997,-5.7997,-5.7997,-5.7997,0.0,0.0,0.0,0.0,0.0,0.0,0.0,-4.5325,-4.5383,-4.5575,-4.5594,-4.5594,-4.5594,-4.5594,-4.5594,0.0,0.0,0.0,0.0,0.0,0.0,0.0,0.0,0.0,0.0,0.0,0.0,-4.0785,-4.147,0.0,0.0,0.0,0.0,0.0,-4.1933,-4.2363,-4.3437,0.0,0.0,0.0,0.0,-4.5723,0.0,0.0,0.0,0.0,0.0,-4.6145,-4.6397,-4.8127,-4.8701,-4.9455,-5.3726,-5.4944,-5.4771,-5.4554,-5.5549,-5.6849,-5.7387,-5.8627,-5.9935,-6.0627,-6.08,-5.9992,-5.6953,-5.5972,-5.4838,-5.1837,-5.0962,-5.0808,-5.1164,-5.1241,-5.2222,-5.5203,-5.5395,-5.5657,-5.7073,-5.6877,-5.654,-5.6444,-5.6032,-5.5856,-5.6092,-5.5225,0.0,-5.6033,-5.5519,-5.5996,-5.7886,-5.7997,-5.7997,-5.7997,-5.7997,-5.7997,-5.7997,-5.7997,-5.7997,-5.7997,-5.7997,-5.7997,-5.7997,-5.7997,-5.7997,-5.7997,-5.7997,0.0,0.0,-5.7005,-5.6583,-5.4638,-5.706,-5.7997,-5.7997,-5.7997,-5.7997,-5.7997,0.0,0.0,0.0,0.0,0.0,0.0,0.0,-4.4412,-4.4701,-4.5498,-4.5594,-4.5594,-4.5594,-4.5594,0.0,0.0,0.0,0.0,0.0,0.0,0.0,0.0,0.0,0.0,0.0,0.0,0.0,-4.1681,-4.175,0.0,0.0,0.0,0.0,0.0,0.0,-4.3125,-4.2578,-4.3359,0.0,0.0,0.0,0.0,0.0,0.0,0.0,0.0,0.0,-4.6289,-4.6522,-4.8158,-4.8708,-4.9015,-5.0821,-5.133,-5.1691,-5.387,-5.5126,-5.6319,-5.8646,-5.9954,-6.0704,-6.0781,-6.08,-6.0319,-5.8473,-5.6838,-5.5184,-5.3356,-5.176,-5.1174,-5.2683,-5.2972,-5.3568,-5.5395,-5.4414,-5.4,-5.5651,-5.5473,-5.5593,-5.67,-5.6481,-5.6648,-5.7698,-5.6381,-5.6124,-5.7648,-5.7703,0.0,-5.7997,-5.7997,-5.7997,-5.7997,-5.7997,-5.7997,-5.7997,-5.7997,-5.7997,-5.7997,-5.7997,-5.7997,-5.7997,-5.7997,-5.7997,-5.7997,-5.7997,0.0,0.0,-5.7005,-5.6583,-5.4638,-5.706,-5.7997,-5.7997,-5.7997,-5.7997,-5.7997,0.0,0.0,0.0,0.0,0.0,0.0,0.0,-4.5075,-4.521,-4.5556,-4.5594,-4.5594,-4.5594,-4.5594,-4.5594,0.0,0.0,0.0,0.0,0.0,0.0,0.0,0.0,0.0,0.0,0.0,-4.2252,-4.2639,-4.2639,0.0,0.0,0.0,0.0,0.0,0.0,-4.3594,-4.4707,-4.4004,0.0,0.0,0.0,0.0,0.0,0.0,0.0,0.0,0.0,0.0,-4.6386,-4.6947,-4.7145,-4.7296,-4.8248,-4.8539,-4.8991,-5.1481,-5.4252,-5.6599,-5.7069,-5.8973,-6.08,-6.08,-6.08,-6.0089,-5.7357,-5.6203,-5.4934,-5.2241,-5.1164,-5.0904,-5.1568,-5.1702,-5.2241,-5.3914,-5.3645,-5.4145,-5.6876,-5.6862,-5.714,-5.8646,-5.8444,-5.7847,0.0,0.0,-5.5443,-5.5798,-5.5831,0.0,-5.7923,-5.7997,-5.7997,-5.7997,-5.7997,-5.7997,-5.7997,-5.7997,-5.7997,-5.7997,-5.7997,-5.7997,-5.7997,-5.7997,-5.7997,-5.7997,-5.7997,0.0,0.0,-5.64,-5.5721,-5.2619,-5.6492,-5.7997,-5.7997,-5.7997,-5.7997,-5.7997,0.0,0.0,0.0,0.0,0.0,0.0,-4.5094,-4.5017,-4.5037,-4.5537,-4.5594,-4.5594,-4.5594,-4.5594,-4.5594,-4.5594,0.0,0.0,0.0,0.0,0.0,0.0,0.0,0.0,0.0,0.0,-4.3243,-4.3536,-4.3576,-4.3826,0.0,0.0,-4.4573,-4.4961,0.0,0.0,0.0,0.0,0.0,0.0,0.0,0.0,0.0,0.0,0.0,0.0,0.0,0.0,0.0,0.0,0.0,-4.6148,-4.6765,-4.7129,-4.782,-5.0327,-5.353,-5.6291,-5.6434,-5.8588,-6.08,-6.08,-6.0435,-5.9281,-5.6357,-5.5318,-5.4145,-5.1289,-5.0712,-5.0712,-5.0712,-5.0712,-5.1241,0.0,0.0,-5.4222,-5.7126,-5.7256,-5.7619,-5.9169,-5.9067,-5.8374,-5.7134,-5.636,-5.5819,-5.5508,0.0,0.0,-5.7905,-5.7997,-5.7997,-5.7997,-5.7997,-5.7997,-5.7997,-5.7997,-5.7997,-5.7997,-5.7997,-5.7629,-5.695,-5.7666,-5.7611,-5.6969,0.0,0.0,0.0,-5.6308,-5.5574,-5.227,-5.6381,-5.7997,-5.7997,-5.7997,-5.7997,-5.7997,0.0,0.0,0.0,0.0,0.0,0.0,0.0,-4.3643,-4.372,-4.5383,-4.5594,-4.5594,-4.5594,-4.5594,-4.5594,-4.5594,0.0,0.0,0.0,0.0,0.0,0.0,0.0,0.0,0.0,0.0,-4.3489,-4.4286,-4.4418,-4.4957,-4.5884,-4.602,-4.5685,-4.5039,0.0,0.0,0.0,0.0,0.0,0.0,0.0,0.0,0.0,0.0,0.0,0.0,0.0,0.0,0.0,0.0,0.0,0.0,0.0,-4.7451,-4.8586,-5.1135,-5.3145,-5.5068,-5.7588,-5.9511,-6.08,-6.08,-5.955,-5.7857,-5.6088,-5.4414,-5.276,-5.1058,-5.0712,-5.0712,-5.0712,-5.0712,-5.1241,-5.2933,-5.3203,0.0,-5.5491,-5.5722,-5.6195,-5.7466,-5.7615,-5.7911,-5.8608,-5.8245,-5.796,-5.796,0.0,0.0,-5.7997,-5.7997,-5.7997,-5.7997,-5.7997,-5.7997,-5.7997,-5.7997,-5.7997,-5.7997,-5.7997,-5.6748,-5.4528,-5.6914,-5.6693,0.0,0.0,0.0,0.0,-5.6987,-5.6565,-5.4601,-5.7042,-5.7997,-5.7997,-5.7997,-5.7997,-5.7997,0.0,0.0,0.0,0.0,0.0,0.0,0.0,-4.4085,-4.4105,-4.4643,-4.4701,-4.494,-4.5537,-4.5594,-4.5594,-4.5594,0.0,0.0,0.0,0.0,0.0,0.0,0.0,0.0,0.0,0.0,-4.5009,-4.5384,-4.5433,-4.569,-4.6174,-4.6223,-4.6111,-4.5879,-4.5547,-4.5586,0.0,0.0,0.0,0.0,0.0,0.0,0.0,0.0,0.0,0.0,0.0,0.0,0.0,0.0,0.0,0.0,0.0,0.0,0.0,-5.0491,-5.2279,-5.3799,-5.4607,-5.6049,-5.73,-5.73,-5.6915,-5.6088,-5.4376,-5.3587,-5.2722,-5.1058,-5.0712,-5.0712,-5.0712,-5.0712,-5.1241,-5.2933,-5.3203,0.0,0.0,-5.7473,-5.8054,-5.9599,-5.9494,-5.9266,0.0,0.0,-5.6557,0.0,0.0,0.0,-5.7905,-5.7997,-5.7997,-5.7997,-5.7997,-5.7997,-5.7997,-5.7997,-5.7997,-5.7997,-5.7997,-5.673,-5.4473,-5.6895,0.0,0.0,0.0,0.0,0.0,-5.7005,-5.6583,-5.4638,-5.706,-5.7997,-5.7997,-5.7997,-5.7997,-5.7997,0.0,0.0,0.0,0.0,0.0,0.0,0.0,-4.3566,-4.347,-4.3797,-4.4105,-4.4509,-4.5056,-4.5402,-4.5594,-4.5594,0.0,0.0,0.0,0.0,0.0,0.0,0.0,0.0,0.0,-4.568,-4.5757,-4.5899,-4.594,-4.605,-4.6224,-4.6288,-4.6308,-4.6289,-4.5723,-4.5781,0.0,0.0,0.0,0.0,0.0,0.0,-4.6308,0.0,0.0,0.0,0.0,0.0,0.0,0.0,0.0,0.0,0.0,0.0,0.0,0.0,-5.1433,-5.2395,-5.3029,-5.4414,-5.5703,-5.5703,-5.5222,-5.4395,-5.3029,-5.2472,-5.1875,-5.0491,-5.0971,-5.1452,-5.0827,-5.0952,-5.1298,-5.1702,-5.2856,-5.4203,-5.5684,-5.6722,-5.7703,-5.8742,-5.9044,0.0,0.0,-5.7714,-5.6955,0.0,0.0,0.0,-5.7923,-5.7997,-5.7997,-5.7997,-5.7997,-5.7997,-5.7997,-5.7997,-5.7997,-5.7997,-5.7997,-5.673,-5.4473,-5.6895,0.0,0.0,0.0,0.0,0.0,-5.7373,-5.7116,-5.5904,-5.7409,-5.7997,-5.7997,-5.7997,-5.7997,-5.7997,0.0,0.0,0.0,0.0,0.0,0.0,0.0,0.0,0.0,0.0,-4.3701,-4.4239,-4.4297,-4.5075,-4.5594,0.0,0.0,0.0,0.0,0.0,0.0,0.0,0.0,0.0,0.0,-4.5803,-4.585,-4.5912,-4.6039,-4.6091,-4.6117,-4.6246,-4.6308,-4.6308,-4.6308,-4.6308,0.0,0.0,0.0,0.0,-4.6308,-4.6308,0.0,0.0,0.0,0.0,0.0,0.0,0.0,0.0,0.0,0.0,0.0,0.0,0.0,0.0,0.0,0.0,0.0,-5.4164,-5.5338,-5.5338,-5.4164,-5.2799,-5.1923,-5.1183,0.0,-4.9721,-5.151,-5.2722,-5.1164,-5.1587,-5.1596,-4.9856,-5.2395,-5.3991,-5.2308,-5.428,-5.5818,-5.5645,-5.6932,0.0,-5.9703,-5.9172,0.0,0.0,0.0,0.0,-5.7997,-5.7997,-5.7997,-5.7997,-5.7997,-5.7997,-5.7997,-5.7997,-5.7905,-5.774,-5.7923,-5.6638,-5.4234,-5.6822,0.0,0.0,0.0,0.0,0.0,-5.7997,-5.7997,-5.7997,-5.7997,-5.7997,-5.7997,-5.7997,-5.7997,-5.7997,0.0,0.0,0.0,0.0,0.0,0.0,0.0,0.0,0.0,0.0,0.0,-4.3624,-4.422,-4.5075,0.0,0.0,0.0,0.0,0.0,0.0,0.0,0.0,0.0,0.0,-4.5796,-4.5803,-4.588,-4.6047,-4.6082,-4.6149,-4.6248,-4.6289,-4.6308,-4.6308,-4.6308,-4.6308,0.0,0.0,0.0,0.0,-4.6308,-4.6308,0.0,0.0,0.0,0.0,-4.6308,-4.6308,0.0,0.0,0.0,0.0,0.0,0.0,0.0,0.0,-5.0712,-5.0789,-5.1183,0.0,-5.1885,-5.1885,-5.1578,-5.1048,0.0,-5.0356,-5.0818,-5.1241,-5.2318,-5.3087,-5.2683,-5.3818,-5.4049,-5.1692,-5.3626,-5.5049,-5.403,-5.6088,-5.6973,-5.5011,-5.7905,-5.9307,-5.739,-5.8427,0.0,0.0,0.0,-5.7997,-5.7997,-5.7997,-5.7997,-5.7997,-5.7997,-5.7997,-5.7997,-5.7997,-5.706,-5.5262,-5.7116,-5.5776,-5.1793,-5.6051,0.0,0.0,0.0,0.0,-5.7997,-5.7997,-5.7997,-5.7997,-5.7997,-5.7997,-5.7997,-5.7997,-5.7997,-5.7997,0.0,0.0,0.0,0.0,0.0,0.0,0.0,0.0,0.0,0.0,0.0,0.0,0.0,0.0,0.0,0.0,0.0,0.0,0.0,0.0,0.0,0.0,0.0,0.0,-4.5924,-4.5944,-4.6024,-4.6199,-4.6199,-4.6225,-4.6308,-4.6308,-4.6308,-4.6308,-4.6308,-4.6308,-4.6308,-4.6308,-4.6308,-4.6308,-4.6308,0.0,0.0,0.0,0.0,0.0,-4.6308,-4.6308,0.0,-4.6308,-4.67,-4.7349,0.0,0.0,0.0,0.0,-5.0712,-5.0712,-5.0712,-5.0712,-5.0885,-5.1645,-5.126,-5.0577,-5.0087,-5.0366,-5.0827,-5.126,-5.2029,-5.2741,-5.3126,-5.3318,-5.3087,-5.2058,-5.3068,-5.4203,-5.4953,-5.5915,-5.6184,-5.5164,-5.6742,-5.7732,0.0,0.0,0.0,0.0,0.0,-5.8235,-5.802,-5.7997,-5.7997,-5.7997,-5.7997,-5.7997,-5.7997,-5.7997,-5.6785,-5.4436,-5.684,-5.6051,-5.2582,-5.6308,-5.7281,0.0,0.0,0.0,-5.7941,-5.7189,-5.7317,-5.7997,-5.7997,-5.7997,-5.7997,-5.7997,-5.7997,-5.7997,0.0,0.0,0.0,0.0,0.0,0.0,0.0,0.0,0.0,0.0,0.0,0.0,0.0,0.0,0.0,0.0,0.0,0.0,0.0,0.0,0.0,0.0,0.0,-4.5951,-4.6108,-4.6108,-4.6171,-4.6308,-4.6308,-4.6308,-4.6308,-4.6308,-4.6308,-4.6308,-4.6308,-4.6308,-4.6308,-4.6308,-4.6308,-4.6308,-4.6308,0.0,0.0,0.0,0.0,0.0,0.0,0.0,0.0,-4.6308,-4.6804,-4.7551,-4.8278,0.0,0.0,0.0,0.0,0.0,-5.0712,-5.0712,-5.1097,-5.2779,-5.1933,-5.0731,-5.0866,-5.0789,-5.0808,-5.1212,-5.1914,-5.2712,-5.3453,-5.2856,-5.2164,-5.1942,-5.2115,-5.3087,-5.5376,-5.5338,-5.5184,-5.5472,-5.5472,0.0,0.0,0.0,0.0,0.0,0.0,-5.8484,-5.8042,-5.7997,-5.7997,-5.7997,-5.7997,-5.7997,-5.7997,-5.7997,-5.6785,-5.4436,-5.684,-5.673,-5.4473,-5.6895,-5.7997,0.0,0.0,0.0,-5.7886,-5.6528,-5.6767,-5.7997,-5.7997,-5.7997,-5.7997,-5.7997,-5.7997,-5.7997,0.0,0.0,0.0,0.0,0.0,0.0,0.0,0.0,0.0,0.0,0.0,0.0,0.0,0.0,0.0,0.0,0.0,0.0,0.0,0.0,0.0,0.0,-4.603,-4.5951,-4.6108,-4.6108,-4.6171,-4.6308,-4.6308,-4.6308,-4.6308,-4.6308,-4.6308,-4.6308,-4.6308,-4.6308,-4.6308,-4.6308,-4.6308,-4.6308,-4.6308,0.0,0.0,0.0,0.0,0.0,0.0,0.0,0.0,-4.6308,-4.7271,-4.8476,-4.8481,0.0,0.0,0.0,0.0,0.0,-5.0712,-5.0712,-5.1097,-5.2779,-5.1933,-5.0875,-5.1568,-5.1183,-5.1308,-5.3472,-5.4549,-5.5164,-5.528,-5.7473,-5.7646,-5.2692,-5.3145,-5.4472,0.0,0.0,-5.6953,-5.4934,0.0,0.0,0.0,0.0,0.0,0.0,0.0,-5.8484,-5.8042,-5.7997,-5.7997,-5.7997,-5.7997,-5.7997,-5.7997,-5.7997,-5.6785,-5.4436,-5.684,-5.673,-5.4473,-5.6895,-5.7997,0.0,0.0,-5.7758,-5.7978,-5.7721,-5.7776,-5.7997,-5.7997,-5.7997,-5.7997,-5.7997,-5.7997,-5.7997,0.0,0.0,0.0,0.0,0.0,0.0,0.0,0.0,0.0,0.0,0.0,0.0,0.0,0.0,0.0,0.0,0.0,0.0,0.0,0.0,0.0,-4.6289,-4.6177,-4.6145,-4.6201,-4.6202,-4.6246,-4.6308,-4.6308,-4.6308,-4.6308,-4.6308,-4.6308,-4.6308,-4.6308,-4.6308,-4.6308,-4.6308,-4.6308,-4.6308,0.0,0.0,0.0,0.0,0.0,0.0,0.0,0.0,0.0,0.0,-4.7318,-4.8581,-4.8521,0.0,0.0,0.0,0.0,0.0,-5.0712,-5.0712,-5.1327,-5.3914,-5.2606,-5.1385,-5.4049,-5.2587,-5.1674,-5.5137,-5.3953,-5.2991,-5.528,-5.5857,-5.5549,-5.4184,-5.6184,-5.7723,-5.7184,-5.7396,-5.7338,0.0,0.0,0.0,0.0,0.0,0.0,0.0,0.0,0.0,-5.8024,-5.7997,-5.7997,-5.7997,-5.7997,-5.7997,-5.7997,-5.7997,-5.6785,-5.4436,-5.684,-5.673,-5.4473,-5.6895,-5.7997,-5.7941,0.0,-5.7189,-5.7923,-5.706,-5.7207,-5.7997,-5.7997,-5.7997,-5.7997,-5.7997,-5.7997,-5.7997,0.0,0.0,0.0,0.0,0.0,0.0,0.0,0.0,0.0,0.0,0.0,0.0,0.0,0.0,0.0,0.0,0.0,0.0,0.0,0.0,-4.6047,-4.6289,-4.6308,-4.6308,-4.6308,-4.6308,-4.6308,-4.6308,-4.6308,-4.6308,-4.6308,-4.6308,-4.6308,-4.6308,-4.6308,-4.6308,-4.6308,-4.6308,-4.6308,-4.6308,0.0,0.0,0.0,0.0,0.0,0.0,0.0,0.0,0.0,0.0,0.0,0.0,0.0,0.0,0.0,-5.0664,-5.0712,-5.0712,-5.0712,-5.0712,-5.1404,-5.4376,-5.2895,-5.1866,-5.6291,-5.3886,-5.1962,-5.6387,-5.3876,-5.1991,-5.5645,-5.4376,-5.3568,-5.5934,-5.8511,-5.9896,-5.9011,-5.83,-5.8127,-5.8819,-5.83,0.0,0.0,0.0,0.0,0.0,0.0,0.0,-5.8047,-5.7997,-5.7997,-5.7997,-5.7997,-5.7997,-5.7997,-5.7997,-5.706,-5.5262,-5.7116,-5.7024,-5.5317,-5.7152,-5.7997,-5.7923,-5.6693,-5.6859,-5.7886,-5.6657,-5.6877,-5.7997,-5.7997,-5.7997,-5.7997,-5.7997,-5.7997,-5.7997,0.0,0.0,0.0,0.0,0.0,0.0,0.0,0.0,0.0,0.0,0.0,0.0,0.0,0.0,0.0,0.0,0.0,0.0,0.0,0.0,-4.6147,-4.6289,-4.6308,-4.6308,-4.6308,-4.6308,-4.6308,-4.6308,-4.6308,-4.6308,-4.6308,-4.6308,-4.6308,-4.6308,-4.6308,-4.6308,-4.6308,-4.6308,-4.6308,-4.6308,-4.6308,0.0,0.0,0.0,0.0,0.0,0.0,0.0,0.0,0.0,0.0,0.0,0.0,0.0,-4.9967,-5.0543,-5.0712,-5.0712,-5.0712,-5.0712,-5.1135,-5.2933,-5.2029,-5.202,-5.7069,-5.4299,-5.2135,-5.7165,-5.6626,-5.5818,-5.7761,-5.6646,-5.6011,-5.7819,-5.8319,-5.8973,-6.0416,0.0,-6.055,-6.0608,0.0,0.0,0.0,0.0,0.0,0.0,0.0,0.0,-5.8047,-5.7997,-5.7997,-5.7997,-5.7997,-5.7997,-5.7997,-5.7997,-5.7905,-5.774,-5.7923,-5.7905,-5.774,-5.7923,-5.7997,-5.7997,-5.7868,-5.7886,-5.7997,-5.7868,-5.7886,-5.7997,-5.7997,-5.7997,-5.7997,-5.7997,-5.7997,-5.7997,0.0,0.0,0.0,0.0,0.0,0.0,0.0,0.0,0.0,0.0,0.0,0.0,0.0,0.0,0.0,0.0,0.0,0.0,0.0,0.0,-4.535,-4.5488,-4.6016,-4.6308,-4.6308,-4.6308,-4.6308,-4.6308,-4.6308,-4.6308,-4.6308,-4.6308,-4.6308,-4.6308,-4.6308,-4.6308,-4.6308,-4.6308,-4.6308,-4.6308,-4.6308,-4.6308,0.0,0.0,0.0,0.0,0.0,0.0,0.0,0.0,-4.6702,-4.7467,-4.8153,-4.8921,-4.9691,-5.0471,-5.0712,-5.0712,-5.0712,-5.0766,-5.1453,-5.409,-5.2762,-5.214,-5.7159,-5.5164,-5.3703,-5.88,-5.6819,-5.4357,-5.5011,-5.6338,-5.753,-5.8184,-5.9165,-6.0069,-6.0704,-6.08,0.0,0.0,0.0,0.0,0.0,0.0,0.0,0.0,0.0,0.0,0.0,-5.7997,-5.7997,-5.7997,-5.7997,-5.7997,-5.7997,-5.7997,-5.7997,-5.7997,-5.7997,-5.7997,-5.7997,-5.7997,-5.7997,-5.7997,-5.7997,-5.7997,-5.7997,-5.7997,-5.7997,-5.7997,-5.7997,-5.7997,-5.7997,-5.7997,-5.7997,-5.7997,0.0,0.0,0.0,0.0,0.0,0.0,0.0,0.0,0.0,0.0,0.0,0.0,0.0,0.0,0.0,0.0,0.0,0.0,0.0,-4.4192,-4.4892,-4.5,-4.582,-4.6308,-4.6308,-4.6308,-4.6308,-4.6308,-4.6308,-4.6308,-4.6308,-4.6308,-4.6308,-4.6308,-4.6308,-4.6308,-4.6308,-4.6308,-4.6308,-4.6308,-4.6308,-4.6308,0.0,0.0,0.0,0.0,0.0,0.0,0.0,0.0,-4.6446,-4.703,0.0,-4.8647,-4.9274,-5.0385,-5.073,-5.0766,-5.0766,-5.0819,-5.1568,-5.4284,-5.3077,-5.2466,-5.7217,-5.5645,-5.4511,-5.9069,-5.7665,-5.5434,-5.4914,-5.6722,-5.83,0.0,-5.9261,-6.0204,0.0,0.0,0.0,0.0,0.0,0.0,0.0,0.0,0.0,0.0,0.0,0.0,0.0,-5.8092,-5.7997,0.0,-5.7997,-5.7997,-5.7997,-5.7997,-5.7997,-5.7997,-5.7997,-5.7997,-5.7997,-5.7997,-5.7997,-5.7997,-5.7997,-5.7997,-5.7997,-5.7997,-5.7997,-5.7997,-5.7997,-5.7997,-5.7997,-5.7997,-5.7997,-5.7997,0.0,0.0,0.0,0.0,0.0,0.0,0.0,0.0,0.0,0.0,0.0,0.0,0.0,0.0,0.0,0.0,0.0,0.0,0.0,-4.3979,-4.498,-4.498,-4.582,-4.6289,-4.6308,-4.6308,-4.6308,-4.6308,-4.6308,-4.6308,-4.6308,-4.6308,-4.6308,-4.6308,-4.6328,-4.6328,-4.6308,-4.6328,-4.6328,-4.6308,-4.6308,-4.6308,-4.6308,0.0,0.0,0.0,0.0,0.0,0.0,0.0,-4.6108,-4.6354,-4.7823,0.0,0.0,-5.0239,-5.0799,-5.0908,-5.0928,-5.0908,-5.1315,-5.2992,-5.2652,-5.3029,-5.73,-5.5665,-5.4203,-5.7607,-5.9627,-6.0262,-5.8588,-5.83,-5.8319,-5.83,-5.8319,-5.8896,0.0,0.0,0.0,0.0,0.0,0.0,0.0,0.0,0.0,0.0,0.0,0.0,0.0,-5.826,-5.7997,0.0,-5.7997,-5.7997,-5.7997,-5.7997,-5.7997,-5.7997,-5.7997,-5.7997,-5.7997,-5.7997,-5.7997,-5.7997,-5.7997,-5.7997,-5.7997,-5.7997,-5.7997,-5.7997,-5.7997,-5.7997,-5.7997,-5.7997,-5.7997,-5.7997,0.0,0.0,0.0,0.0,0.0,0.0,0.0,0.0,0.0,0.0,0.0,0.0,0.0,0.0,0.0,0.0,0.0,0.0,0.0,-4.2846,-4.3437,-4.4062,-4.4922,-4.5664,-4.6289,-4.6308,-4.6308,-4.6308,-4.6308,-4.6308,-4.6308,-4.6308,-4.6308,-4.6348,-4.7578,-4.7441,-4.6387,-4.7617,-4.7422,-4.6308,-4.6308,-4.6308,-4.6308,0.0,0.0,0.0,0.0,0.0,0.0,0.0,0.0,0.0,-4.7021,0.0,0.0,-5.0875,-5.1183,-5.1027,-5.2193,-5.1784,-5.1535,-5.3646,-5.3641,-5.3688,-5.596,-5.6165,-5.6319,-5.7953,-5.8704,-5.8511,-5.678,-5.8434,-5.9665,-5.8492,-5.93,-6.0223,0.0,0.0,0.0,0.0,0.0,0.0,0.0,0.0,0.0,0.0,0.0,0.0,0.0,-5.826,0.0,0.0,-5.7997,-5.7997,-5.7997,-5.7997,-5.7997,-5.7997,-5.7997,-5.7997,-5.7997,-5.7997,-5.7997,-5.7997,-5.7997,-5.7997,-5.7997,-5.7997,-5.7997,-5.7997,-5.7997,-5.7997,-5.7997,-5.7997,-5.7997,-5.7997,0.0,0.0,0.0,0.0,0.0,0.0,0.0,0.0,0.0,0.0,-4.6067,-4.666,0.0,0.0,0.0,0.0,0.0,0.0,0.0,0.0,-4.3144,-4.3672,-4.4199,-4.4883,-4.5762,-4.6113,-4.6308,-4.6308,-4.6308,-4.6308,-4.6308,-4.6308,-4.6308,-4.6348,-4.7402,-4.7285,-4.6367,-4.7422,-4.7266,-4.6308,-4.6308,-4.6308,-4.6308,0.0,0.0,0.0,0.0,0.0,0.0,0.0,0.0,0.0,-4.6675,0.0,-4.9375,-5.0622,-5.1653,-5.2535,-5.3238,-5.3075,-5.3244,-5.5591,-5.5358,-5.4948,-5.6394,-5.6857,-5.7445,-5.8973,-5.93,-5.8973,-5.7915,-5.9396,0.0,-5.9454,-6.0146,-6.08,0.0,0.0,0.0,0.0,0.0,0.0,0.0,0.0,0.0,0.0,0.0,0.0,0.0,0.0,0.0,0.0,-5.7997,-5.7997,-5.7997,-5.7997,-5.7997,-5.7997,-5.7997,-5.7997,-5.7997,-5.7997,-5.7997,-5.7997,-5.7997,-5.7997,-5.7997,-5.7997,-5.7997,-5.7997,-5.7997,-5.7997,-5.7997,-5.7997,-5.7997,-5.7997,0.0,0.0,0.0,0.0,0.0,0.0,0.0,0.0,0.0,0.0,-4.5612,-4.6262,0.0,0.0,0.0,0.0,0.0,0.0,0.0,0.0,-4.3613,-4.3691,-4.3848,-4.4316,-4.5098,-4.5898,-4.6308,-4.6308,-4.6308,-4.6308,-4.6308,-4.6308,-4.6308,-4.6308,-4.6465,-4.6445,-4.6308,-4.6465,-4.6445,-4.6308,-4.6308,-4.6308,-4.6308,-4.6308,0.0,0.0,0.0,0.0,0.0,0.0,0.0,0.0,-4.6579,-4.8471,-5.0365,-4.9846,-5.2104,-5.464,-5.4131,-5.453,-5.5627,-5.789,-5.7254,-5.6523,-5.8154,-5.7857,-5.7907,-6.03,-6.0685,-6.0608,-6.0762,-6.08,-6.08,-6.08,-6.08,-6.08,-6.08,0.0,0.0,0.0,0.0,0.0,0.0,0.0,0.0,0.0,0.0,0.0,0.0,0.0,0.0,-5.8001,-5.7997,-5.7997,-5.7997,-5.7997,-5.7997,0.0,-5.7997,-5.7997,-5.7997,-5.7997,-5.7997,-5.7997,-5.7997,-5.7997,-5.7997,-5.7997,-5.7997,-5.7997,-5.7997,-5.7997,-5.7997,-5.7997,-5.7997,-5.7997,0.0,0.0,0.0,0.0,0.0,0.0,0.0,0.0,0.0,0.0,0.0,0.0,0.0,0.0,0.0,0.0,0.0,0.0,0.0,0.0,-4.2988,-4.3672,-4.5019,-4.582,-4.6016,-4.6191,-4.6308,-4.6308,-4.6308,-4.6308,-4.6308,-4.6308,-4.6308,-4.6367,-4.7734,-4.7578,-4.6387,-4.7754,-4.7558,-4.6308,-4.6308,-4.6308,-4.6308,-4.6308,-4.6308,0.0,0.0,0.0,0.0,0.0,0.0,0.0,-4.5855,-4.7163,-4.8903,-5.0114,-5.2012,-5.3992,-5.5191,-5.523,-5.52,-5.631,-5.6671,-5.7405,-5.9727,-5.9588,-5.93,-6.055,-5.9742,-5.9242,-6.055,-6.08,-6.08,-6.08,-6.08,0.0,0.0,0.0,0.0,0.0,0.0,0.0,0.0,0.0,0.0,0.0,0.0,0.0,0.0,0.0,0.0,-5.8001,-5.7997,-5.7997,-5.7997,-5.7997,-5.7997,0.0,-5.7997,-5.7997,-5.7997,-5.7997,-5.7997,-5.7997,-5.7997,-5.7997,-5.7997,-5.7997,-5.7997,-5.7997,-5.7997,-5.7997,-5.7997,-5.7997,-5.7997,-5.7997,0.0,0.0,0.0,0.0,0.0,0.0,0.0,0.0,0.0,0.0,0.0,0.0,0.0,0.0,0.0,0.0,0.0,0.0,0.0,0.0,0.0,0.0,0.0,0.0,0.0,0.0,-4.5469,-4.5058,-4.5058,-4.5488,-4.6308,-4.6308,-4.6308,-4.6348,-4.7246,-4.7148,-4.6367,-4.7266,-4.7129,-4.6308,-4.6308,-4.6308,-4.6308,-4.6308,-4.6308,-4.6308,-4.6308,0.0,0.0,0.0,0.0,0.0,0.0,0.0,-4.9365,-4.9519,-5.1672,-5.4226,-5.521,-5.5777,-5.6358,-5.7525,-5.8327,-5.9061,-5.9973,-6.0146,-6.0242,-6.0704,-6.0108,-5.9762,-6.0627,-6.08,-6.08,-6.08,0.0,0.0,0.0,0.0,0.0,0.0,0.0,0.0,0.0,0.0,0.0,0.0,0.0,0.0,0.0,-5.8952,-5.8484,-5.8001,-5.7997,-5.7997,-5.7997,-5.7997,-5.7997,-5.7997,-5.7997,-5.7997,-5.7997,-5.7997,-5.7997,-5.7997,-5.7997,-5.7997,-5.7997,-5.7997,-5.7997,-5.7997,-5.7997,-5.7997,-5.7997,-5.7997,-5.7997,-5.7997,0.0,0.0,0.0,0.0,0.0,0.0,0.0,0.0,0.0,0.0,0.0,0.0,0.0,0.0,0.0,0.0,0.0,0.0,0.0,0.0,0.0,0.0,0.0,0.0,0.0,0.0,-4.457,-4.3691,-4.3691,-4.4668,-4.6523,-4.6523,-4.6601,-4.6758,-4.6758,-4.6504,-4.6094,-4.623,-4.6211,-4.6094,-4.623,-4.6308,-4.6308,-4.6308,-4.6289,-4.6268,-4.6268,-4.6113,-4.5899,-4.5896,0.0,0.0,0.0,0.0,-4.9999,-4.8663,-5.1203,-5.4505,-5.4618,-5.5969,-5.7755,-5.9359,-5.9947,-6.0069,-5.9781,-6.005,-6.0454,-6.0742,-6.08,-6.08,-6.08,-6.08,-6.08,0.0,0.0,0.0,0.0,0.0,0.0,0.0,0.0,0.0,0.0,0.0,0.0,0.0,0.0,0.0,-5.9443,-5.8952,-5.8484,-5.8001,-5.7997,-5.7997,-5.7997,-5.7997,-5.7997,-5.7997,-5.7997,-5.7997,-5.7997,-5.7997,-5.7997,-5.7997,-5.7997,-5.7997,-5.7997,-5.7997,-5.7997,-5.7997,-5.7997,-5.7997,-5.7997,-5.7997,-5.7997,-5.7997,0.0,0.0,0.0,0.0,0.0,0.0,0.0,0.0,0.0,0.0,-4.7947,-4.825,0.0,0.0,0.0,0.0,0.0,0.0,0.0,0.0,0.0,0.0,-4.6113,0.0,0.0,0.0,0.0,-4.3691,-4.3691,-4.498,-4.7422,-4.7422,-4.7832,-4.8555,-4.8555,-4.7285,-4.5215,-4.5976,-4.5859,-4.5234,-4.5996,-4.6308,-4.6308,-4.6308,-4.6225,-4.614,-4.614,-4.6033,-4.5885,-4.5825,-4.5803,0.0,0.0,0.0,-4.8394,-4.818,-5.0715,-5.3587,-5.3596,-5.5373,-5.7589,-5.9143,-5.8525,-5.8061,-6.0146,-5.9588,-5.905,0.0,-6.08,-6.08,-6.08,-6.08,0.0,0.0,0.0,0.0,0.0,0.0,0.0,0.0,0.0,0.0,0.0,0.0,0.0,0.0,0.0,0.0,-5.9443,-5.8952,-5.8484,-5.8001,-5.7997,-5.7997,-5.7997,-5.7997,-5.7997,-5.7997,-5.7997,-5.7997,-5.7997,-5.7997,-5.7997,-5.7997,-5.7997,-5.7997,-5.7997,-5.7997,-5.7997,-5.7997,-5.7997,-5.7997,-5.7997,-5.7997,-5.7997,-5.7997,0.0,0.0,0.0,0.0,0.0,0.0,0.0,0.0,0.0,0.0,0.0,-4.9387,0.0,0.0,0.0,0.0,0.0,0.0,0.0,0.0,0.0,-4.4082,-4.5058,-4.4941,-4.3574,0.0,-4.3613,-4.2305,-4.2305,-4.4375,-4.832,-4.832,-4.8535,-4.8945,-4.9883,-4.8594,-4.5781,-4.666,-4.6523,-4.5723,-4.5605,-4.5859,-4.6348,-4.6836,-4.6945,-4.6887,-4.7374,-4.7428,-4.7163,-4.6649,-4.6455,-4.6309,-4.5774,0.0,0.0,0.0,-4.9891,-5.2303,-5.4186,-5.5181,-5.6425,-5.9469,-5.8588,-5.7676,-6.0223,-5.9858,-5.9319,-6.055,-6.08,-6.08,-6.08,0.0,0.0,0.0,0.0,0.0,0.0,0.0,0.0,0.0,0.0,0.0,0.0,0.0,0.0,0.0,0.0,-5.9628,-5.9407,-5.8694,-5.8213,-5.7997,-5.7997,-5.7997,-5.7997,-5.7997,-5.7997,-5.7997,-5.7997,-5.7997,-5.7997,-5.7997,-5.7997,-5.7997,-5.7997,-5.7997,-5.7997,-5.7997,-5.7997,-5.7997,-5.7997,-5.7997,-5.7997,-5.7997,-5.7997,-5.7997,0.0,0.0,0.0,0.0,0.0,0.0,0.0,0.0,0.0,0.0,0.0,0.0,0.0,0.0,0.0,0.0,0.0,0.0,0.0,0.0,0.0,-4.3047,-4.4082,-4.4062,-4.2754,0.0,-4.2656,-4.1191,-4.1406,-4.3828,-4.8242,-4.8926,-4.9336,-4.959,-5.084,-4.9863,-4.7324,-4.7754,-4.7422,-4.6582,-4.6152,-4.6113,-4.6406,-4.7266,-4.7511,-4.7509,-4.8349,-4.8365,-4.7893,-4.7204,-4.6791,-4.6471,-4.5806,-4.6605,0.0,0.0,0.0,-5.1347,-5.426,-5.4626,-5.5088,-5.8877,-5.8099,-5.7041,-5.9569,0.0,-5.9165,0.0,-6.0646,-6.08,-6.08,0.0,0.0,0.0,0.0,0.0,0.0,0.0,0.0,0.0,0.0,0.0,0.0,0.0,0.0,0.0,0.0,-5.9389,-5.9389,-5.8505,-5.7997,-5.7997,-5.7997,-5.7997,-5.7997,-5.7997,-5.7997,-5.7997,-5.7997,-5.7997,-5.7997,-5.7997,-5.7997,-5.7997,-5.7997,-5.7997,-5.7997,-5.7997,-5.7997,-5.7997,-5.7997,-5.7997,-5.7997,-5.7997,-5.7997,-5.7997,0.0,0.0,0.0,0.0,0.0,0.0,0.0,0.0,0.0,0.0,0.0,0.0,-5.0273,-4.8672,-4.6953,-4.5156,0.0,0.0,0.0,0.0,0.0,-4.4785,-4.416,0.0,-4.3633,-4.2871,-4.2051,-4.1191,-4.1953,-4.373,-4.6484,-4.8965,-5.0547,-5.1269,-5.1367,-5.0879,-4.9941,-4.916,-4.832,-4.7598,-4.8379,-4.7734,-4.6406,-4.7266,-4.7512,-4.7509,-4.8246,-4.793,-4.7145,-4.697,-4.6345,-4.5671,-4.5614,-4.622,-4.7096,0.0,0.0,0.0,-5.2856,-5.3299,-5.3895,-5.6541,-5.5895,-5.5299,-5.7857,0.0,-5.7577,-5.9242,-6.0223,-6.08,0.0,0.0,0.0,0.0,0.0,0.0,0.0,0.0,0.0,0.0,0.0,0.0,0.0,0.0,0.0,0.0,0.0,-5.9389,-5.9389,-5.8505,-5.7997,-5.7997,-5.7997,-5.7997,-5.7997,-5.7997,-5.7997,-5.7997,-5.7997,-5.7997,-5.7997,-5.7997,-5.7997,-5.7997,-5.7997,-5.7997,-5.7997,-5.7997,-5.7997,-5.7997,-5.7997,-5.7997,-5.7997,-5.7997,-5.7997,-5.7997,0.0,0.0,0.0,0.0,0.0,0.0,0.0,0.0,0.0,0.0,0.0,0.0,0.0,-4.9648,-4.834,-4.6035,-4.4238,0.0,0.0,0.0,0.0,-4.4101,-4.3867,-4.3691,-4.3691,-4.3398,-4.2812,-4.1973,-4.2266,-4.373,-4.6328,-4.7832,-4.9551,-5.1504,-5.373,-5.2734,-4.9453,-5.0781,-4.957,-4.6933,-4.8926,-4.8691,-4.7344,-4.9207,-5.0176,-5.0503,-5.0167,-5.046,-5.0766,-4.9076,-4.8298,-4.7855,-4.6778,-4.7009,-4.774,-4.8029,-4.8548,-4.9529,-5.175,-5.1587,-5.1625,-5.5261,-5.4914,-5.4337,-5.6876,-5.7665,-5.8,-5.8607,-5.9838,0.0,0.0,0.0,0.0,0.0,0.0,0.0,0.0,0.0,0.0,0.0,0.0,0.0,0.0,0.0,0.0,0.0,0.0,0.0,-5.9388,-5.8252,-5.7728,-5.8001,-5.7997,-5.7997,-5.7997,-5.7997,-5.7997,-5.7997,-5.7997,-5.7997,-5.7997,-5.7997,-5.7997,-5.7997,-5.7997,-5.7997,-5.7997,-5.7997,-5.7997,-5.7997,-5.7997,-5.7997,-5.7941,-5.7428,-5.7226,-5.7171,0.0,0.0,0.0,0.0,0.0,0.0,0.0,0.0,0.0,-5.1035,0.0,0.0,0.0,0.0,-4.7969,-4.5625,-4.4375,-4.3691,-4.3691,-4.3164,-4.3223,-4.4101,-4.3867,-4.3848,-4.4121,-4.3555,-4.2988,-4.2402,-4.2402,-4.3437,-4.5469,-4.6914,-4.8652,-5.0664,-5.3281,-5.3027,-5.0723,-5.2422,-5.1639,-4.9367,-5.0566,-5.0444,-4.9731,-5.1104,-5.192,-5.2311,-5.2509,-5.2683,-5.2637,-5.1501,-5.0529,-4.9644,-4.8529,-4.8144,-4.8105,-4.8105,-4.8105,-4.8471,-5.0154,-4.9817,-4.9702,-5.2799,-5.2741,-5.2587,-5.5145,-5.6607,-5.7588,-5.8184,-5.9627,0.0,0.0,0.0,0.0,0.0,0.0,0.0,0.0,0.0,0.0,0.0,0.0,0.0,0.0,0.0,0.0,0.0,0.0,0.0,-5.9008,-5.7997,-5.7478,-5.7597,-5.785,-5.7997,-5.7997,-5.7997,-5.7997,-5.7997,-5.7997,-5.7997,-5.7997,-5.7997,-5.7997,-5.7997,-5.7997,-5.7997,-5.7997,-5.7997,-5.7831,-5.7593,-5.7593,-5.7428,-5.7134,-5.6583,-5.64,-5.6326,0.0,0.0,0.0,0.0,0.0,0.0,0.0,0.0,-5.1055,-5.0254,0.0,0.0,0.0,0.0,0.0,-4.3926,-4.3789,-4.3789,-4.3789,-4.375,-4.4121,-4.5,0.0,0.0,0.0,-4.3359,-4.248,-4.248,-4.2441,-4.2871,-4.3769,-4.6308,-4.7949,-4.8828,-4.9726,-5.1504,-5.3847,-5.3926,-5.4306,-5.4747,-5.3392,-5.3057,-5.3341,-5.2836,-5.2504,-5.2655,-5.5045,-5.4304,-5.243,-5.4014,-5.2856,-5.077,-5.0693,-4.9471,-4.8067,-4.8067,-4.8048,-4.8029,0.0,0.0,0.0,-4.9144,-4.9375,0.0,-5.2529,0.0,-5.6107,-5.78,-5.9492,0.0,0.0,0.0,0.0,0.0,0.0,0.0,0.0,0.0,0.0,0.0,0.0,0.0,0.0,0.0,0.0,0.0,0.0,-5.946,-5.8249,-5.7735,-5.726,-5.6789,-5.7556,-5.796,-5.796,-5.7997,-5.7997,-5.7997,-5.7997,-5.7997,-5.7997,-5.7978,-5.796,-5.796,-5.7941,-5.7923,-5.7923,-5.7941,-5.7483,-5.6767,-5.6767,-5.629,-5.5614,-5.5578,-5.5556,-5.5556,0.0,0.0,0.0,0.0,0.0,0.0,0.0,-4.959,-4.9512,0.0,0.0,0.0,-4.8047,-4.6973,-4.6113,-4.5625,-4.5586,-4.5586,-4.5586,-4.498,-4.5039,-4.5898,-4.5117,-4.5058,-4.5918,-4.4844,-4.4277,-4.4277,-4.3652,-4.3457,0.0,0.0,-4.5234,-4.6133,-4.7547,-4.8924,-5.0291,-5.212,-5.1601,-4.9903,-5.4332,-5.3983,-5.1194,-5.4608,-5.473,-5.3328,-5.5123,-5.5306,-5.4756,-5.5215,-5.4087,-5.2183,-5.0337,-4.8606,-4.7231,-4.7231,-4.6797,-4.6432,-4.7067,0.0,0.0,0.0,0.0,0.0,0.0,0.0,-5.403,-5.4511,0.0,0.0,0.0,0.0,0.0,0.0,0.0,0.0,0.0,0.0,0.0,0.0,0.0,0.0,0.0,0.0,0.0,0.0,-5.8623,-5.7832,-5.7771,-5.7001,-5.6386,-5.5945,-5.6712,-5.7134,-5.7134,-5.7703,-5.7997,-5.7997,-5.7997,-5.7997,-5.7978,-5.7409,-5.7134,-5.7097,-5.651,-5.6253,-5.6308,-5.6895,-5.6657,-5.5923,-5.5923,-5.5794,-5.5519,-5.495,-5.473,-5.4638,0.0,0.0,0.0,0.0,0.0,0.0,-4.8906,-4.8845,-4.8707,0.0,0.0,0.0,-4.7148,-4.654,-4.6222,-4.6222,-4.6171,-4.6122,-4.6122,-4.5654,-4.5594,-4.6103,-4.5708,-4.5695,-4.6203,-4.5429,-4.5,0.0,0.0,0.0,0.0,0.0,-4.4686,-4.5479,-4.6064,-4.6779,-4.7645,-4.9445,-5.0485,-5.1254,-5.4902,-5.5573,-5.4634,-5.6895,-5.6796,-5.5653,-5.7238,-5.7376,-5.6896,-5.7588,-5.6222,-5.3972,-5.2491,-4.9894,-4.7548,-4.8279,-4.7124,-4.571,-4.622,-4.6355,-4.6471,-4.6932,0.0,0.0,-4.9163,-5.1087,-5.2972,0.0,0.0,0.0,0.0,0.0,0.0,0.0,0.0,0.0,0.0,0.0,0.0,0.0,0.0,0.0,0.0,0.0,0.0,-5.9011,-5.8088,-5.7325,-5.6819,-5.6101,-5.5513,-5.51,-5.5886,-5.6308,-5.6308,-5.6748,-5.6987,-5.6987,-5.6987,-5.6987,-5.6969,-5.651,-5.6308,-5.6271,-5.5794,-5.5409,-5.5133,-5.5611,-5.5519,-5.5097,-5.5097,-5.4876,-5.4546,-5.4069,-5.3904,-5.383,0.0,0.0,0.0,0.0,0.0,0.0,0.0,-4.8473,-4.815,0.0,-4.73,-4.6979,-4.6325,-4.6147,-4.608,-4.608,-4.5974,-4.5899,-4.5899,-4.5899,-4.5899,-4.5899,-4.6005,-4.608,-4.608,-4.5437,0.0,0.0,0.0,0.0,0.0,0.0,0.0,-4.5904,0.0,-4.5089,-4.5949,-4.6687,-5.021,-5.5299,-5.5081,-5.7105,-6.0142,-5.9119,-5.8452,-5.8261,-6.0127,-5.9723,-5.8531,-6.0012,-5.8492,-5.5915,-5.553,-5.2241,-4.8779,-5.0029,-4.8211,-4.5729,-4.5633,-4.5594,-4.5594,-4.5594,-4.5594,0.0,-4.8452,-5.0221,-5.2,0.0,0.0,0.0,0.0,0.0,0.0,0.0,0.0,0.0,0.0,0.0,0.0,0.0,0.0,0.0,0.0,-5.8204,-5.8165,-5.8165,-5.8069,-5.7296,-5.5643,-5.5169,-5.474,-5.4292,-5.5042,-5.5464,-5.5464,-5.5556,-5.5614,-5.5614,-5.5614,-5.5614,-5.5614,-5.55,-5.5464,-5.5467,-5.5354,-5.4932,-5.4271,-5.4271,-5.4271,-5.4271,-5.4271,-5.383,-5.3185,-5.3185,-5.3185,-5.3185,0.0,0.0,0.0,0.0,0.0,0.0,0.0,-4.6454,-4.6392,-4.6254,-4.622,-4.6135,-4.5997,-4.5944,-4.5932,-4.5932,-4.5912,-4.5899,-4.5899,-4.5899,-4.5899,-4.5899,-4.592,-4.5932,-4.5932,-4.5795,0.0,0.0,0.0,0.0,0.0,0.0,0.0,-4.4931,-4.3957,-4.4378,-4.5873,-4.6603,-4.8785,-5.1943,-5.4516,-5.6009,-5.6964,-5.9414,-5.8633,-5.6607,-5.9685,-5.9723,-5.8357,-5.8684,-5.8338,-5.7319,-5.4568,-5.2529,-5.0808,-4.9106,-4.7682,-4.649,-4.5787,-4.5594,-4.5594,-4.5594,-4.5594,0.0,-4.6229,-4.7144,-4.8192,0.0,-5.0414,0.0,0.0,0.0,0.0,0.0,0.0,0.0,0.0,0.0,0.0,0.0,0.0,0.0,0.0,-5.7665,-5.7253,-5.7253,-5.6588,-5.5784,-5.4777,-5.4649,-5.4239,-5.3466,-5.4216,-5.4638,-5.4638,-5.5262,-5.5614,-5.5614,-5.5614,-5.5614,-5.5596,-5.4932,-5.4638,-5.4601,-5.3959,-5.3592,-5.3424,-5.3424,-5.3424,-5.3424,-5.3424,-5.3332,-5.3185,-5.3185,-5.3185,-5.3185,-4.6108,-4.6045,0.0,0.0,0.0,0.0,0.0,0.0,-4.5866,-4.5894,-4.5899,-4.5899,-4.5899,-4.5862,-4.5839,-4.5839,-4.5789,-4.5745,-4.5745,-4.5745,-4.5745,-4.5745,-4.5799,-4.5839,-4.5839,-4.5886,-4.5899,0.0,0.0,0.0,0.0,0.0,0.0,-4.5232,-4.4724,-4.4929,-4.575,-4.6553,-4.8375,-5.1,-5.4337,-5.6222,-5.728,-5.9819,-5.9742,-5.8473,-6.0185,-6.0262,-5.9415,-5.8588,-5.83,-5.8011,-5.628,-5.3962,-5.1558,-4.9894,-4.8221,-4.6721,-4.5845,-4.5594,-4.5594,-4.5594,-4.5594,0.0,0.0,-4.6894,-4.774,-4.8586,-4.9433,-5.0164,-5.0587,0.0,0.0,0.0,0.0,0.0,0.0,0.0,0.0,0.0,0.0,0.0,0.0,-5.6607,-5.6349,-5.6349,-5.5762,-5.5147,-5.4535,-5.4272,-5.3851,-5.3227,-5.3592,-5.3812,-5.3812,-5.4197,-5.4399,-5.4399,-5.4399,-5.4399,-5.4399,-5.3995,-5.3812,-5.3794,-5.339,-5.3185,-5.3185,-5.3185,-5.3185,-5.3185,-5.3185,-5.3185,-5.3185,-5.3185,-5.3185,-5.3185,-4.589,-4.5881,0.0,0.0,0.0,0.0,0.0,0.0,-4.5783,-4.5831,-4.5846,-4.5963,-4.6288,-4.6138,-4.6129,-4.6477,-4.6389,-4.6191,-4.5883,-4.5998,-4.5941,-4.5614,-4.57,-4.5768,-4.5768,-4.5805,-4.5846,0.0,0.0,0.0,0.0,0.0,0.0,-4.5749,-4.5594,-4.5719,-4.6152,-4.7009,-4.8856,-5.1471,-5.4838,-5.6838,-5.803,-6.0031,-6.0589,-6.0358,-6.0685,-6.08,-6.0531,-5.8877,-5.83,-5.8242,-5.7915,-5.5203,-5.1962,-5.0991,-4.9009,-4.6913,-4.5883,-4.5594,-4.5594,-4.5594,-4.5594,-4.5787,0.0,0.0,0.0,0.0,0.0,0.0,0.0,0.0,0.0,0.0,0.0,0.0,0.0,0.0,0.0,0.0,0.0,0.0,0.0,-5.5376,-5.553,-5.5684,-5.5399,-5.5007,-5.4535,-5.4135,-5.3701,-5.3206,-5.3185,-5.3185,-5.3185,-5.3185,-5.3185,-5.3185,-5.3185,-5.3185,-5.3185,-5.3185,-5.3185,-5.3185,-5.3185,-5.3185,-5.3185,-5.3185,-5.3185,-5.3185,-5.3185,-5.3185,-5.3185,-5.3185,-5.3185,-5.3185,-4.5857,-4.5845,-4.5809,0.0,0.0,0.0,0.0,0.0,-4.5618,-4.5624,-4.5632,-4.6202,-4.7677,-4.7216,-4.7372,-4.8854,-4.899,-4.8336,-4.6855,-4.7413,-4.7144,-4.5671,-4.562,-4.561,-4.561,-4.5635,-4.5632,0.0,0.0,0.0,0.0,0.0,0.0,-4.559,-4.482,-4.5727,-4.7875,-4.874,-5.0587,-5.3222,-5.6626,-5.7203,0.0,-5.9569,-5.9877,-5.8781,-6.0262,-6.08,-6.0531,0.0,-5.83,-5.803,0.0,-5.4645,-5.2741,-5.1164,0.0,0.0,0.0,0.0,0.0,0.0,-4.5594,-4.5633,0.0,0.0,-4.5922,-4.6018,0.0,0.0,0.0,0.0,0.0,0.0,0.0,0.0,0.0,0.0,0.0,0.0,0.0,0.0,0.0,0.0,-5.4934,-5.5645,-5.5662,-5.5306,-5.455,-5.4455,-5.405,-5.3227,-5.3185,-5.3185,-5.3185,-5.3185,-5.3185,-5.3185,-5.3185,-5.3185,-5.3185,-5.3185,-5.3185,-5.3185,-5.3185,-5.3185,-5.3185,-5.3185,-5.3185,-5.3185,-5.3185,-5.3185,-5.3185,-5.3185,-5.3185,-5.3185,-4.5708,-4.5691,-4.5669,-4.5669,0.0,0.0,0.0,0.0,-4.5594,-4.5594,-4.5594,-4.624,-4.7913,-4.7798,-4.8298,-4.999,-5.0144,-4.9856,-4.9144,-4.8471,-4.7798,-4.7086,-4.6133,-4.5594,-4.5594,-4.5594,-4.5594,-4.5594,-4.5594,0.0,0.0,0.0,0.0,0.0,-4.5229,-4.6182,-4.8202,-4.9567,-5.1337,0.0,0.0,-5.6357,0.0,-5.9492,-6.0358,-5.9723,-5.9454,-5.9973,-6.0396,0.0,-5.8107,0.0,0.0,0.0,0.0,-5.3241,0.0,0.0,0.0,0.0,0.0,0.0,0.0,0.0,-4.7048,0.0,-4.5594,0.0,0.0,0.0,0.0,0.0,0.0,0.0,-4.8606,0.0,0.0,0.0,0.0,0.0,0.0,0.0,0.0,0.0,0.0,0.0,0.0,-5.4093,-5.3767,-5.3753,-5.3583,-5.3206,-5.3185,-5.3185,-5.3185,-5.3185,-5.3185,-5.3185,-5.3185,-5.3185,-5.3185,-5.3185,-5.3185,-5.3185,-5.3185,-5.3185,-5.3185,-5.3185,-5.3185,-5.3185,-5.3185,-5.3185,-5.3185,-5.3185,-5.3185,-5.3185,-4.5594,-4.5594,-4.5594,-4.5594,0.0,0.0,0.0,0.0,-4.6278,-4.6278,-4.6499,-4.7278,-4.8971,-4.874,-4.926,-5.1202,-5.1395,-5.1279,-5.1029,-4.9644,-4.8817,-4.8817,-4.674,-4.5825,-4.6278,-4.5845,-4.5594,0.0,0.0,0.0,0.0,0.0,0.0,0.0,-4.5594,-4.6528,-4.824,-5.0452,-5.2356,-5.4068,-5.6222,-5.7088,-5.7319,-5.9338,-6.0396,-6.0627,-5.9415,-5.9762,-6.0339,-5.7396,-5.805,0.0,-5.7203,0.0,-5.5588,0.0,0.0,0.0,-4.9702,0.0,0.0,0.0,0.0,0.0,0.0,0.0,0.0,0.0,0.0,0.0,0.0,0.0,0.0,0.0,0.0,-4.9529,0.0,0.0,0.0,0.0,0.0,0.0,0.0,0.0,0.0,-5.4107,-5.3663,-5.3331,-5.3208,-5.3293,-5.3316,-5.3206,-5.3185,-5.3185,-5.3185,-5.3185,-5.3185,-5.3185,-5.3185,-5.3185,-5.3185,-5.3185,-5.3185,-5.3185,-5.3185,-5.3185,-5.3185,-5.3185,-5.3185,-5.3185,-5.3185,-5.3185,-5.3185,-5.3185,-5.3185,-5.3185,-4.5594,-4.5594,-4.5594,-4.5594,-4.5594,0.0,0.0,0.0,-4.8029,-4.8029,-4.8759,-4.9913,-5.1596,-5.0337,-5.0375,-5.2895,-5.3126,-5.276,-5.1923,-5.1087,-5.0616,-5.0616,-4.7384,-4.6355,-4.799,-4.6432,-4.5594,0.0,0.0,0.0,0.0,0.0,0.0,0.0,-4.5594,-4.6528,-4.8317,-5.1702,-5.4087,-5.5915,-5.9281,-6.0627,-6.0473,0.0,-5.9396,-6.0781,-6.0742,0.0,0.0,-5.88,-5.83,0.0,0.0,0.0,0.0,0.0,0.0,0.0,0.0,0.0,0.0,-4.801,0.0,0.0,0.0,0.0,-4.5107,0.0,0.0,0.0,0.0,0.0,0.0,0.0,0.0,0.0,0.0,0.0,0.0,0.0,0.0,0.0,0.0,0.0,0.0,-5.3241,-5.3573,-5.3622,-5.3223,-5.3564,-5.3604,-5.3206,-5.3185,-5.3185,-5.3185,-5.3185,-5.3185,-5.3185,-5.3185,-5.3185,-5.3185,-5.3185,-5.3185,-5.3185,-5.3185,-5.3185,-5.3185,-5.3185,-5.3185,-5.3185,-5.3185,-5.3185,-5.3185,-5.3185,-5.3185,-5.3185,-4.5825,-4.5594,-4.5594,-4.5594,-4.5594,-4.5594,-4.5594,-4.6075,-4.6836,-4.7952,-4.8355,-4.9625,-5.2452,-5.226,-5.2491,-5.3933,-5.4549,-5.4491,-5.3664,-5.2837,-5.2356,-5.2356,-5.0183,-4.8702,-4.8105,-4.7548,-4.6701,-4.5594,0.0,0.0,0.0,0.0,0.0,0.0,0.0,-4.6528,-4.8317,-5.176,-5.4164,0.0,0.0,-5.9146,-5.9204,0.0,0.0,-6.08,-6.08,-6.061,0.0,-5.8412,-5.8368,-5.8829,-5.773,-5.6975,-5.6614,-5.7175,-5.4976,0.0,0.0,0.0,-5.1121,-5.0587,0.0,0.0,0.0,0.0,0.0,0.0,0.0,0.0,0.0,0.0,0.0,0.0,0.0,0.0,0.0,0.0,0.0,0.0,0.0,0.0,0.0,0.0,0.0,-5.2288,-5.1974,-5.1679,0.0,-5.2232,-5.2567,-5.2399,-5.2931,-5.3185,-5.3185,-5.3185,-5.3185,-5.3185,-5.3185,-5.3185,-5.3185,-5.3185,-5.3185,-5.3185,-5.3185,-5.3185,-5.3185,-5.3185,-5.3185,-5.3185,-5.3185,-5.3185,-5.3185,-5.3185,-5.3185,-5.3185,-4.5941,-4.5594,-4.5594,-4.5594,-4.5594,-4.5806,-4.6394,-4.674,-4.7663,-4.9644,-4.9913,-5.0875,-5.3395,-5.3395,-5.3549,-5.4414,-5.4684,-5.4972,-5.5357,-5.3453,-5.2972,-5.4491,-5.1779,-5.0144,-4.9913,-4.8721,-4.7875,-4.7403,0.0,-4.5922,0.0,0.0,0.0,0.0,0.0,-4.621,-4.7471,-5.151,-5.3818,0.0,0.0,-5.8558,0.0,0.0,-6.0035,-6.054,0.0,-6.0118,-5.9684,-5.8604,-5.8757,-5.9219,-5.8129,-5.7789,-5.7771,-5.7748,-5.581,-5.3669,-5.3679,-5.3134,0.0,-5.1874,-5.0841,0.0,-4.9209,0.0,0.0,0.0,0.0,0.0,0.0,0.0,0.0,0.0,0.0,0.0,0.0,-5.0712,0.0,0.0,0.0,-5.1221,0.0,0.0,-5.1221,-5.1471,-5.0982,-5.07,0.0,0.0,-5.1995,-5.1995,-5.2784,-5.3185,-5.3185,-5.3185,-5.3185,-5.3185,-5.3185,-5.3185,-5.3185,-5.3185,-5.3185,-5.3185,-5.3185,-5.3185,-5.3185,-5.3185,-5.3185,-5.3185,-5.3185,-5.3185,-5.3185,-5.3185,-5.3185,-5.3185,-4.5886,-4.5568,-4.5577,-4.5594,-4.5671,-4.6259,-4.7855,-4.8875,-5.0356,-5.2818,-5.3164,-5.3549,-5.4453,-5.3857,-5.3703,-5.4491,-5.3799,-5.4337,-5.6714,-5.3117,-5.2693,-5.6772,-5.2299,-5.0818,-5.3145,-5.0029,-4.9125,-5.0712,0.0,0.0,0.0,0.0,0.0,0.0,-4.5559,0.0,-4.5904,-5.1009,-5.3278,-5.3701,-5.6854,-5.8872,-5.9769,-5.8144,-5.8563,-5.9981,-5.9543,-5.9391,-5.9373,-5.9373,-5.9337,-5.9319,-5.9319,-5.9319,-5.8999,-5.7341,-5.6834,-5.6476,-5.4872,-5.4101,-5.3405,-5.1859,0.0,0.0,0.0,0.0,-4.9003,0.0,0.0,0.0,0.0,0.0,0.0,0.0,0.0,0.0,0.0,0.0,-5.0634,0.0,0.0,-5.1509,-5.076,-5.1395,-5.1519,-5.0731,-5.0646,-5.0647,0.0,0.0,-5.1903,-5.1995,-5.2656,-5.3096,-5.3185,-5.3112,-5.3112,-5.3185,-5.3185,-5.3185,-5.3185,-5.3185,-5.3185,-5.3185,-5.3185,-5.3185,-5.3185,-5.3185,-5.3185,-5.3185,-5.3185,-5.3185,-5.3185,-5.3185,-5.3185,-5.3185,-4.5242,-4.5063,-4.5312,-4.5559,-4.6624,-4.7605,-4.8029,-4.9394,-5.0818,-5.2058,-5.2799,-5.376,-5.5222,-5.5761,-5.5838,-5.5434,-5.5184,-5.5068,-5.5145,-5.4126,-5.428,-5.5953,-5.478,-5.3818,-5.3222,-5.2337,-5.1491,-5.0712,-4.8509,0.0,-4.8058,0.0,0.0,0.0,0.0,-4.4988,-4.5557,-5.0677,-5.4266,-5.6512,-5.604,-5.6625,0.0,0.0,-5.7604,-5.9084,-5.9319,-5.9176,-5.8874,-5.8874,-5.8652,-5.8372,-5.8372,-5.8372,-5.8058,-5.6411,-5.593,-5.5597,-5.3967,-5.3442,-5.3249,-5.2843,-5.1766,-5.0692,0.0,0.0,0.0,0.0,0.0,0.0,0.0,0.0,0.0,0.0,0.0,0.0,0.0,0.0,0.0,-4.98,0.0,-5.0588,-5.0692,-5.0894,-5.0795,-5.0291,-4.9982,-4.9939,0.0,0.0,0.0,-5.1958,-5.1022,-5.1389,-5.3167,-5.2013,-5.2032,-5.3185,-5.3185,-5.3185,-5.3185,-5.3185,-5.3185,-5.3185,-5.3185,-5.3185,-5.3185,-5.3185,-5.3185,-5.3185,-5.3185,-5.3185,-5.3185,-5.3185,-5.3185,-5.3185,-4.4971,-4.4745,-4.4943,-4.5129,-4.7274,-4.9035,-4.9202,-5.0683,0.0,-5.3914,-5.4222,0.0,-5.6646,-5.6934,-5.6964,-5.6857,-5.5818,-5.5453,-5.6126,-5.4414,-5.4222,-5.6195,-5.5568,-5.4568,-5.3241,-5.3203,-5.2741,-5.1779,-4.9171,0.0,-4.8917,0.0,0.0,0.0,0.0,-4.4695,-4.5207,-5.0246,-5.4339,-5.7304,-5.6246,0.0,0.0,-5.6591,-5.7095,-5.8439,-5.8694,-5.8611,-5.8397,-5.8397,-5.8235,-5.7997,-5.7997,-5.7997,-5.7685,-5.6069,-5.5614,-5.5244,-5.3647,-5.3185,-5.3185,-5.3185,-5.2527,-5.1848,-5.1848,-5.1132,-5.0684,0.0,0.0,0.0,0.0,0.0,0.0,0.0,0.0,0.0,0.0,0.0,0.0,0.0,-5.0009,-5.0304,-5.0197,-5.0336,-5.0347,-5.0123,-4.9254,0.0,0.0,0.0,0.0,-5.0932,-5.0749,-5.1132,-5.2142,-5.1261,-5.1426,-5.2674,-5.2674,-5.2858,-5.3185,-5.3185,-5.3185,-5.3185,-5.3185,-5.3185,-5.3185,-5.3185,-5.3185,-5.3185,-5.3185,-5.3185,-5.3185,-5.3185,-5.3185,-5.3185,-4.4847,-4.4527,-4.4597,-4.4863,-4.77,0.0,0.0,-5.2432,0.0,-5.6406,0.0,-5.628,-5.78,-5.7376,-5.7311,-5.8069,-5.5992,-5.5607,-5.7819,-5.4365,-5.3606,-5.6695,-5.5434,-5.4299,-5.3549,-5.353,-5.3509,-5.3447,0.0,0.0,0.0,0.0,0.0,0.0,0.0,0.0,0.0,-4.9904,-5.3676,-5.6903,-5.6837,-5.7398,-5.8165,-5.6913,-5.7085,-5.7997,-5.7997,-5.7997,-5.7997,-5.7997,-5.7997,-5.7997,-5.7997,-5.7997,-5.7685,-5.6069,-5.5614,-5.5244,-5.3647,-5.3185,-5.3185,-5.3185,-5.3185,-5.3185,-5.3185,-5.3185,-5.3295,-5.3644,-5.372,-5.3627,0.0,0.0,0.0,0.0,0.0,0.0,0.0,0.0,-5.0247,-4.9435,0.0,0.0,-4.934,-4.973,-4.9987,-4.9949,-4.854,0.0,0.0,0.0,0.0,-4.9757,-5.0894,0.0,-5.0967,0.0,-5.1151,-5.216,-5.205,-5.2417,-5.3185,-5.3185,-5.3185,-5.3185,-5.3185,-5.3185,-5.3185,-5.3185,-5.3185,-5.3185,-5.3185,-5.3185,-5.3185,-5.3185,-5.3185,-5.3185,-4.442,-4.4121,-4.462,-4.629,-4.7979,-4.9823,-5.1947,-5.3962,-5.5184,-5.4972,-5.5376,-5.5818,-5.6126,-5.6656,-5.706,-5.7214,-5.6165,0.0,0.0,0.0,0.0,-5.5857,-5.5645,-5.5415,-5.5261,-5.5261,-5.5101,0.0,0.0,0.0,0.0,0.0,0.0,0.0,0.0,0.0,-5.0272,-4.998,0.0,-5.6426,-5.635,-5.6258,-5.6264,-5.7287,-5.7831,-5.7997,-5.7997,-5.7997,-5.7997,-5.7997,-5.7997,-5.7997,-5.7997,-5.7997,-5.7685,-5.6069,-5.5614,-5.5244,-5.3647,-5.3185,-5.3185,-5.3185,-5.3185,-5.3185,-5.3185,-5.3185,-5.3227,-5.3274,-5.3295,-5.3367,-5.3646,0.0,0.0,0.0,0.0,0.0,0.0,0.0,0.0,0.0,0.0,-4.9631,0.0,-4.8976,-4.9475,-4.9139,0.0,0.0,0.0,0.0,0.0,0.0,0.0,0.0,0.0,0.0,-5.0875,-5.2986,-5.2307,-5.2417,-5.3185,-5.3185,-5.3185,-5.3185,-5.3185,-5.3185,-5.3185,-5.3185,-5.3185,-5.3185,-5.3185,-5.3185,-5.3185,-5.3185,-5.3185,-5.3185,-4.513,-4.4315,-4.4239,-4.5847,-4.7856,0.0,0.0,-5.4104,-5.5722,-5.578,-5.6137,-5.6549,-5.6992,-5.7022,-5.7176,-5.7627,-5.6453,-5.5876,-5.6349,-5.5203,-5.4857,-5.5665,-5.5703,-5.528,-5.4414,-5.5261,-5.5079,-5.3798,0.0,0.0,0.0,0.0,0.0,0.0,0.0,-4.6634,0.0,0.0,0.0,-5.6002,-5.6808,-5.7026,-5.6932,-5.7703,-5.7997,-5.7997,-5.7997,-5.7997,-5.7997,-5.7997,-5.7997,-5.7997,-5.7997,-5.7703,-5.7134,-5.5941,-5.5299,-5.4711,-5.3537,-5.3185,-5.3185,-5.3185,-5.3185,-5.3185,-5.3185,-5.3185,-5.3185,-5.3185,-5.3185,-5.3122,-5.291,-5.2229,0.0,0.0,0.0,0.0,0.0,0.0,-4.9445,0.0,0.0,0.0,0.0,0.0,0.0,0.0,0.0,0.0,0.0,0.0,0.0,0.0,0.0,0.0,0.0,0.0,0.0,-5.2564,-5.2179,-5.2417,-5.3185,-5.3185,-5.3185,-5.3185,-5.3185,-5.3185,-5.3185,-5.3185,-5.3185,-5.3185,-5.3185,-5.3185,-5.3185,-5.3185,-5.3185,-5.3185,-4.6542,-4.5528,-4.5109,-4.6489,-4.8464,-5.0349,-5.182,-5.3835,-5.5539,-5.6596,-5.6714,-5.6992,-5.7665,-5.7126,-5.6934,-5.7453,-5.6395,-5.5838,-5.6175,-5.528,-5.4932,-5.5289,-5.5481,-5.4909,-5.3506,-5.4764,-5.4587,0.0,0.0,0.0,0.0,0.0,0.0,0.0,0.0,0.0,0.0,0.0,-5.4234,-5.5978,-5.7409,-5.7997,-5.7997,-5.7997,-5.7997,-5.7997,-5.7997,-5.7997,-5.7997,-5.7997,-5.7997,-5.7997,-5.7997,-5.7446,-5.6638,-5.5831,-5.5023,-5.4216,-5.3427,-5.3185,-5.3185,-5.3185,-5.3185,-5.3185,-5.3185,-5.3185,-5.3185,-5.3185,-5.3185,-5.3023,-5.2362,-5.2105,0.0,0.0,0.0,0.0,0.0,0.0,0.0,0.0,0.0,0.0,-4.9389,0.0,0.0,0.0,0.0,0.0,0.0,0.0,0.0,0.0,0.0,-5.0545,-5.0545,0.0,-5.1298,0.0,-5.2068,-5.2417,-5.3185,-5.3185,-5.3185,-5.3185,-5.3185,-5.3185,-5.3185,-5.3185,-5.3185,-5.3185,-5.3185,-5.3185,-5.3185,-5.3185,-5.3185,-5.3185,0.0,-4.8597,0.0,0.0,0.0,0.0,-5.3848,-5.3769,-5.4012,-5.5618,-5.5818,-5.5838,-5.5934,-5.5857,-5.5549,-5.4914,-5.5376,-5.5088,-5.3645,-5.4838,-5.5101,-5.4015,-5.474,-5.4903,-5.4401,-5.4518,-5.4312,0.0,0.0,0.0,0.0,0.0,0.0,0.0,0.0,0.0,0.0,-5.2766,-5.4564,-5.6767,-5.7648,-5.7997,-5.7997,-5.7997,-5.7997,-5.7997,-5.7997,-5.7997,-5.7997,-5.7997,-5.7997,-5.7997,-5.7997,-5.7446,-5.6638,-5.5831,-5.5023,-5.4216,-5.3427,-5.3185,-5.3185,-5.3185,-5.3185,-5.3185,-5.3185,-5.3185,-5.3185,-5.3185,-5.3185,-5.3167,-5.3093,-5.2491,-5.1738,0.0,0.0,0.0,0.0,0.0,-4.961,-4.961,0.0,0.0,0.0,-4.7681,0.0,0.0,0.0,0.0,0.0,0.0,0.0,-4.8398,0.0,-4.9721,-4.9721,-5.0435,0.0,-5.3096,-5.2344,-5.2417,-5.3185,-5.3185,-5.3185,-5.3185,-5.3185,-5.3185,-5.3185,-5.3185,-5.3185,-5.3185,-5.3185,-5.3185,-5.3185,-5.3185,-5.3185,-5.3185,0.0,0.0,0.0,0.0,0.0,0.0,0.0,-5.3865,-5.4216,-5.4881,-5.4979,-5.5061,-5.5306,-5.5115,-5.496,-5.4879,-5.493,-5.4694,-5.4014,-5.4618,-5.4738,-5.4238,-5.456,-5.4655,-5.4503,-5.4503,-5.4272,0.0,0.0,0.0,0.0,0.0,0.0,0.0,0.0,-5.0618,-5.2105,-5.3885,-5.5482,-5.6877,-5.7685,-5.7997,-5.7997,-5.7997,-5.7997,-5.7997,-5.7997,-5.7997,-5.7997,-5.7997,-5.7997,-5.7923,-5.7428,-5.673,-5.5923,-5.5115,-5.4308,-5.361,-5.3277,-5.3185,-5.3185,-5.3185,-5.3185,-5.3185,-5.3185,-5.3185,-5.3185,-5.3185,-5.3185,-5.3185,-5.3185,-5.2949,-5.2454,0.0,0.0,0.0,0.0,0.0,0.0,-5.0987,0.0,-5.0362,0.0,0.0,0.0,0.0,0.0,0.0,0.0,0.0,0.0,-4.9774,0.0,-5.0784,-5.1756,-5.1591,-5.2087,-5.3185,-5.2876,-5.2894,-5.3185,-5.3185,-5.3185,-5.3185,-5.3185,-5.3185,-5.3185,-5.3185,-5.3185,-5.3185,-5.3185,-5.3185,-5.3185,-5.3185,-5.3185,-5.3185,-5.1646,0.0,-5.0232,0.0,-5.1779,-5.2224,-5.2623,-5.3495,-5.3933,-5.3464,-5.382,-5.4322,-5.4862,-5.4655,-5.4499,-5.4534,-5.4523,-5.4277,-5.377,-5.422,-5.4307,-5.3931,-5.4157,0.0,-5.4121,-5.4121,-5.3961,-5.3624,-5.1343,0.0,0.0,0.0,0.0,0.0,-5.0784,-5.183,-5.2472,-5.4418,-5.5702,-5.6528,-5.7317,-5.7795,-5.7997,-5.7997,-5.7997,-5.7997,-5.7997,-5.7997,-5.7997,-5.7997,-5.7831,-5.7556,-5.6987,-5.6253,-5.5427,-5.4638,-5.383,-5.3185,-5.3185,-5.3185,-5.3185,-5.3185,-5.3185,-5.3185,-5.3185,-5.3185,-5.3185,-5.3185,-5.3185,-5.3185,-5.3185,-5.3185,-5.2949,-5.2123,0.0,0.0,0.0,0.0,0.0,-5.1573,-5.093,-5.0765,-5.1555,-4.9627,0.0,0.0,0.0,0.0,0.0,0.0,0.0,0.0,0.0,0.0,0.0,-5.1811,-5.2179,-5.3185,-5.3185,-5.3185,-5.3185,-5.3185,-5.3185,-5.3185,-5.3185,-5.3185,-5.3185,-5.3185,-5.3185,-5.3185,-5.3185,-5.3185,-5.3185,-5.3185,-5.3185,-5.3185,-5.3702,-5.3758,-5.3885,-5.4366,-5.4063,-5.3237,-5.167,-5.2449,-5.2658,-5.1061,-5.2236,-5.3543,-5.4423,-5.4503,-5.4163,-5.3302,-5.3997,-5.377,-5.2042,-5.3544,-5.3912,0.0,0.0,-5.3605,-5.3227,-5.3206,-5.3206,-5.3206,0.0,0.0,-5.0765,0.0,-5.0747,-5.0839,-5.2454,-5.3167,-5.3243,-5.4069,-5.4876,-5.5666,-5.6492,-5.7299,-5.7997,-5.7997,-5.7997,-5.7997,-5.7997,-5.7997,-5.7997,-5.7997,-5.7464,-5.6822,-5.6804,-5.6253,-5.5427,-5.4638,-5.383,-5.3185,-5.3185,-5.3185,-5.3185,-5.3185,-5.3185,-5.3185,-5.3185,-5.3185,-5.3185,-5.3185,-5.3185,-5.3185,-5.3185,-5.3185,-5.2949,-5.2123,0.0,0.0,0.0,0.0,0.0,-5.082,-5.0086,-4.9941,-5.0747,-4.9297,0.0,0.0,0.0,0.0,0.0,0.0,0.0,-4.8306,-4.8343,0.0,-4.9629,-5.0417,-5.1628,-5.3185,-5.3185,-5.3185,-5.3185,-5.3185,-5.3185,-5.3185,-5.3185,-5.3185,-5.3185,-5.3185,-5.3185,-5.3185,-5.3185,-5.3185,-5.3185,-5.3185,-5.3185,-5.3185,-5.0246,-5.1852,-5.3091,-5.2139,-5.2763,-5.3216,-5.2699,-5.2943,-5.3023,-5.2509,-5.2873,-5.3314,-5.3583,-5.3603,-5.3608,0.0,-5.2605,-5.2214,0.0,-5.2288,-5.2286,-5.2957,-5.2183,-5.1699,-5.1573,-5.1573,-5.1573,-5.1573,0.0,0.0,0.0,-5.0802,-5.1389,-5.2472,-5.2986,-5.3185,-5.324,-5.4069,-5.4858,-5.5666,-5.6492,-5.7281,-5.7997,-5.7997,-5.7997,-5.7997,-5.7997,-5.7997,-5.7997,-5.7997,-5.7464,-5.6712,-5.6143,-5.5427,-5.462,-5.383,-5.3387,-5.3185,-5.3185,-5.3185,-5.3185,-5.3185,-5.3185,-5.3185,-5.3185,-5.3185,-5.3185,-5.3185,-5.3185,-5.3185,-5.3185,-5.3185,-5.2949,-5.2123,-5.2454,0.0,0.0,0.0,0.0,-5.161,-5.0912,-5.0729,0.0,-5.0637,0.0,0.0,0.0,0.0,0.0,0.0,0.0,0.0,-5.082,0.0,-5.205,-5.1756,-5.2142,-5.3185,-5.3185,-5.3185,-5.3185,-5.3185,-5.3185,-5.3185,-5.3185,-5.3185,-5.3185,-5.3185,-5.3185,-5.3185,-5.3185,-5.3185,-5.3185,-5.3185,-5.3185,-5.3185,-5.0362,-5.1793,-5.2873,-5.1885,-5.2546,-5.3004,-5.2399,-5.2821,-5.2965,-5.238,-5.2818,-5.3185,-5.3185,-5.3185,0.0,-5.3546,-5.2418,-5.2142,-5.313,-5.227,-5.216,-5.317,-5.2252,-5.1701,-5.1701,0.0,0.0,-5.1701,-5.1701,-5.1701,-5.1701,-5.1701,-5.2252,-5.3185,-5.3185,-5.3185,-5.3222,-5.3739,-5.4583,-5.5629,-5.6143,-5.7005,-5.7997,-5.7997,-5.7997,-5.7997,-5.7997,-5.7997,-5.7997,-5.7997,-5.7262,-5.6253,-5.5757,-5.484,-5.3849,-5.3353,-5.3185,-5.3185,-5.3185,-5.3185,-5.3185,-5.3185,-5.3185,-5.3185,-5.3185,-5.3185,-5.3185,-5.3185,-5.3185,-5.3185,-5.3185,-5.3185,-5.3041,-5.2527,-5.2876,-5.3023,-5.2527,0.0,0.0,0.0,0.0,0.0,0.0,-5.1555,0.0,0.0,0.0,0.0,0.0,0.0,0.0,-5.1499,-5.1555,0.0,-5.2747,-5.2252,-5.2399,-5.3185,-5.3185,-5.3185,-5.3185,-5.3185,-5.3185,-5.3185,-5.3185,-5.3185,-5.3185,-5.3185,-5.3185,-5.3185,-5.3185,-5.3185,-5.3185,-5.3185,-5.3185,-5.3185,-5.2873,-5.3038,0.0,0.0,-5.3133,0.0,-5.1206,-5.2252,-5.2653,-5.1169,-5.227,-5.3185,-5.3185,-5.3185,-5.3185,-5.3185,0.0,0.0,0.0,-5.3093,-5.3075,-5.3185,-5.3075,-5.302,-5.302,-5.302,-5.3075,-5.3185,-5.3185,-5.3185,-5.3185,-5.3185,-5.3185,-5.3185,-5.3185,-5.3185,-5.3185,-5.3185,-5.4124,-5.5614,-5.5614,-5.6547,-5.7997,-5.7997,-5.7997,-5.7997,-5.7997,-5.7997,-5.7997,-5.7997,-5.6932,-5.5614,-5.5614,-5.4491,-5.3185,-5.3185,-5.3185,-5.3185,-5.3185,-5.3185,-5.3185,-5.3185,-5.3185,-5.3185,-5.3185,-5.3185,-5.3185,-5.3185,-5.3185,-5.3185,-5.3185,-5.3185,-5.3185,-5.3185,-5.3185,-5.3167,-5.3112,0.0,0.0,0.0,0.0,0.0,0.0,-5.205,-5.205,0.0,0.0,0.0,0.0,0.0,-4.9297,-5.093,-5.0967,-5.1334,-5.2068,-5.2068,-5.2454,-5.3185,-5.3185,-5.3185,-5.3185,-5.3185,-5.3185,-5.3185,-5.3185,-5.3185,-5.3185,-5.3185,-5.3185,-5.3185,-5.3185,-5.3185,-5.3185,-5.3185,-5.3185,-5.3185,0.0,0.0,-5.2821,-5.1591,-5.238,-5.3057,-5.2692,-5.2947,-5.3057,-5.2671,-5.2947,-5.3185,-5.3185,-5.3185,-5.3185,-5.3185,-5.2087,-5.1903,-5.3112,-5.205,-5.1922,-5.3148,-5.2032,-5.1371,-5.1371,-5.1371,-5.1977,-5.3185,-5.3185,-5.3185,-5.3185,-5.3185,-5.3185,-5.3185,-5.3185,-5.3185,-5.3185,-5.3185,-5.4124,-5.5614,-5.5614,-5.6547,-5.7997,-5.7997,-5.7997,-5.7997,-5.7997,-5.7997,-5.7997,-5.7997,-5.6932,-5.5614,-5.5614,-5.4491,-5.3185,-5.3185,-5.3185,-5.3185,-5.3185,-5.3185,-5.3185,-5.3185,-5.3185,-5.3185,-5.3185,-5.3185,-5.3185,-5.3185,-5.3185,-5.3185,-5.3185,-5.3185,-5.3185,-5.3185,-5.3185,-5.3004,-5.2362,-5.2105,0.0,0.0,-5.1463,-5.1775,-5.1977,-5.2564,-5.2656,0.0,0.0,0.0,0.0,-5.1426,-5.1591,-5.2601,-5.2616,-5.2729,-5.2913,-5.2931,-5.3023,-5.3185,-5.3185,-5.3185,-5.3185,-5.3185,-5.3185,-5.3185,-5.3185,-5.3185,-5.3185,-5.3185,-5.3185,-5.3185,-5.3185,-5.3185,-5.3185,-5.3185,-5.3185,-5.3185,-5.0729,-5.1995,-5.291,-5.205,-5.2637,-5.3185,-5.3185,-5.3185,-5.3185,-5.3185,-5.3185,-5.3185,-5.3185,-5.3185,-5.3185,-5.3185,-5.2417,-5.227,-5.313,-5.238,-5.2307,-5.3148,-5.2341,-5.1903,-5.1903,-5.1903,-5.2344,-5.3185,-5.3185,-5.3185,-5.3185,-5.3185,-5.3185,-5.3185,-5.3185,-5.3387,-5.3757,-5.3757,-5.4675,-5.6143,-5.6143,-5.6895,-5.7997,-5.7997,-5.7997,-5.7997,-5.7997,-5.7997,-5.7997,-5.7997,-5.7171,-5.6069,-5.5702,-5.4748,-5.3683,-5.3295,-5.3185,-5.3185,-5.3185,-5.3185,-5.3185,-5.3185,-5.3185,-5.3185,-5.3185,-5.3185,-5.3185,-5.3185,-5.3185,-5.3185,-5.3185,-5.3185,-5.3185,-5.3185,-5.2894,-5.2509,-5.205,-5.1665,0.0,-5.1353,-5.172,-5.2142,-5.2509,-5.2949,-5.3023,-5.2582,0.0,0.0,-5.2527,-5.2197,-5.2362,-5.3167,-5.3185,-5.3185,-5.3185,-5.3185,-5.3185,-5.3185,-5.3185,-5.3185,-5.3185,-5.3185,-5.3185,-5.3185,-5.3185,-5.3185,-5.3185,-5.3185,-5.3185,-5.3185,-5.3185,-5.3185,-5.3185,-5.3185,-5.3185,-5.3185,-5.3185,-5.3185,-5.3185,-5.3185,-5.3185,-5.3185,-5.3185,-5.3185,-5.3185,-5.3185,-5.3185,-5.3185,-5.3185,-5.3185,-5.3185,-5.3185,-5.3185,-5.3185,-5.3185,-5.3185,-5.3185,-5.3185,-5.3185,-5.3185,-5.3185,-5.3185,-5.3185,-5.3185,-5.3185,-5.3185,-5.3185,-5.3185,-5.3185,-5.3203,-5.3335,-5.3775,-5.4418,-5.4528,-5.5445,-5.6804,-5.6804,-5.7281,-5.7997,-5.7997,-5.7997,-5.7997,-5.7997,-5.7997,-5.7997,-5.7997,-5.7464,-5.6693,-5.5996,-5.5152,-5.4231,-5.3448,-5.3195,-5.3185,-5.3185,-5.3185,-5.3185,-5.3185,-5.3185,-5.3185,-5.3185,-5.3185,-5.3185,-5.3185,-5.3185,-5.3185,-5.3185,-5.3185,-5.3112,-5.2873,-5.2362,-5.1903,-5.1665,0.0,-5.1224,-5.1903,-5.2105,-5.2454,-5.3133,-5.3185,-5.3185,-5.3185,-5.2564,-5.2472,0.0,-5.2546,-5.2491,-5.3167,-5.3185,-5.3185,-5.3185,-5.3185,-5.3185,-5.3185,-5.3185,-5.3185,-5.3185,-5.3185,-5.3185,-5.3185,-5.3185,-5.3185,-5.3185,-5.3185,-5.3185,-5.3185,-5.3185,-5.3185,-5.3185,-5.3185,-5.3185,-5.3185,-5.3185,-5.3185,-5.3185,-5.3185,-5.3185,-5.3185,-5.3185,-5.3185,-5.3185,-5.3185,-5.3185,-5.3185,-5.3185,-5.3185,-5.3185,-5.3185,-5.3185,-5.3185,-5.3185,-5.3185,-5.3185,-5.3185,-5.3185,-5.3185,-5.3185,-5.3185,-5.3185,-5.3185,-5.3185,-5.3185,-5.3185,-5.3185,-5.3185,-5.3222,-5.3922,-5.4289,-5.4436,-5.5115,-5.5941,-5.6804,-5.6804,-5.7281,-5.7997,-5.7997,-5.7997,-5.7997,-5.7997,-5.7997,-5.7997,-5.7997,-5.7464,-5.6785,-5.6657,-5.5592,-5.4257,-5.3507,-5.3235,-5.3185,-5.3185,-5.3185,-5.3185,-5.3185,-5.3185,-5.3185,-5.3185,-5.3185,-5.3185,-5.3185,-5.3185,-5.3185,-5.3185,-5.3185,-5.2766,-5.1389,-5.1646,-5.1538,-5.0161,0.0,-5.1848,-5.1977,-5.2601,-5.3078,-5.3206,-5.3185,-5.3185,-5.3185,-5.3096,-5.3057,-5.3185,-5.3096,-5.3057,-5.3185,-5.3185,-5.3185,-5.3185,-5.3185,-5.3185,-5.3185,-5.3185,-5.3185,-5.3185,-5.3185,-5.3185,-5.3185,-5.3185,-5.3185,-5.3185,-5.3185,-5.3185,-5.3185,-5.3185,-5.3185,-5.3185,-5.3185,-5.3185,-5.3185,-5.3185,-5.3185,-5.3185,-5.3185,-5.3185,-5.3185,-5.3185,-5.3185,-5.3185,-5.3185,-5.3185,-5.3185,-5.3185,-5.3185,-5.3185,-5.3185,-5.3185,-5.3185,-5.3185,-5.3185,-5.3185,-5.3185,-5.3185,-5.3185,-5.3185,-5.3185,-5.3185,-5.3185,-5.3185,-5.3185,-5.3185,-5.3185,-5.3424,-5.3867,-5.4234,-5.4876,-5.5721,-5.6088,-5.6712,-5.7446,-5.7446,-5.7666,-5.7997,-5.7997,-5.7997,-5.7997,-5.7997,-5.7997,-5.7997,-5.7997,-5.7758,-5.7286,-5.6465,-5.5691,-5.4863,-5.3652,-5.2972,-5.2599,-5.2599,-5.2599,-5.2531,-5.2172,-5.2353,-5.2599,-5.2599,-5.2915,-5.3185,-5.3185,-5.3185,-5.3185,-5.3185,-5.3185,-5.2947,-5.2215,-5.2032,0.0,0.0,-5.1538,-5.1995,-5.1995,-5.2711,-5.3185,-5.3185,-5.3185,-5.3185,-5.3185,-5.3185,-5.3185,-5.3185,-5.3185,-5.3185,-5.3185,-5.3185,-5.3185,-5.3185,-5.3185,-5.3185,-5.3185,-5.3185,-5.3185,-5.3185,-5.3185,-5.3185,-5.3185,-5.3185,-5.3185,-5.3185,-5.3185,-5.3185,-5.3185,-5.3185,-5.3185,-5.3185,-5.3185,-5.3185,-5.3185,-5.3185,-5.3185,-5.3185,-5.3185,-5.3185,-5.3185,-5.3185,-5.3185,-5.3185,-5.3185,-5.3185,-5.3185,-5.3185,-5.3185,-5.3185,-5.3185,-5.3185,-5.3185,-5.3185,-5.3185,-5.3185,-5.3185,-5.3185,-5.3185,-5.3185,-5.3185,-5.3185,-5.3185,-5.3185,-5.3185,-5.3185,-5.3185,-5.3628,-5.4418,-5.4601,-5.5464,-5.6822,-5.7005,-5.7446,-5.7997,-5.7997,-5.7997,-5.7997,-5.7997,-5.7997,-5.7997,-5.7997,-5.7886,-5.775,-5.775,-5.7637,-5.7255,-5.6078,-5.5574,-5.5131,-5.3737,-5.2653,-5.1893,-5.1868,-5.188,-5.1741,-5.1215,-5.1494,-5.188,-5.188,-5.2307,-5.2702,-5.2702,-5.2702,-5.2702,-5.2702,-5.2702,-5.2593,-5.2211,0.0,0.0,0.0,-5.1765,-5.2068,-5.2252,-5.2821,-5.3185,-5.3185,-5.3185,-5.3185,-5.3185,-5.3185,-5.3185,-5.3185,-5.3185,-5.3185,-5.3185,-5.3185,-5.3185,-5.3185,-5.3185,-5.3185,-5.3185,-5.3185,-5.3185,-5.3185,-5.3185,-5.3185,-5.3185,-5.3185,-5.3185,-5.3185,-5.3185,-5.3185,-5.3185,-5.3185,-5.3185,-5.3185,-5.3185,-5.3185,-5.3185,-5.3185,-5.3185,-5.3185,-5.3185,-5.3185,-5.3185,-5.3185,-5.3185,-5.3185,-5.3185,-5.3185,-5.3185,-5.3185,-5.3185,-5.3185,-5.3185,-5.3185,-5.3185,-5.3185,-5.3185,-5.3185,-5.3185,-5.3185,-5.3185,-5.3185,-5.3185,-5.3185,-5.3185,-5.3185,-5.3185,-5.3185,-5.3185,-5.3628,-5.4436,-5.517,-5.5996,-5.6859,-5.7593,-5.7941,-5.7997,-5.7997,-5.7997,-5.7997,-5.7997,-5.7997,-5.7997,-5.7997,-5.7565,-5.6989,-5.6989,-5.6492,-5.5847,-5.5737,-5.5195,-5.4444,-5.3706,-5.2421,-5.1266,-5.1193,-5.1164,-5.1164,-5.1112,-5.1138,-5.1164,-5.1164,-5.1215,-5.1241,-5.1241,-5.1241,-5.1241,-5.1241,-5.1241,-5.0779,-4.9274,0.0,0.0,-4.9974,-5.1092,-5.227,-5.3023,-5.317,-5.3185,-5.3185,-5.3185,-5.3185,-5.3185,-5.3185,-5.3185,-5.3185,-5.3185,-5.3185,-5.3185,-5.3185,-5.3185,-5.3185,-5.3185,-5.3185,-5.3185,-5.3185,-5.3185,-5.3185,-5.3185,-5.3185,-5.3185,-5.3185,-5.3185,-5.3185,-5.3185,-5.3185,-5.3185,-5.3185,-5.3185,-5.3185,-5.3185,-5.3185,-5.3185,-5.3185,-5.3185,-5.3185,-5.3185,-5.3185,-5.3185,-5.3185,-5.3185,-5.3185,-5.3185,-5.3185,-5.3185,-5.3185,-5.3185,-5.3185,-5.3185,-5.3185,-5.3185,-5.3185,-5.3185,-5.3185,-5.3185,-5.3185,-5.3185,-5.3185,-5.3185,-5.3185,-5.3185,-5.3185,-5.3185,-5.3203,-5.372,-5.4363,-5.517,-5.5996,-5.6785,-5.7556,-5.7868,-5.7997,-5.7997,-5.7997,-5.7997,-5.7997,-5.7997,-5.7726,-5.7327,-5.7327,-5.6825,-5.6159,-5.6159,-5.5948,-5.5621,-5.5144,-5.482,-5.4308,-5.3109,-5.2343,-5.1791,-5.1279,-5.0818,-5.0324,-4.9879,-5.0118,-5.0435,-5.0435,-5.077,-5.1086,-5.1086,-5.1086,-5.1086,-5.1086,-5.1086,-5.0891,-5.0281,0.0,-5.0916,-5.0606,-5.1083,-5.1717,-5.2431,-5.2513,-5.2684,-5.3164,-5.3185,-5.3185,-5.3185,-5.3185,-5.3185,-5.3185,-5.3185,-5.3185,-5.3185,-5.3185,-5.3185,-5.3185,-5.3185,-5.3185,-5.3185,-5.3185,-5.3185,-5.3185,-5.3185,-5.3185,-5.3185,-5.3185,-5.3185,-5.3185,-5.3185,-5.3185,-5.3185,-5.3185,-5.3185,-5.3185,-5.3185,-5.3185,-5.3185,-5.3185,-5.3185,-5.3185,-5.3185,-5.3185,-5.3185,-5.3185,-5.3185,-5.3185,-5.3185,-5.3185,-5.3185,-5.3185,-5.3185,-5.3185,-5.3185,-5.3185,-5.3185,-5.3185,-5.3185,-5.3185,-5.3185,-5.3185,-5.3185,-5.3185,-5.3185,-5.3185,-5.3185,-5.3185,-5.3335,-5.3592,-5.4142,-5.495,-5.5996,-5.6547,-5.7262,-5.7997,-5.7997,-5.7997,-5.7997,-5.7997,-5.7997,-5.7973,-5.775,-5.7351,-5.6861,-5.6616,-5.6022,-5.535,-5.535,-5.5203,-5.4909,-5.4405,-5.4232,-5.4051,-5.2973,-5.2503,-5.2198,-5.1691,-5.0952,-5.0215,-4.9497,-4.95,-4.9693,-4.9693,-5.0061,-5.0435,-5.0435,-5.0435,-5.0435,-5.0435,-5.0435,-5.0435,-5.0435,-5.0626,-5.0743,-5.0743,-5.0955,-5.1266,-5.1716,-5.1783,-5.1994,-5.2486,-5.2725,-5.2853,-5.2853,-5.3082,-5.3185,-5.3185,-5.3185,-5.3185,-5.3185,-5.3185,-5.3185,-5.3185,-5.3185,-5.3185,-5.3185,-5.3185,-5.3185,-5.3185,-5.3185,-5.3185,-5.3185,-5.3185,-5.3185,-5.3185,-5.3185,-5.3185,-5.3185,-5.3185,-5.3185,-5.3185,-5.3185,-5.3185,-5.3185,-5.3185,-5.3185,-5.3185,-5.3185,-5.3185,-5.3185,-5.3185,-5.3185,-5.3185,-5.3185,-5.3185,-5.3185,-5.3185,-5.3185,-5.3185,-5.3185,-5.3185,-5.3185,-5.3185,-5.3185,-5.3185,-5.3185,-5.3185,-5.3185,-5.3185,-5.3185,-5.3185,-5.3185,-5.3185,-5.361,-5.4399,-5.4418,-5.5262,-5.6804,-5.6799,-5.7221,-5.7997,-5.7997,-5.7997,-5.7997,-5.7997,-5.7997,-5.7909,-5.7184,-5.6887,-5.6765,-5.5976,-5.5203,-5.4589,-5.4589,-5.4106,-5.3501,-5.3501,-5.3501,-5.3501,-5.3501,-5.2942,-5.2317,-5.2317,-5.1775,-5.1048,-5.0287,-4.9543,-4.9018,-4.9018,-4.9001,-4.9001,-4.9001,-4.9001,-4.9001,-4.9001,-4.9001,-4.9001,-4.9001,-4.9563,-5.0004,-5.0004,-5.0608,-5.1086,-5.1086,-5.1086,-5.1086,-5.1086,-5.1692,-5.2089,-5.2089,-5.2769,-5.3185,-5.3185,-5.3185,-5.3185,-5.3185,-5.3185,-5.3185,-5.3185,-5.3185,-5.3185,-5.3185,-5.3185,-5.3185,-5.3185,-5.3185,-5.3185,-5.3185,-5.3185,-5.3185,-5.3185,-5.3185,-5.3185,-5.3185,-5.3185,-5.3185,-5.3185,-5.3185,-5.3185,-5.3185,-5.3185,-5.3185,-5.3185,-5.3185,-5.3185,-5.3185,-5.3185,-5.3185,-5.3185,-5.3185,-5.3185,-5.3185,-5.3185,-5.3185,-5.3185,-5.3185,-5.3185,-5.3185,-5.3185,-5.3185,-5.3185,-5.3185,-5.3185,-5.3185,-5.3185,-5.3185,-5.3185,-5.3185,-5.3185,-5.361,-5.4418,-5.4968,-5.5794,-5.6799,-5.6849,-5.6992,-5.7234,-5.7234,-5.7234,-5.7234,-5.7234,-5.7234,-5.7141,-5.6367,-5.5741,-5.525,-5.5012,-5.4468,-5.3832,-5.3832,-5.3668,-5.3501,-5.3501,-5.3501,-5.3501,-5.3501,-5.3331,-5.3145,-5.3145,-5.257,-5.1792,-5.1065,-5.0321,-4.9763,-4.9763,-4.9373,-4.9001,-4.9001,-4.9001,-4.9001,-4.9001,-4.9001,-4.9001,-4.9001,-4.9152,-4.9316,-4.9316,-4.9509,-4.9809,-5.0269,-5.0324,-5.0527,-5.1034,-5.1292,-5.1393,-5.1393,-5.2042,-5.2662,-5.3164,-5.3185,-5.3185,-5.3185,-5.3185,-5.3185,-5.3185,-5.3185,-5.3185,-5.3185,-5.3185,-5.3185,-5.3185,-5.3185,-5.3185,-5.3164,-5.2662,-5.2725,-5.3164,-5.264,-5.2729,-5.3185,-5.3185,-5.3185,-5.3185,-5.3185,-5.3185,-5.3185,-5.3185,-5.3185,-5.3185,-5.3185,-5.3185,-5.3185,-5.3185,-5.3185,-5.3185,-5.3185,-5.3185,-5.3185,-5.3185,-5.3185,-5.3185,-5.3185,-5.3185,-5.3185,-5.3185,-5.3185,-5.3185,-5.3185,-5.3185,-5.3185,-5.3185,-5.3185,-5.3185,-5.3185,-5.3537,-5.4087,-5.4876,-5.5702,-5.6356,-5.6848,-5.6892,-5.6721,-5.6438,-5.6438,-5.6438,-5.6438,-5.6438,-5.6438,-5.634,-5.5552,-5.4982,-5.4558,-5.4264,-5.3881,-5.3501,-5.3501,-5.3501,-5.3501,-5.3501,-5.3501,-5.3501,-5.3501,-5.3501,-5.3501,-5.3501,-5.3145,-5.2672,-5.2232,-5.1319,-5.0541,-5.0541,-5.0202,-4.9881,-4.9881,-4.9881,-4.9881,-4.9881,-4.9881,-4.9881,-4.9881,-4.9881,-4.9881,-4.9881,-4.9881,-5.0034,-5.0425,-5.0468,-5.0646,-5.1106,-5.1399,-5.1684,-5.1953,-5.2345,-5.2765,-5.3224,-5.3248,-5.3248,-5.3248,-5.3213,-5.3072,-5.2819,-5.3058,-5.3185,-5.3185,-5.3185,-5.306,-5.2769,-5.2769,-5.2617,-5.2353,-5.2177,-5.2201,-5.2353,-5.2159,-5.2201,-5.2371,-5.2371,-5.2371,-5.2371,-5.2371,-5.2371,-5.2417,-5.3185,-5.3185,-5.3185,-5.3185,-5.3185,-5.3185,-5.3185,-5.3185,-5.3185,-5.3185,-5.3185,-5.3185,-5.3185,-5.3185,-5.3185,-5.3185,-5.3185,-5.3185,-5.3185,-5.3185,-5.3185,-5.3185,-5.3185,-5.3185,-5.3185,-5.3185,-5.3243,-5.3295,-5.4051,-5.484,-5.5702,-5.6387,-5.6775,-5.6887,-5.6765,-5.6286,-5.5592,-5.5592,-5.5592,-5.5592,-5.5592,-5.5592,-5.5506,-5.4787,-5.4513,-5.4388,-5.375,-5.3501,-5.3501,-5.3501,-5.3501,-5.3501,-5.3501,-5.3501,-5.3501,-5.3501,-5.3501,-5.3501,-5.3501,-5.3501,-5.3501,-5.3501,-5.2452,-5.1371,-5.1319,-5.1236,-5.1185,-5.1185,-5.1185,-5.1185,-5.1185,-5.1185,-5.1185,-5.1185,-5.1185,-5.1185,-5.1185,-5.1185,-5.1185,-5.1185,-5.1185,-5.1185,-5.1185,-5.1795,-5.2479,-5.3158,-5.3213,-5.3241,-5.3296,-5.3305,-5.3305,-5.3305,-5.3246,-5.2913,-5.2307,-5.2837,-5.3072,-5.2999,-5.3143,-5.2813,-5.2112,-5.2112,-5.1783,-5.1215,-5.1692,-5.1593,-5.1138,-5.1692,-5.1593,-5.1086,-5.1086,-5.1086,-5.1086,-5.1086,-5.1086,-5.1189,-5.3185,-5.3185,-5.3185,-5.3185,-5.3185,-5.3185,-5.3185,-5.3185,-5.3185,-5.3185,-5.3185,-5.3185,-5.3185,-5.3185,-5.3185,-5.3185,-5.3185,-5.3185,-5.3185,-5.3185,-5.3185,-5.3185,-5.3185,-5.3185,-5.3185,-5.3185,-5.3518,-5.4142,-5.4308,-5.5133,-5.6524,-5.6127,-5.628,-5.6861,-5.5627,-5.4999,-5.4848,-5.4848,-5.4848,-5.4848,-5.4848,-5.4848,-5.4757,-5.4027,-5.375,-5.3734,-5.3568,-5.3501,-5.3501,-5.3501,-5.3501,-5.3501,-5.3501,-5.3501,-5.3501,-5.3501,-5.3501,-5.3501,-5.3501,-5.3501,-5.3501,-5.3501,-5.3264,-5.2841,-5.2215,-5.1623,-5.1185,-5.1185,-5.1185,-5.1185,-5.1185,-5.1185,-5.1185,-5.1185,-5.1185,-5.1185,-5.1185,-5.1185,-5.1185,-5.1185,-5.1185,-5.1185,-5.1185,-5.1361,-5.1751,-5.245,-5.2509,-5.2752,-5.325,-5.3305,-5.3305,-5.3305,-5.3282,-5.322,-5.3058,-5.2633,-5.2136,-5.1562,-5.268,-5.2813,-5.2112,-5.2112,-5.2024,-5.1832,-5.0858,-5.0716,-5.106,-5.0635,-5.0716,-5.1086,-5.1086,-5.1086,-5.1086,-5.1086,-5.1086,-5.1112,-5.3185,-5.3185,-5.3185,-5.3185,-5.3185,-5.3185,-5.3185,-5.3185,-5.3185,-5.3185,-5.3185,-5.3185,-5.3185,-5.3185,-5.3185,-5.3185,-5.3185,-5.3185,-5.3185,-5.3185,-5.3042,-5.2684,-5.2684,-5.2684,-5.2684,-5.3048,-5.362,-5.4399,-5.4785,-5.5592,-5.6781,-5.6436,-5.6299,-5.6286,-5.5119,-5.4388,-5.4074,-5.4074,-5.4074,-5.4074,-5.4074,-5.4074,-5.4009,-5.3651,-5.3501,-5.3501,-5.3501,-5.3501,-5.3501,-5.3501,-5.3501,-5.3501,-5.3501,-5.3501,-5.3501,-5.3501,-5.3501,-5.3501,-5.3501,-5.3501,-5.3501,-5.3501,-5.3501,-5.3399,-5.2976,-5.257,-5.2317,-5.2317,-5.2317,-5.2317,-5.2317,-5.2317,-5.2317,-5.2317,-5.2317,-5.2317,-5.2317,-5.2317,-5.2317,-5.2317,-5.2317,-5.2317,-5.2317,-5.2317,-5.2447,-5.2846,-5.2877,-5.3049,-5.3368,-5.3398,-5.3398,-5.3398,-5.3357,-5.3177,-5.2839,-5.2751,-5.2007,-5.0627,-5.169,-5.1825,-5.1094,-5.1094,-5.0911,-5.0608,-5.0185,-5.0033,-5.009,-5.0033,-5.0033,-5.0107,-5.0107,-5.0107,-5.0107,-5.0107,-5.0297,-5.0527,-5.3185,-5.3185,-5.3185,-5.3185,-5.3185,-5.3185,-5.3185,-5.3185,-5.3185,-5.3185,-5.3185,-5.3185,-5.3185,-5.3185,-5.3185,-5.3185,-5.3082,-5.302,-5.302,-5.2893,-5.2572,-5.1952,-5.1928,-5.1928,-5.1928,-5.2726,-5.3608,-5.4601,-5.5409,-5.6153,-5.6822,-5.6733,-5.6259,-5.5495,-5.4726,-5.4074,-5.3501,-5.3501,-5.3501,-5.3501,-5.3501,-5.3501,-5.3501,-5.3501,-5.3501,-5.3501,-5.3501,-5.3501,-5.3501,-5.3501,-5.3501,-5.3501,-5.3501,-5.3501,-5.3501,-5.3501,-5.3501,-5.3501,-5.3501,-5.3501,-5.3501,-5.3501,-5.3501,-5.3501,-5.3501,-5.3501,-5.3501,-5.3501,-5.3501,-5.3501,-5.3501,-5.3501,-5.3501,-5.3501,-5.3501,-5.3501,-5.3501,-5.3501,-5.3501,-5.3501,-5.3501,-5.3501,-5.3501,-5.3501,-5.3501,-5.3501,-5.3501,-5.3501,-5.3501,-5.3501,-5.3501,-5.3501,-5.346,-5.3132,-5.2503,-5.2934,-5.2171,-5.0302,-5.073,-5.0612,-5.0004,-5.0004,-4.9693,-4.9212,-4.9652,-4.9521,-4.9032,-4.9593,-4.9492,-4.9001,-4.9001,-4.9001,-4.9001,-4.9001,-4.9359,-4.9751,-5.3185,-5.3185,-5.3185,-5.3185,-5.3185,-5.3185,-5.3185,-5.3185,-5.3185,-5.3185,-5.3185,-5.3185,-5.3185,-5.3185,-5.3185,-5.3185,-5.2617,-5.2247,-5.2247,-5.171,-5.1343,-5.1241,-5.1241,-5.1241,-5.1241,-5.197,-5.3358,-5.5427,-5.6235,-5.6729,-5.6852,-5.6187,-5.5466,-5.4713,-5.3962,-5.3584,-5.3501,-5.3501,-5.3501,-5.3501,-5.3501,-5.3501,-5.3501,-5.3501,-5.3501,-5.3501,-5.3501,-5.3501,-5.3501,-5.3501,-5.3501,-5.3501,-5.3501,-5.3501,-5.3501,-5.3501,-5.3501,-5.3501,-5.3501,-5.3501,-5.3501,-5.3501,-5.3501,-5.3501,-5.3501,-5.3501,-5.3501,-5.3501,-5.3501,-5.3501,-5.3501,-5.3501,-5.3501,-5.3501,-5.3501,-5.3501,-5.3501,-5.3501,-5.3501,-5.3501,-5.3501,-5.3501,-5.3501,-5.3501,-5.3501,-5.3501,-5.3501,-5.3501,-5.3501,-5.3501,-5.3501,-5.3501,-5.3483,-5.3432,-5.3348,-5.275,-5.1985,-5.1048,-5.049,-5.0168,-5.0004,-5.0004,-4.9947,-4.985,-4.9346,-4.9077,-4.9001,-4.9107,-4.9077,-4.9001,-4.9001,-4.9001,-4.9001,-4.9001,-4.9063,-4.9138,-5.3185,-5.3185,-5.3185,-5.3185,-5.3185,-5.3185,-5.3185,-5.3185,-5.3185,-5.3185,-5.2831,-5.2576,-5.2576,-5.2242,-5.203,-5.203,-5.1734,-5.1544,-5.1544,-5.1266,-5.0929,-5.05,-5.0472,-5.0472,-5.0472,-5.1689,-5.2987,-5.4377,-5.5137,-5.5755,-5.6214,-5.5437,-5.4891,-5.4558,-5.3832,-5.3501,-5.3501,-5.3501,-5.3501,-5.3501,-5.3501,-5.3501,-5.3501,-5.3501,-5.3501,-5.3501,-5.3501,-5.3501,-5.3501,-5.3501,-5.3501,-5.3501,-5.3501,-5.3501,-5.3501,-5.3501,-5.3501,-5.3501,-5.3501,-5.3501,-5.3501,-5.3501,-5.3501,-5.3501,-5.3501,-5.3501,-5.3501,-5.3501,-5.3501,-5.3501,-5.3501,-5.3501,-5.3501,-5.3501,-5.3501,-5.3501,-5.3501,-5.3501,-5.3501,-5.3501,-5.3501,-5.3501,-5.3501,-5.3501,-5.3501,-5.3501,-5.3501,-5.3501,-5.3501,-5.3501,-5.3501,-5.3501,-5.3501,-5.3501,-5.3501,-5.3145,-5.2384,-5.1185,-5.0879,-5.0272,-4.9432,-4.9432,-4.9432,-4.9402,-4.9138,-4.9001,-4.9001,-4.9001,-4.9001,-4.9001,-4.9001,-4.9001,-4.9001,-4.9001,-4.9001,-4.9001]},{"header":{"parameterUnit":"m.s-1","parameterCategory":1,"la1":30.6,"la2":28.766,"lo1":-90.7593,"lo2":-88.6598,"dy":0.0162,"dx":0.0183,"nx":116,"ny":114,"refTime":"2023-04-30T00:00:00:Z","depth":0,"parameterNumber":3,"parameterNumberName":"V-component_of_WINDS"},"data":[0.0,0.0,0.0,0.0,0.0,0.0,0.0,0.0,0.0,0.0,0.0,0.0,0.0,0.0,0.0,0.0,0.0,0.0,0.0,0.0,0.0,0.0,0.0,0.0,0.0,0.0,0.0,0.0,0.0,0.0,0.0,0.0,0.0,0.0,0.0,0.0,0.0,0.0,0.0,0.0,0.0,0.0,0.0,0.0,0.0,0.0,0.0,0.0,0.0,0.0,0.0,0.0,0.0,0.0,0.0,0.0,0.0,0.0,0.0,0.0,0.0,0.0,0.0,0.0,0.0,0.0,0.0,0.0,0.0,0.0,0.0,0.0,0.0,0.0,0.0,0.0,0.0,0.0,0.0,0.0,0.0,0.0,0.0,0.0,0.0,0.0,0.0,0.0,0.0,0.0,0.0,0.0,0.0,0.0,0.0,0.0,0.0,0.0,0.0,0.0,0.0,0.0,0.0,0.0,0.0,0.0,0.0,0.0,0.0,0.0,0.0,0.0,0.0,0.0,0.0,0.0,0.0,0.0,0.0,0.0,0.0,0.0,0.0,0.0,0.0,0.0,0.0,0.0,0.0,0.0,0.0,0.0,0.0,0.0,0.0,0.0,0.0,0.0,0.0,0.0,0.0,0.0,0.0,0.0,0.0,0.0,0.0,0.0,0.0,0.0,0.0,0.0,0.0,0.0,0.0,0.0,0.0,0.0,0.0,0.0,0.0,0.0,0.0,0.0,0.0,0.0,0.0,0.0,0.0,0.0,0.0,0.0,0.0,0.0,0.0,0.0,0.0,0.0,0.0,0.0,0.0,0.0,0.0,0.0,0.0,0.0,0.0,0.0,0.0,0.0,0.0,0.0,0.0,0.0,0.0,0.0,0.0,0.0,0.0,0.0,0.0,0.0,0.0,0.0,0.0,0.0,0.0,0.0,0.0,0.0,0.0,0.0,0.0,0.0,0.0,0.0,0.0,0.0,0.0,0.0,0.0,0.0,0.0,0.0,0.0,0.0,0.0,0.0,0.0,0.0,0.0,0.0,0.0,0.0,0.0,0.0,0.0,0.0,0.0,0.0,0.0,0.0,0.0,0.0,0.0,0.0,0.0,0.0,0.0,0.0,0.0,0.0,0.0,0.0,0.0,0.0,0.0,0.0,0.0,0.0,0.0,0.0,0.0,0.0,0.0,0.0,0.0,0.0,0.0,0.0,0.0,0.0,0.0,0.0,0.0,0.0,0.0,0.0,0.0,0.0,0.0,0.0,0.0,0.0,0.0,0.0,0.0,0.0,0.0,0.0,0.0,0.0,0.0,0.0,0.0,0.0,0.0,0.0,0.0,0.0,0.0,0.0,0.0,0.0,0.0,0.0,0.0,0.0,0.0,0.0,0.0,0.0,0.0,0.0,0.0,0.0,0.0,0.0,0.0,0.0,0.0,0.0,0.0,0.0,0.0,0.0,0.0,0.0,0.0,0.0,0.0,0.0,0.0,0.0,0.0,0.0,0.0,0.0,0.0,0.0,0.0,0.0,0.0,0.0,0.0,0.0,0.0,0.0,0.0,0.0,0.0,0.0,0.0,0.0,0.0,0.0,0.0,0.0,0.0,0.0,0.0,0.0,0.0,0.0,0.0,0.0,0.0,0.0,0.0,0.0,0.0,0.0,0.0,0.0,0.0,0.0,0.0,0.0,0.0,0.0,0.0,0.0,0.0,0.0,0.0,0.0,0.0,0.0,0.0,0.0,0.0,0.0,0.0,0.0,0.0,0.0,0.0,0.0,0.0,0.0,0.0,0.0,0.0,0.0,0.0,0.0,0.0,0.0,0.0,0.0,0.0,0.0,0.0,0.0,0.0,0.0,0.0,0.0,0.0,0.0,0.0,0.0,0.0,0.0,0.0,0.0,0.0,0.0,0.0,0.0,0.0,0.0,0.0,0.0,0.0,0.0,0.0,0.0,0.0,0.0,0.0,0.0,0.0,0.0,0.0,0.0,0.0,0.0,0.0,0.0,0.0,0.0,0.0,0.0,0.0,0.0,0.0,0.0,0.0,0.0,0.0,0.0,0.0,0.0,0.0,0.0,0.0,0.0,0.0,0.0,0.0,0.0,0.0,0.0,0.0,0.0,0.0,0.0,0.0,0.0,0.0,0.0,0.0,0.0,0.0,0.0,0.0,0.0,0.0,0.0,0.0,0.0,0.0,0.0,0.0,0.0,0.0,0.0,0.0,0.0,0.0,0.0,0.0,0.0,0.0,0.0,0.0,0.0,0.0,0.0,0.0,0.0,0.0,0.0,0.0,0.0,0.0,0.0,0.0,0.0,0.0,0.0,0.0,0.0,0.0,0.0,0.0,0.0,0.0,0.0,0.0,0.0,0.0,0.0,0.0,0.0,0.0,0.0,0.0,0.0,0.0,0.0,0.0,0.0,0.0,0.0,0.0,0.0,0.0,0.0,0.0,0.0,0.0,0.0,0.0,0.0,0.0,0.0,0.0,0.0,0.0,0.0,0.0,0.0,0.0,0.0,0.0,0.0,0.0,0.0,0.0,0.0,0.0,0.0,0.0,0.0,0.0,0.0,0.0,0.0,0.0,0.0,0.0,0.0,0.0,0.0,0.0,0.0,0.0,0.0,0.0,0.0,0.0,0.0,0.0,0.0,0.0,0.0,0.0,0.0,0.0,0.0,0.0,0.0,0.0,0.0,0.0,0.0,0.0,0.0,0.0,0.0,0.0,0.0,0.0,0.0,0.0,0.0,0.0,0.0,0.0,0.0,0.0,0.0,0.0,0.0,0.0,0.0,0.0,0.0,0.0,0.0,0.0,0.0,0.0,0.0,0.0,0.0,0.0,0.0,0.0,0.0,0.0,0.0,0.0,0.0,0.0,0.0,0.0,0.0,0.0,0.0,0.0,0.0,0.0,0.0,0.0,0.0,0.0,0.0,0.0,0.0,0.0,0.0,0.0,0.0,0.0,0.0,0.0,0.0,0.0,0.0,0.0,0.0,0.0,0.0,0.0,0.0,0.0,0.0,0.0,0.0,0.0,0.0,0.0,0.0,0.0,0.0,0.0,0.0,0.0,0.0,0.0,0.0,0.0,0.0,0.0,0.0,0.0,0.0,0.0,0.0,0.0,0.0,0.0,0.0,0.0,0.0,0.0,0.0,0.0,0.0,0.0,0.0,0.0,0.0,0.0,0.0,0.0,0.0,0.0,0.0,0.0,0.0,0.0,0.0,0.0,0.0,0.0,0.0,0.0,0.0,0.0,0.0,0.0,0.0,0.0,0.0,0.0,0.0,0.0,0.0,0.0,0.0,0.0,0.0,0.0,0.0,0.0,0.0,0.0,0.0,0.0,0.0,0.0,0.0,0.0,0.0,0.0,0.0,0.0,0.0,0.0,0.0,0.0,0.0,0.0,0.0,0.0,0.0,0.0,0.0,0.0,0.0,0.0,0.0,0.0,0.0,0.0,0.0,0.0,0.0,0.0,0.0,0.0,0.0,0.0,0.0,0.0,0.0,0.0,0.0,0.0,0.0,0.0,0.0,0.0,0.0,0.0,0.0,0.0,0.0,0.0,0.0,0.0,0.0,0.0,0.0,0.0,0.0,0.0,0.0,0.0,0.0,0.0,0.0,0.0,0.0,0.0,0.0,0.0,0.0,0.0,0.0,0.0,0.0,0.0,0.0,0.0,0.0,0.0,0.0,0.0,0.0,0.0,0.0,0.0,0.0,0.0,0.0,0.0,0.0,0.0,0.0,0.0,0.0,0.0,0.0,0.0,0.0,0.0,0.0,0.0,0.0,0.0,0.0,0.0,0.0,0.0,0.0,0.0,0.0,0.0,0.0,0.0,0.0,0.0,0.0,0.0,0.0,0.0,0.0,0.0,0.0,0.0,0.0,0.0,0.0,0.0,0.0,0.0,0.0,0.0,0.0,0.0,0.0,0.0,0.0,0.0,0.0,0.0,0.0,0.0,0.0,0.0,0.0,0.0,0.0,0.0,0.0,0.0,0.0,0.0,0.0,0.0,0.0,0.0,0.0,0.0,0.0,0.0,0.0,0.0,0.0,0.0,0.0,0.0,0.0,0.0,0.0,0.0,0.0,0.0,0.0,0.0,0.0,0.0,0.0,0.0,0.0,0.0,0.0,0.0,0.0,0.0,0.0,0.0,0.0,0.0,0.0,0.0,0.0,0.0,0.0,0.0,0.0,0.0,0.0,0.0,0.0,0.0,0.0,0.0,0.0,0.0,0.0,0.0,0.0,0.0,0.0,0.0,0.0,0.0,0.0,0.0,0.0,0.0,0.0,0.0,0.0,0.0,0.0,0.0,0.0,0.0,0.0,0.0,0.0,0.0,0.0,0.0,0.0,0.0,0.0,0.0,0.0,0.0,0.0,0.0,0.0,0.0,0.0,0.0,0.0,0.0,0.0,0.0,0.0,0.0,0.0,0.0,0.0,0.0,0.0,0.0,0.0,0.0,0.0,0.0,0.0,0.0,0.0,0.0,0.0,0.0,0.0,0.0,0.0,0.0,0.0,0.0,0.0,0.0,0.0,0.0,0.0,0.0,0.0,0.0,0.0,0.0,0.0,0.0,0.0,0.0,0.0,0.0,0.0,0.0,0.0,0.0,0.0,0.0,0.0,0.0,0.0,0.0,0.0,0.0,0.0,0.0,0.0,0.0,0.0,0.0,0.0,0.0,0.0,0.0,0.0,0.0,0.0,0.0,0.0,0.0,0.0,0.0,0.0,0.0,0.0,0.0,0.0,0.0,0.0,0.0,0.0,0.0,0.0,0.0,0.0,0.0,0.0,0.0,0.0,0.0,0.0,0.0,0.0,0.0,0.0,0.0,0.0,0.0,0.0,0.0,0.0,0.0,0.0,0.0,0.0,0.0,0.0,0.0,0.0,0.0,0.0,0.0,0.0,0.0,0.0,0.0,0.0,0.0,0.0,0.0,0.0,0.0,0.0,0.0,0.0,0.0,0.0,0.0,0.0,0.0,0.0,0.0,0.0,0.0,0.0,0.0,0.0,0.0,0.0,0.0,0.0,0.0,0.0,0.0,0.0,0.0,0.0,0.0,0.0,0.0,0.0,0.0,0.0,0.0,0.0,0.0,0.0,0.0,0.0,0.0,0.0,0.0,0.0,0.0,0.0,0.0,0.0,0.0,0.0,0.0,0.0,0.0,0.0,0.0,0.0,0.0,0.0,0.0,0.0,0.0,0.0,0.0,0.0,0.0,0.0,0.0,0.0,0.0,0.0,0.0,0.0,0.0,0.0,0.0,0.0,0.0,0.0,0.0,0.0,0.0,0.0,0.0,0.0,0.0,0.0,0.0,0.0,0.0,0.0,0.0,0.0,0.0,0.0,0.0,0.0,0.0,0.0,0.0,0.0,0.0,0.0,0.0,0.0,0.0,0.0,0.0,0.0,0.0,0.0,0.0,0.0,0.0,0.0,0.0,0.0,0.0,0.0,0.0,0.0,0.0,0.0,0.0,0.0,0.0,0.0,0.0,0.0,0.0,0.0,0.0,0.0,0.0,0.0,0.0,0.0,0.0,0.0,0.0,0.0,0.0,0.0,0.0,0.0,0.0,0.0,0.0,0.0,0.0,0.0,0.0,0.0,0.0,0.0,0.0,0.0,0.0,0.0,0.0,0.0,0.0,0.0,0.0,0.0,0.0,0.0,0.0,0.0,0.0,0.0,0.0,0.0,0.0,0.0,0.0,0.0,0.0,0.0,0.0,0.0,0.0,0.0,0.0,0.0,0.0,0.0,0.0,0.0,0.0,0.0,0.0,0.0,0.0,0.0,0.0,0.0,0.0,0.0,0.0,0.0,0.0,0.0,0.0,0.0,0.0,0.0,0.0,0.0,0.0,0.0,0.0,0.0,0.0,0.0,0.0,0.0,0.0,0.0,0.0,0.0,0.0,0.0,0.0,0.0,0.0,0.0,0.0,0.0,0.0,0.0,0.0,0.0,0.0,0.0,0.0,0.0,0.0,0.0,0.0,0.0,0.0,0.0,0.0,0.0,0.0,0.0,0.0,0.0,0.0,0.0,0.0,0.0,0.0,0.0,0.0,0.0,0.0,0.0,0.0,0.0,0.0,0.0,0.0,0.0,0.0,0.0,0.9158,0.0,0.0,0.0,0.0,0.0,0.0,0.0,0.0,0.0,0.0,0.0,0.0,0.0,0.0,0.0,0.0,0.0,0.0,0.0,0.0,0.0,0.0,0.0,0.0,0.0,0.0,0.0,0.0,0.0,0.0,0.0,0.0,0.0,0.0,0.0,0.0,0.0,0.0,0.0,0.0,0.0,0.0,0.0,0.0,0.0,0.0,0.0,0.0,0.0,0.0,0.0,0.0,0.0,0.0,0.0,0.0,0.0,0.0,0.0,0.0,0.0,0.0,0.0,0.0,0.0,0.0,0.0,0.0,0.0,0.0,0.0,0.0,0.0,0.0,0.0,0.0,0.0,0.0,0.0,0.0,0.0,0.0,0.0,0.0,0.0,0.0,0.0,0.0,0.0,0.0,0.0,0.0,0.0,0.0,0.0,0.0,0.0,0.0,0.0,0.0,0.0,0.0,0.0,0.0,0.0,0.0,0.0,0.0,0.0,0.0,0.0,0.0,0.0,0.0,0.0,0.0,1.0263,0.0,0.0,0.0,0.0,0.0,0.0,0.0,0.0,0.0,0.0,0.0,0.0,0.0,0.0,0.0,0.0,0.0,0.0,0.0,0.0,0.0,0.0,0.0,0.0,0.0,0.0,0.0,0.0,0.0,0.0,0.0,0.0,0.0,0.0,0.0,0.0,0.0,0.0,0.0,0.0,0.0,0.0,0.0,0.0,0.0,0.0,0.0,0.0,0.0,0.0,0.0,0.0,0.0,0.0,0.0,0.0,0.0,0.0,0.0,0.0,0.0,0.0,0.0,0.0,0.0,0.0,0.0,0.0,0.0,0.0,0.0,0.0,0.0,0.0,0.0,0.0,0.0,0.0,0.0,0.0,0.0,0.0,0.0,0.0,0.0,0.0,0.0,0.0,0.0,0.0,0.0,0.0,0.0,0.0,0.0,0.0,0.0,0.0,0.0,0.0,0.0,0.0,0.0,0.0,0.0,0.0,0.0,0.0,1.0215,1.0232,1.0351,1.0289,1.0239,1.0361,1.0453,1.049,1.048,1.0337,0.0,0.0,0.0,0.0,0.0,0.0,0.0,0.0,0.0,0.0,0.0,0.0,0.0,0.0,0.0,0.0,0.0,0.0,0.0,0.0,0.0,0.0,0.0,0.0,0.0,0.0,0.0,0.0,0.0,0.0,0.0,0.0,0.0,0.0,0.0,0.0,0.0,0.0,0.0,0.0,0.0,0.0,0.0,0.0,0.0,0.0,0.0,0.0,0.0,0.0,0.0,0.0,0.0,0.0,0.0,0.0,0.0,0.0,0.0,0.0,0.0,0.0,0.0,0.0,0.0,0.0,0.0,0.0,0.0,0.0,0.0,0.0,0.0,0.0,0.0,0.0,0.0,0.0,0.0,0.0,0.0,0.0,0.0,0.0,0.0,0.0,1.4335,1.4635,0.0,0.0,0.0,0.0,0.0,0.0,0.0,0.0,0.0,0.0,0.0,0.0,0.0,1.0229,1.0249,1.0392,1.0463,1.0466,1.0578,1.0643,1.0663,1.0639,1.0643,1.0656,1.0541,0.0,1.048,1.0337,0.0,0.0,0.0,0.0,0.0,0.0,0.0,0.0,0.0,0.0,0.0,0.0,0.0,0.0,0.0,0.0,0.0,0.0,0.0,0.0,0.0,0.0,0.0,0.0,0.0,0.0,0.0,0.0,0.0,0.0,0.0,0.0,0.0,0.0,0.0,0.0,0.0619,0.0,0.0,0.0,0.0,0.0,0.0,0.0,0.0,0.0,0.0,0.0,0.0,0.0,0.0,0.0,0.0,0.0,0.0,0.0,0.0,0.0,0.0,0.0,0.0,0.0,0.0,0.0,0.0,0.0,0.0,0.0,0.0,0.0,0.0,0.0,0.0,0.0,0.0,0.0,0.0,0.0,0.0,0.0,0.0,0.0,0.0,0.0,0.0,1.596,1.5761,1.6094,1.528,1.4681,0.0,0.0,0.0,0.0,0.0,0.0,0.0,0.0,0.0,1.028,1.0358,1.0399,1.0399,1.0548,1.0619,1.0622,1.0687,1.0721,1.0721,1.0721,1.0721,1.0717,1.0649,1.0619,1.0609,1.046,1.0351,1.0253,0.0,0.0,0.0,0.0,0.9517,0.9629,0.0,0.0,0.0,0.0,0.0,0.0,0.0,0.0,0.0,0.0,0.0,0.0,0.0,0.0,0.0,-0.2028,0.0,0.0,0.0,0.0,0.0,0.0,0.0,0.0,0.0,0.0,0.0,0.1466,0.0469,0.0,0.0,0.0,0.0,0.0,0.0,0.0,0.0,0.0,0.0,0.0,0.0,0.0,0.0,0.0,0.0,0.0,0.0,0.0,0.0,0.0,0.0,0.0,0.0,0.0,0.0,0.0,0.0,0.0,0.0,0.0,0.0,0.0,0.0,0.0,0.0,0.0,0.0,0.0,0.0,0.0,0.0,0.0,0.0,0.0,0.0,0.0,0.0,1.7717,1.7304,1.7606,1.6549,1.5812,0.0,0.0,0.0,0.0,0.0,0.0,1.2213,1.1881,1.1487,1.1087,1.1131,1.1001,1.0551,1.0663,1.0721,1.0721,1.1178,1.1111,1.0721,1.1178,1.1111,1.0721,1.0721,1.0721,1.0711,1.0599,1.0487,1.0385,1.031,1.0141,0.9927,0.9849,0.9869,0.9941,0.0,0.0,0.0,0.0,0.0,0.0,0.0,0.0,0.0,0.0,0.0,0.0,0.0,0.0,-0.3859,-0.2308,-0.2211,-0.1586,0.0,0.0,0.0,0.0,0.0,0.0,0.0,0.0,0.0,0.0115,0.006,0.0,0.0,0.0,0.0,0.0,0.0,0.0,0.0,0.0,0.0,0.0,0.0,0.0,0.0,0.0,0.0,0.0,0.0,0.0,0.0,0.0,0.0,0.0,0.0,0.0,0.0,0.0,0.0,0.0,0.0,0.0,0.0,0.0,0.0,0.0,0.0,0.0,0.0,0.0,0.0,0.0,0.0,0.0,0.0,0.0,0.0,0.0,0.0,0.0,0.0,1.9183,1.943,0.0,0.0,0.0,0.0,1.905,1.7892,1.717,1.7228,1.6081,1.4702,1.3225,1.3177,1.2335,1.0707,1.0717,1.0721,1.0717,1.2347,1.2281,1.0784,1.2413,1.2285,1.0721,1.0721,1.0721,1.0721,1.0711,1.0704,1.067,1.0388,1.0273,1.0222,0.9927,1.0005,1.0256,0.0,0.0,0.0,0.0,0.0,0.0,0.0,0.0,0.0,0.0,0.0,0.0,0.0,-0.7024,-0.6083,-0.3592,-0.3564,-0.2658,-0.0154,0.0,0.0,0.0,0.0,0.0,0.0,0.0,0.0447,0.0,0.0,0.0,0.0,0.0,0.0,0.0,0.0,0.0,0.0,0.0,0.0,0.0,0.0,0.0,0.0,0.0,0.0,0.0,0.0,0.0,0.0,0.0,0.0,0.0,0.0,0.0,0.0,0.0,0.0,0.0,0.0,0.0,0.0,0.0,0.0,0.0,0.0,0.0,0.0,0.0,0.0,0.0,0.0,0.0,0.0,0.0,0.0,0.0,0.0,0.0,0.0,1.9038,1.9172,0.0,1.9506,1.9519,1.9207,1.8311,1.8014,1.7457,1.6557,1.6072,1.5574,1.5005,1.4944,1.4684,1.4036,1.4036,1.3451,1.2413,1.4166,1.4036,1.2413,1.4166,1.4619,1.4036,1.4036,1.4036,1.4036,1.4036,1.2738,1.0711,1.0605,1.0565,1.0548,1.0439,1.047,1.0565,0.0,0.0,0.0,0.0,0.0,0.0,0.0,0.0,0.0,0.0,0.0,-0.7787,-0.7889,-0.834,-0.7446,-0.4426,-0.4357,-0.3237,-0.021,0.0,0.0,0.0,0.0,0.0,0.0,0.0,0.0,0.0,0.0,0.0,0.0,0.0,0.0,0.0,0.0,0.0,0.0,0.0,0.0,0.0,0.0,0.0,0.0,0.0,0.0,0.0,0.0,0.0,0.0,0.0,0.0,0.0,0.0,0.0,0.0,0.0,0.0,0.0,0.0,0.0,0.0,0.0,0.0,0.0,0.0,0.0,0.0,0.0,0.0,0.0,0.0,0.0,0.0,0.0,0.0,0.0,0.0,1.839,1.8704,1.8905,1.9011,1.9192,1.9486,1.9512,1.9226,1.8514,1.8803,1.8521,1.7596,1.7622,1.7404,1.6824,1.6754,1.6496,1.5913,1.5913,1.5334,1.4232,1.5913,1.5848,1.4232,1.5978,1.6347,1.5637,1.5783,1.5763,1.5637,1.5788,1.4553,1.2479,1.2479,1.2479,1.2347,1.1762,1.1567,1.1501,0.0,0.0,0.0,0.0,0.0,0.0,0.0,0.0,0.0,0.0,-0.7851,-0.815,-0.8435,-0.8696,-0.7651,-0.4751,-0.447,-0.3153,-0.0203,0.0,0.0,0.0,0.0,0.0,0.0,0.0,0.0,0.0,0.0,0.0,0.0,0.0,0.0,0.0,0.0,0.0,0.0,0.0,0.0,0.0,0.0,0.0,0.0,0.0,0.0,0.0,0.0,0.0,0.0,0.0,0.0,0.0,0.0,0.0,0.0,0.0,0.0,0.0,0.0,0.0,0.0,0.0,0.0,0.0,0.0,0.0,0.0,0.0,0.0,0.0,0.0,0.0,0.0,0.0,0.0,0.0,1.8015,1.8508,1.8931,1.8951,1.9205,1.9492,1.9786,1.9813,1.9933,2.0227,2.0514,2.0681,2.0688,2.0942,2.0303,1.8611,1.8547,1.7772,1.6022,1.6038,1.6043,1.5978,1.7731,1.7661,1.6043,1.7795,1.734,1.5239,1.5795,1.5734,1.5244,1.58,1.6048,1.6043,1.5913,1.5913,1.5724,1.397,1.3386,1.3124,0.0,0.0,0.0,0.0,0.0,0.0,0.0,0.0,0.0,0.0,-0.7668,-0.8022,-0.8103,-0.7654,-0.6533,-0.4639,-0.3463,-0.2032,-0.0105,0.0,0.0,0.0,0.0,0.0,0.0,0.0,0.0,0.0,0.0,0.0,0.0,0.0,0.0,0.0,0.0,0.0,0.0,0.0,0.0,0.0,0.0,0.0,0.0,0.0,0.0,0.0,0.0,0.0,0.0,0.0,0.0,0.0,0.0,0.0,0.0,0.0,0.0,0.0,0.0,0.0,0.0,0.0,0.0,0.0,0.0,0.0,0.0,0.0,0.0,0.0,0.0,0.0,0.0,0.0,1.8016,1.8628,1.8628,1.8824,1.9078,1.9506,1.9633,1.98,2.0087,2.0114,2.0234,2.0535,2.0628,2.0768,2.0982,2.0661,2.0222,1.9779,1.9717,1.9526,1.9019,1.9474,1.903,1.7795,1.9546,1.9483,1.7859,1.961,2.0049,1.9462,1.9611,1.9593,1.9462,1.9611,1.9674,1.9413,1.6888,1.5913,1.5854,1.5329,1.5204,1.5007,0.0,0.0,0.0,0.0,0.0,0.0,0.0,0.0,0.0,0.0,-0.7698,-0.8035,-0.8211,-0.7839,-0.6758,-0.4693,-0.3688,-0.2247,-0.0157,0.0,0.0,0.0,0.0,0.0,0.0,0.0,0.0,0.0,0.0,0.0,0.0,0.0,0.0,0.0,0.0,0.0,0.0,0.0,0.0,0.0,0.0,0.0,0.0,0.0,0.0,0.0109,0.0816,0.1477,0.2199,0.3713,0.0,0.0,0.0,0.0,0.0,0.0,0.0,0.0,0.0,0.0,0.0,0.0,0.0,0.0,0.0,0.0,0.0,0.0,0.0,0.0,0.0,0.0,0.0,0.0,1.831,1.9011,1.9259,1.9292,1.9419,1.976,1.9907,2.0094,2.0388,2.0421,2.0541,2.0835,2.0855,2.0935,2.1102,2.0782,2.0488,2.0241,2.0468,2.0481,2.0173,2.0815,2.0589,1.961,2.0589,2.0589,1.961,2.0652,2.0975,0.0,2.1002,2.0969,2.0762,2.1009,2.1109,0.0,0.0,0.0,0.0,0.0,1.6496,1.5863,0.0,0.0,0.0,0.0,0.0,0.0,0.0,0.0,0.0,0.0,0.0,-0.8153,-0.8448,-0.8591,-0.7537,-0.4751,-0.4344,-0.303,0.0,0.0,0.0,0.0,0.0,0.0,0.0,0.0,0.0,0.0,0.0,0.0,0.0,0.0,0.0,0.0,0.0,0.0,0.0,0.0,0.0,0.0,0.0,0.0,0.0,0.0,0.0,0.0,0.0,0.0737,0.1811,0.1973,0.0,0.0,0.0,0.0,0.0,0.0,0.0,0.0,0.0,0.0,0.0,0.0,0.0,0.0,0.0,0.0,0.0,0.0,0.0,0.0,0.0,0.0,0.0,0.0,1.8604,1.9205,1.9726,1.986,1.99,1.99,2.0127,2.0401,2.0695,2.0728,2.0828,2.1089,2.1109,2.1109,2.1109,0.0,0.0,0.0,0.0,2.0762,2.0234,2.0815,2.1109,2.1109,2.1109,2.1109,2.1109,2.1109,2.0822,2.0361,2.0882,2.0815,2.0313,2.0895,2.1109,2.1109,2.1109,2.1109,2.0899,1.9251,1.7722,0.0,0.0,0.0,0.0,0.0,0.0,0.0,0.0,0.0,0.0,-0.756,-0.7855,-0.8153,-0.8448,-0.7657,-0.6422,-0.4639,-0.338,-0.1899,0.0,0.0,0.0,0.0,0.0,0.0,0.0,0.0,0.0,0.0,0.0,0.0,0.0,0.0,0.0,0.0,0.0,0.0,0.0,0.0,0.0,0.0,0.0,0.0,0.0,0.0,0.0,0.0,0.0,0.0182,0.0543,0.1644,0.2152,0.2616,0.395,0.5362,0.0,0.0,0.0,0.0,0.0,0.0,0.0,0.0,0.0,0.0,0.0,0.0,0.0,0.0,0.0,0.0,0.0,0.0,0.0,1.8384,1.9092,1.9666,1.9786,2.0207,2.0508,2.0508,2.0555,2.0702,2.0995,2.1029,2.1049,2.1109,2.1109,2.1109,2.1109,2.0661,2.0347,2.0173,2.028,2.0347,2.0173,2.0815,2.1109,2.1109,0.0,0.0,2.1109,2.1109,2.1049,2.0942,2.1056,2.1042,2.0949,2.1062,2.1109,2.1109,2.1109,2.1109,2.0959,1.9942,1.9804,1.9973,0.0,0.0,0.0,0.0,0.0,0.0,0.0,0.0,0.0,0.0,-0.7631,-0.7933,-0.8228,-0.765,-0.6482,-0.467,-0.2397,0.0,0.0,0.0,0.0,0.0,0.0,0.0,0.0,0.0,0.0,0.0,0.0,0.0,0.0,0.0,0.0,0.0,0.0,0.0,0.0,0.0,0.0,0.0,0.0,0.0,0.0,0.0,0.0,0.0,0.0,0.0,0.0123,0.0787,0.1024,0.1144,0.1985,0.3863,0.5652,0.0,0.0,0.0,0.0,0.0,0.0,0.0,0.0,0.0,0.0,0.0,0.0,0.0,0.0,1.6436,1.6634,0.0,1.8364,1.8657,1.9199,1.9686,1.9973,2.0394,2.0675,2.0675,2.0808,2.0949,2.1096,2.1109,2.1109,2.1109,2.1109,2.1109,2.1109,2.0828,2.0535,2.018,2.0514,2.0528,2.0173,2.0815,2.1109,2.1109,2.1109,2.1109,2.1109,2.1109,2.1109,2.1109,2.1109,2.1109,2.1109,2.1109,2.1109,2.1109,2.1109,2.1109,2.1056,2.0615,2.0728,2.1049,0.0,0.0,0.0,0.0,0.0,0.0,0.0,0.0,0.0,0.0,0.0,-0.7712,-0.7958,-0.7902,-0.685,0.0,0.0,0.0,0.0,-0.0426,-0.0435,-0.045,-0.0172,0.0,0.0,0.0,0.0,0.0,0.0,0.0,0.0,0.0,0.0,0.0,0.0,0.0,0.0,0.0,0.0,0.0,0.0,0.0,0.0,0.0,0.0,0.0,0.0,0.0,0.0,0.0,0.0,0.0,0.0,0.2278,0.4803,0.4246,0.6603,0.0,0.0,0.0,0.0,0.0,0.0,0.0,0.0,1.0849,1.1458,1.2426,1.4173,1.5629,1.5888,1.7226,1.8422,1.9005,1.9345,1.972,2.0247,2.0575,2.0762,2.0762,2.0969,2.1109,2.1109,2.1109,2.1109,2.1109,2.1109,2.1109,2.1109,2.1109,2.0895,2.0421,2.0862,2.0882,2.0408,2.0875,2.1109,2.1109,2.1109,2.1109,2.1109,2.1109,2.1109,2.1109,2.1109,2.1109,2.1109,2.1109,2.1109,2.1109,2.1109,2.1109,2.1109,2.1109,2.1109,2.1109,0.0,0.0,0.0,0.0,0.0,0.0,0.0,0.0,0.0,0.0,0.0,0.0,0.0,0.0,0.0,0.0,0.0,0.0,-0.1973,-0.1962,-0.1934,-0.1941,-0.0698,0.0,0.0,0.0,0.0,0.0,0.0,0.0,0.0,0.0,0.0,0.0,0.0,0.0,0.0,0.0,0.0,0.0,0.0,0.0,0.0,0.0,0.0,0.0,0.0,0.0,0.0,0.0,0.0,0.0,0.0,0.2278,0.4823,0.4537,0.6776,0.9249,0.8645,0.8506,0.8598,0.8814,0.9137,0.9354,0.0,1.0759,1.2056,1.1959,1.452,1.6803,1.6832,1.8147,1.9325,1.9653,1.9947,2.0247,2.0581,2.0875,2.1062,2.1062,2.1089,2.1109,2.1109,2.1109,2.1109,2.1109,2.1109,2.1109,2.1109,2.1109,2.1082,2.1015,2.1076,2.1076,2.1009,2.1076,2.1109,2.1109,2.1109,2.1109,2.1109,2.1109,2.1109,2.1109,2.1109,2.1109,2.1109,2.1109,2.1109,2.1109,2.1109,2.1109,2.1109,2.1109,2.1109,2.1109,0.0,0.0,0.0,0.0,0.0,0.0,0.0,0.0,0.0,0.0,0.0,0.0,0.0,0.0,0.0,0.0,0.0,0.0,-0.3519,-0.3513,-0.3594,-0.3769,-0.2303,-0.1435,-0.1445,-0.0487,0.0,0.0,0.0,0.0,0.0,0.0,0.0,0.0,0.0,0.0,0.0,0.0,0.0,0.0,0.0,0.0,0.0,0.0,0.0,0.0123,0.0906,0.1139,0.0,0.0,0.1798,0.2463,0.1715,0.3584,0.6022,0.594,0.7402,0.9086,0.8916,0.8937,0.9055,0.9276,0.9483,0.9622,0.9554,1.0218,1.074,1.0666,1.3286,1.5607,1.5607,1.7695,1.9459,1.9753,2.0047,2.0334,2.0635,2.0922,2.1109,2.1109,2.0808,2.0601,2.0601,2.0909,2.0969,2.0621,2.0915,2.1109,2.1109,2.1109,2.1109,2.1109,2.1109,2.1109,2.1109,2.1109,2.1109,2.1109,2.1109,2.1109,2.1109,2.1109,2.1109,2.1109,2.1109,2.1109,2.1109,2.1109,2.1109,2.1109,2.1109,2.1109,2.1109,2.1109,2.1109,2.1109,0.0,0.0,0.0,0.0,0.0,0.0,0.0,0.0,0.0,0.0,0.0,0.0,0.0,0.0,0.0,0.0,0.0,0.0,0.0,-0.5105,-0.5248,-0.5479,-0.4018,-0.3146,-0.3146,-0.1532,-0.0678,-0.0678,-0.0247,0.0,0.0,0.0,0.0,0.0,0.0,0.0,0.0,0.0,0.0,0.0,0.0,0.0,0.0,0.0,0.0246,0.0668,0.1659,0.1991,0.0,0.0,0.3368,0.4266,0.3219,0.4744,0.6899,0.6782,0.7741,0.8862,0.9146,0.9231,0.9262,0.954,0.9686,0.9774,0.9812,0.9822,0.9822,0.9822,1.2037,1.4083,1.462,1.6967,1.9122,1.992,2.0221,2.0454,2.0755,2.0975,2.1049,2.0889,2.0494,2.0013,1.9607,2.0381,2.0762,2.0494,2.0869,2.1109,2.1109,2.1109,2.1109,2.1109,2.1109,2.1109,2.1109,2.1109,2.1109,2.1109,2.1109,2.1109,2.1109,2.1109,2.1109,2.1109,2.1109,2.1109,2.1109,2.1109,2.1109,2.1109,2.1109,2.1109,2.1109,2.1109,2.1109,2.1109,0.0,0.0,0.0,0.0,0.0,0.0,0.0,0.0,0.0,0.0,0.0,0.0,0.0,0.0,0.0,0.0,0.0,0.0,0.0,-0.6553,-0.6782,-0.7005,-0.5602,-0.4853,-0.4853,-0.3259,-0.2401,-0.2401,-0.0802,0.0,0.0,0.0,0.0,0.0,0.0,0.0,0.0,0.0,0.0,0.0,0.0,0.0,0.0,0.0,0.0787,0.194,0.1997,0.0,0.0,0.0,0.4072,0.4173,0.3997,0.5319,0.6869,0.6603,0.7476,0.8591,0.9088,0.8947,0.8872,0.9462,0.9612,0.9652,0.9788,0.9822,0.9822,0.9822,1.114,1.281,1.4635,1.637,1.8179,2.0301,2.0661,2.0762,2.1056,2.1102,2.0895,2.0327,2.018,1.9614,0.0,1.9354,2.0488,2.1042,2.1096,2.1109,2.1109,2.1109,2.1109,2.1109,2.1109,2.1109,2.1109,2.1109,2.1109,2.1109,2.1109,2.1109,2.1109,2.1109,2.1109,2.1109,2.1109,2.1109,2.1109,2.1109,2.1109,2.1109,2.1109,2.1109,2.1109,2.1109,2.1109,2.1109,0.0,0.0,0.0,0.0,0.0,0.0,0.0,0.0,0.0,0.0,0.0,0.0,0.0,0.0,0.0,0.0,0.0,0.0,0.0,-0.788,-0.8186,-0.8611,-0.7326,-0.6566,-0.6566,-0.4916,-0.412,-0.412,-0.2462,-0.1664,-0.1663,-0.0494,0.0,0.0,0.0,0.0,0.0,0.0,0.0,0.0,0.0,0.0,0.0,0.0,0.0767,0.1955,0.0,0.0,0.0,0.4928,0.5806,0.654,0.5632,0.6473,0.7793,0.7559,0.8123,0.8798,0.8845,0.9005,0.9228,0.9534,0.968,0.9764,0.9812,0.9822,0.9822,0.9822,1.0988,1.2576,1.4173,1.5138,1.6666,1.96,1.9376,1.9348,2.0909,2.0608,2.0381,2.0768,2.0134,0.0,0.0,0.0,0.0,1.9686,2.0561,2.1109,2.1109,2.1109,2.1109,2.1109,2.1109,2.1109,2.1109,2.1109,2.1109,2.1109,2.1109,2.1109,2.1109,2.1109,2.1109,2.1109,2.1109,2.1109,2.1109,2.1109,2.1109,2.1109,2.1109,2.1109,2.1109,2.1109,2.1109,2.1109,0.0,0.0,0.0,0.0,0.0,0.0,0.0,0.0,0.0,0.0,0.0,0.0,0.0,0.0,0.0,0.0,0.0,0.0,0.0,0.0,-0.8648,-0.9042,-0.8256,-0.7817,-0.7817,-0.6294,-0.5572,-0.5572,-0.4086,-0.3383,-0.3322,-0.2278,-0.1417,-0.0863,-0.0863,-0.0555,0.0,0.0,0.0,0.0,0.0,0.0,0.0061,0.0527,0.1482,0.0,0.0,0.0,0.0,0.6342,0.7054,0.7862,0.6912,0.734,0.8211,0.8275,0.8504,0.8801,0.892,0.9161,0.9432,0.9635,0.9754,0.9822,0.9822,0.9863,0.99,0.99,1.0651,1.1856,1.3323,1.3834,1.5142,1.8624,1.8502,1.8674,2.0833,2.0621,2.0401,2.0755,2.0134,1.9846,0.0,0.0,0.0,1.9285,2.0107,2.0641,2.0641,2.0641,2.0788,2.1096,2.1109,2.1109,2.1109,2.1109,2.1109,2.1109,2.1109,2.1109,2.1109,2.1109,2.0935,2.0655,2.0975,2.0929,2.0668,2.0975,2.1109,2.1109,2.1109,2.1109,2.1109,2.1109,2.1109,2.1109,0.0,0.0,0.0,0.0,0.0,0.0,0.0,0.0,0.0,0.0,0.0,0.0,0.0,0.0,0.0,0.0,0.0,0.0,0.0,0.0,0.0,-0.8445,-0.8472,-0.8482,-0.8482,-0.7392,-0.6776,-0.6776,-0.5554,-0.495,-0.4887,-0.477,-0.3917,-0.239,-0.239,-0.1472,0.0,0.0,0.0,0.0,0.0,0.0,0.0117,0.1413,0.0,0.0,0.0,0.0,0.778,0.7645,0.7794,0.7968,0.7798,0.7858,0.8133,0.8696,0.873,0.8648,0.9208,0.9381,0.9469,0.9751,0.9825,0.9832,0.9832,0.9889,0.9994,0.9977,1.0148,1.0755,1.2225,1.2489,1.3657,1.7294,1.7958,1.8637,2.0654,2.0986,2.0842,2.0301,2.0173,1.9913,1.9112,1.9786,0.0,1.9826,0.0,1.9867,1.9867,1.9867,2.0247,2.1082,2.1109,2.1109,2.1109,2.1109,2.1109,2.1109,2.1109,2.1109,2.1109,2.1109,2.0655,1.9913,2.0748,2.0635,1.9933,2.0768,2.1109,2.1109,2.1109,2.1109,2.1109,2.1109,2.1109,2.1109,0.0,0.0,0.0,0.0,0.0,0.0,0.0,0.0,0.0,0.0,0.0,0.0,0.0,0.0,0.0,0.0,0.0,0.0,0.0,0.0,0.0,0.0,0.0,0.0,0.0,0.0,0.0,0.0,0.0,-0.5396,-0.4332,-0.325,-0.2009,-0.0632,-0.0632,-0.0402,0.0,0.0,0.0,0.0,0.0,0.0,0.0056,0.0,0.0,0.0,0.0,0.0,0.7648,0.7611,0.7794,0.7839,0.6969,0.7545,0.8547,0.8587,0.8862,0.9137,0.9069,0.9374,0.9727,0.9802,0.9845,0.993,0.993,1.011,1.0158,0.9927,0.9825,1.0172,1.1372,1.0747,1.1237,1.4919,1.5606,1.6315,1.8237,1.9456,2.016,2.0167,2.0173,2.0314,2.0528,2.0755,2.0581,0.0,2.0408,2.0775,2.0775,2.0775,2.0875,2.1102,2.1109,2.1109,2.1109,2.1109,2.1109,2.1109,2.1109,2.1109,2.1109,2.1109,2.0989,2.0788,2.1009,2.0982,2.0795,2.1015,2.1109,2.1109,2.1109,2.1109,2.1109,2.1109,2.1109,2.1109,0.0,0.0,0.0,0.0,0.0,0.0,0.0,0.0,0.0,0.0,0.0,0.0,0.0,0.0,0.0,0.0,0.0,0.0,0.0,0.0,0.0,0.0,0.0,0.0,0.0,0.0,0.0,0.0,0.0,0.0,0.0,-0.4459,-0.3007,-0.1096,-0.1096,-0.0713,0.0,0.0,0.0,0.0,0.0,0.0,0.0,0.0,0.0,0.0,0.0,0.5699,0.6803,0.6221,0.6937,0.7932,0.6887,0.7572,0.8845,0.9018,0.9218,0.9388,0.936,0.961,0.9937,1.0005,1.0086,1.0114,0.9916,1.0066,1.0093,0.9791,0.9713,0.9842,1.0379,0.9817,1.0235,1.3141,1.3701,1.4625,1.7232,1.8295,1.9184,2.0086,2.0173,2.0461,2.1049,2.1109,2.0909,2.0414,2.0474,2.0535,2.0535,2.0535,2.0715,2.1096,2.1109,2.1109,2.1109,2.1109,2.1109,2.1109,2.1109,2.1109,2.1109,2.1109,2.0895,2.0555,0.0,2.0889,2.0561,2.0949,2.1109,2.1109,2.1109,2.1109,2.1109,2.1109,2.1109,2.1109,0.0,0.0,0.0,0.0,0.0,0.0,0.0,0.0,0.0,0.0,0.0,0.0,0.0,0.0,0.0,0.0,0.0,0.0,0.0,0.0,0.0,0.0,0.0,0.0,0.0,0.0,0.0,0.0,0.0,0.0,0.0,0.0,0.0,0.0,0.0,0.0,0.0,0.0,0.0,0.0,0.0,0.0,0.0,0.0,0.0,0.0,0.4822,0.5727,0.5537,0.4203,0.5692,0.7951,0.6961,0.7752,0.909,0.9622,0.9625,0.9547,0.9835,0.9974,1.0048,1.0246,1.0293,1.0239,0.9971,0.9998,0.9933,0.97,0.9703,0.9683,0.9429,0.9381,1.0,1.179,1.2264,1.344,1.6376,1.7282,1.8215,1.9631,2.0059,2.0461,2.1049,2.1042,2.1022,2.1102,2.0401,1.9973,1.9973,1.9973,2.0321,2.1082,2.1109,2.1109,2.1109,2.1109,2.1109,2.1109,2.1109,2.1109,2.1109,2.1109,2.0695,2.0013,0.0,0.0,2.0034,2.0795,2.1109,2.1109,2.1109,2.1109,2.1109,2.1109,2.1109,2.1109,0.0,0.0,0.0,0.0,0.0,0.0,0.0,0.0,0.0,0.0,-0.7988,0.0,0.0,0.0,0.0,0.0,0.0,0.0,0.0,0.0,0.0,0.0,0.0,0.0,0.0,0.0,0.0,0.0,0.0,0.0,0.0,0.0,0.0,0.0,0.0,0.0,0.0,0.0,0.0,0.0,0.0,0.0,0.0,0.0,0.0,0.0,0.3767,0.4368,0.4165,0.2788,0.4497,0.6911,0.5671,0.7281,0.9639,0.95,0.9683,0.9835,0.973,0.9958,1.0246,1.0273,1.0368,1.0439,1.0388,1.0304,1.0154,0.9846,0.9608,0.9442,0.9391,0.9381,0.9593,1.019,1.143,1.2418,1.2516,1.5698,1.7961,1.7766,1.9202,2.0461,2.1049,2.0668,2.0588,0.0,2.0969,2.0882,2.0882,2.0882,2.0955,2.1109,2.1109,2.1109,2.1109,2.1109,2.1109,2.1109,2.1109,2.1109,2.1109,2.1109,2.1029,2.0889,2.1042,0.0,2.0895,2.1049,2.1109,2.1109,2.1109,2.1109,2.1109,2.1109,2.1109,2.1109,0.0,0.0,0.0,0.0,0.0,0.0,0.0,0.0,0.0,0.0,-0.7988,-0.7988,0.0,0.0,0.0,0.0,0.0,0.0,0.0,0.0,0.0,0.0,0.0,0.0,0.0,0.0,-0.7221,-0.7095,0.0,-0.6409,-0.4441,-0.3937,-0.2685,-0.0844,0.0,0.0,0.0,0.0,0.0,0.0,0.0,0.0,0.0,0.0,0.0,0.0,0.0,0.2964,0.2839,0.2195,0.3158,0.4638,0.4857,0.6569,0.8675,0.9324,0.9761,0.9957,0.9815,1.0107,1.0409,1.049,1.0561,1.0527,1.0215,1.009,0.991,0.9456,0.9249,0.915,0.915,0.915,0.9296,0.9747,1.0479,1.1257,1.1872,1.4561,1.6725,1.7342,1.9076,2.028,2.0628,2.0261,2.0187,2.0621,2.0514,2.0628,2.1082,2.1109,2.1109,2.1109,2.1109,2.1109,2.1109,2.1109,2.1109,2.1109,2.1109,2.1109,2.1109,2.1109,2.1109,2.1109,2.1109,0.0,2.0461,2.0922,2.0842,2.0474,2.0929,2.1109,2.1109,2.1109,2.1109,2.1109,0.0,0.0,0.0,0.0,0.0,0.0,0.0,-0.7941,-0.7951,-0.7985,-0.7988,-0.7988,-0.7988,-0.7988,-0.7988,0.0,0.0,0.0,0.0,0.0,0.0,0.0,0.0,0.0,0.0,0.0,0.0,-0.7146,-0.7312,0.0,0.0,0.0,0.0,0.0,-0.0137,0.0,0.0,0.0,0.0,0.0,0.0,0.0,0.0,0.0,0.0,0.0,0.0,0.1561,0.162,0.1891,0.218,0.2754,0.4641,0.6199,0.7576,0.9129,0.9795,0.996,1.0054,1.0337,1.0568,1.069,1.0721,1.0578,1.0042,0.9869,0.9669,0.914,0.8929,0.8902,0.9022,0.9035,0.9208,0.9734,0.9768,1.019,1.1612,1.3327,1.515,1.6921,1.8612,1.9848,2.0346,2.01,0.0,2.0394,2.0207,2.0381,2.1069,2.1109,2.1109,2.1109,2.1109,2.1109,2.1109,2.1109,2.1109,2.1109,2.1109,2.1109,2.1109,2.1109,2.1109,2.1109,2.1109,0.0,0.0,2.0748,2.0595,1.9887,2.0768,2.1109,2.1109,2.1109,2.1109,2.1109,0.0,0.0,0.0,0.0,0.0,0.0,0.0,-0.7831,-0.7882,-0.7971,-0.7988,-0.7988,-0.7988,-0.7988,0.0,0.0,0.0,0.0,0.0,0.0,0.0,0.0,0.0,0.0,0.0,0.0,0.0,-0.735,-0.7409,0.0,0.0,0.0,0.0,0.0,0.0,0.0,0.0,0.0,0.0,0.0,0.0,0.0,0.0,0.0,0.0,0.0,0.0,0.0202,0.0355,0.1577,0.202,0.2569,0.5454,0.6644,0.7322,0.9075,0.972,0.993,1.0341,1.0571,1.0704,1.0717,1.0721,1.0636,1.031,1.0022,0.973,0.9408,0.9127,0.8966,0.9289,0.934,0.9445,0.9768,0.9595,0.9582,1.0001,1.1538,1.3411,1.5458,1.6932,1.868,2.0787,2.0521,2.0428,2.0982,2.1002,0.0,2.1109,2.1109,2.1109,2.1109,2.1109,2.1109,2.1109,2.1109,2.1109,2.1109,2.1109,2.1109,2.1109,2.1109,2.1109,2.1109,2.1109,0.0,0.0,2.0748,2.0595,1.9887,2.0768,2.1109,2.1109,2.1109,2.1109,2.1109,0.0,0.0,0.0,0.0,0.0,0.0,0.0,-0.7897,-0.7921,-0.7982,-0.7988,-0.7988,-0.7988,-0.7988,-0.7988,0.0,0.0,0.0,0.0,0.0,0.0,0.0,0.0,0.0,0.0,0.0,-0.7023,-0.6325,-0.6325,0.0,0.0,0.0,0.0,0.0,0.0,0.0,0.0,0.0,0.0,0.0,0.0,0.0,0.0,0.0,0.0,0.0,0.0,0.0,0.0202,0.1537,0.2007,0.253,0.5444,0.6444,0.6885,0.8673,0.9505,0.9916,1.0063,1.0399,1.0721,1.0721,1.0721,1.0595,1.0114,0.991,0.9686,0.9211,0.9022,0.8919,0.9093,0.9117,0.9211,0.9507,0.9459,0.9547,1.0029,1.1569,1.306,1.408,1.5592,1.7204,0.0,0.0,1.8955,2.024,2.0321,0.0,2.1082,2.1109,2.1109,2.1109,2.1109,2.1109,2.1109,2.1109,2.1109,2.1109,2.1109,2.1109,2.1109,2.1109,2.1109,2.1109,2.1109,0.0,0.0,2.0528,2.0281,1.9152,2.0561,2.1109,2.1109,2.1109,2.1109,2.1109,0.0,0.0,0.0,0.0,0.0,0.0,-0.7901,-0.7887,-0.7891,-0.7978,-0.7988,-0.7988,-0.7988,-0.7988,-0.7988,-0.7988,0.0,0.0,0.0,0.0,0.0,0.0,0.0,0.0,0.0,0.0,-0.7139,-0.6264,-0.5834,-0.4558,0.0,0.0,-0.1216,0.0,0.0,0.0,0.0,0.0,0.0,0.0,0.0,0.0,0.0,0.0,0.0,0.0,0.0,0.0,0.0,0.0,0.0,0.3075,0.6001,0.6938,0.72,0.8591,0.9439,0.9862,0.9951,1.0331,1.0721,1.0721,1.0656,1.0453,0.9937,0.9754,0.9547,0.8986,0.8885,0.8885,0.8885,0.8885,0.9035,0.0,0.0,0.9561,1.0073,1.1194,1.2247,1.3117,1.4249,1.5778,1.7672,1.8177,1.888,2.0066,0.0,0.0,2.1076,2.1109,2.1109,2.1109,2.1109,2.1109,2.1109,2.1109,2.1109,2.1109,2.1109,2.0975,2.0728,2.0989,2.0969,2.0735,0.0,0.0,0.0,2.0494,2.0227,1.9025,2.0521,2.1109,2.1109,2.1109,2.1109,2.1109,0.0,0.0,0.0,0.0,0.0,0.0,0.0,-0.7695,-0.7709,-0.7951,-0.7988,-0.7988,-0.7988,-0.7988,-0.7988,-0.7988,0.0,0.0,0.0,0.0,0.0,0.0,0.0,0.0,0.0,0.0,-0.7668,-0.7759,-0.644,-0.5172,-0.3964,-0.2613,-0.1296,0.0,0.0,0.0,0.0,0.0,0.0,0.0,0.0,0.0,0.0,0.0,0.0,0.0,0.0,0.0,0.0,0.0,0.0,0.0,0.0,0.8367,0.8567,0.9074,0.9371,0.971,1.0154,1.0493,1.0721,1.0721,1.05,1.0202,0.989,0.9595,0.9303,0.8946,0.8885,0.8885,0.8885,0.8885,0.9035,0.9334,0.9381,0.0,0.9785,0.9825,1.0606,1.2674,1.2905,1.4372,1.8128,2.0055,2.1096,2.1096,0.0,0.0,2.1109,2.1109,2.1109,2.1109,2.1109,2.1109,2.1109,2.1109,2.1109,2.1109,2.1109,2.0655,1.9846,2.0715,2.0635,0.0,0.0,0.0,0.0,2.0742,2.0588,1.9873,2.0762,2.1109,2.1109,2.1109,2.1109,2.1109,0.0,0.0,0.0,0.0,0.0,0.0,0.0,-0.7773,-0.7777,-0.7872,-0.7882,-0.7874,-0.7978,-0.7988,-0.7988,-0.7988,0.0,0.0,0.0,0.0,0.0,0.0,0.0,0.0,0.0,0.0,-0.6978,-0.5221,-0.4775,-0.3446,-0.126,-0.0807,-0.0402,0.0,0.0,0.0,0.0,0.0,0.0,0.0,0.0,0.0,0.0,0.0,0.0,0.0,0.0,0.0,0.0,0.0,0.0,0.0,0.0,0.0,0.0,0.8903,0.9218,0.9486,0.9629,0.9883,1.0103,1.0103,1.0036,0.989,0.9588,0.9449,0.9296,0.8946,0.8885,0.8885,0.8885,0.8885,0.9035,0.9334,0.9381,0.0,0.0,1.0134,1.0433,1.1315,1.2442,1.4092,0.0,0.0,1.9198,0.0,0.0,0.0,2.1076,2.1109,2.1109,2.1109,2.1109,2.1109,2.1109,2.1109,2.1109,2.1109,2.1109,2.0648,1.9826,2.0708,0.0,0.0,0.0,0.0,0.0,2.0748,2.0595,1.9887,2.0768,2.1109,2.1109,2.1109,2.1109,2.1109,0.0,0.0,0.0,0.0,0.0,0.0,0.0,-0.7682,-0.7665,-0.7723,-0.7777,-0.7848,-0.7894,-0.7955,-0.7988,-0.7988,0.0,0.0,0.0,0.0,0.0,0.0,0.0,0.0,0.0,-0.7235,-0.6176,-0.4016,-0.3515,-0.2413,-0.0756,-0.0252,0.0,0.0,0.0,0.0,0.0,0.0,0.0,0.0,0.0,0.0,0.0,0.0,0.0,0.0,0.0,0.0,0.0,0.0,0.0,0.0,0.0,0.0,0.0,0.0,0.9069,0.9239,0.9351,0.9595,0.9822,0.9822,0.9737,0.9591,0.9351,0.9252,0.9147,0.8903,0.8988,0.9072,0.8905,0.8984,0.9045,0.9117,0.932,0.9557,0.9819,1.0002,1.0175,1.0358,1.2013,0.0,0.0,1.6617,1.8368,0.0,0.0,0.0,2.1082,2.1109,2.1109,2.1109,2.1109,2.1109,2.1109,2.1109,2.1109,2.1109,2.1109,2.0648,1.9826,2.0708,0.0,0.0,0.0,0.0,0.0,2.0882,2.0788,2.0347,2.0895,2.1109,2.1109,2.1109,2.1109,2.1109,0.0,0.0,0.0,0.0,0.0,0.0,0.0,0.0,0.0,0.0,-0.7706,-0.7801,-0.7811,-0.7897,-0.7988,0.0,0.0,0.0,0.0,0.0,0.0,0.0,0.0,0.0,0.0,-0.5979,-0.5275,-0.3865,-0.2614,-0.1962,-0.1812,-0.0605,0.0,0.0,0.0,0.0,0.0,0.0,0.0,0.0,0.0,0.0,0.0,0.0,0.0,0.0,0.0,0.0,0.0,0.0,0.0,0.0,0.0,0.0,0.0,0.0,0.0,0.0,0.0,0.9551,0.9758,0.9758,0.9551,0.931,0.9214,0.9025,0.0,0.8767,0.9083,0.9296,0.9022,0.9096,0.9156,0.8791,0.9239,0.952,0.9282,0.9571,0.9842,0.9812,1.1518,0.0,1.3236,1.634,0.0,0.0,0.0,0.0,2.1109,2.1109,2.1109,2.1109,2.1109,2.1109,2.1109,2.1109,2.1076,2.1015,2.1082,2.0615,1.974,2.0681,0.0,0.0,0.0,0.0,0.0,2.1109,2.1109,2.1109,2.1109,2.1109,2.1109,2.1109,2.1109,2.1109,0.0,0.0,0.0,0.0,0.0,0.0,0.0,0.0,0.0,0.0,0.0,-0.7692,-0.7797,-0.7897,0.0,0.0,0.0,0.0,0.0,0.0,0.0,0.0,0.0,0.0,-0.6029,-0.5979,-0.4822,-0.2464,-0.2163,-0.146,-0.0454,-0.0151,0.0,0.0,0.0,0.0,0.0,0.0,0.0,0.0,0.0,0.0,0.0,0.0,0.0,0.0,0.0,0.0,0.0,0.0,0.0,0.0,0.0,0.0,0.0,0.0,0.8885,0.8898,0.9025,0.0,0.909,0.909,0.9037,0.9001,0.0,0.8879,0.896,0.9035,0.9225,0.9361,0.9289,0.949,0.953,0.9173,0.9456,0.9707,0.9527,0.989,1.0046,0.97,1.0601,1.1595,1.2657,1.5042,0.0,0.0,0.0,2.1109,2.1109,2.1109,2.1109,2.1109,2.1109,2.1109,2.1109,2.1109,2.0768,2.0114,2.0788,2.0301,1.8851,2.0401,0.0,0.0,0.0,0.0,2.1109,2.1109,2.1109,2.1109,2.1109,2.1109,2.1109,2.1109,2.1109,2.1109,0.0,0.0,0.0,0.0,0.0,0.0,0.0,0.0,0.0,0.0,0.0,0.0,0.0,0.0,0.0,0.0,0.0,0.0,0.0,0.0,0.0,0.0,0.0,0.0,-0.4169,-0.4171,-0.3168,-0.1058,-0.1058,-0.0706,0.0,0.0,0.0,0.0,0.0,0.0,0.0,0.0,0.0,0.0,0.0,0.0,0.0,0.0,0.0,0.0,0.0,0.0,0.0,0.0,0.1886,0.4247,0.0,0.0,0.0,0.0,0.8885,0.8885,0.8885,0.8885,0.8915,0.9106,0.9039,0.8861,0.8832,0.8824,0.8905,0.9039,0.9174,0.93,0.9367,0.9401,0.9361,0.9238,0.9357,0.9557,0.969,0.9859,0.9907,0.9727,1.0005,1.057,0.0,0.0,0.0,0.0,0.0,2.0265,2.1046,2.1109,2.1109,2.1109,2.1109,2.1109,2.1109,2.1109,2.0668,1.9813,2.0688,2.0401,1.9138,2.0494,2.0848,0.0,0.0,0.0,2.1089,2.0815,2.0862,2.1109,2.1109,2.1109,2.1109,2.1109,2.1109,2.1109,0.0,0.0,0.0,0.0,0.0,0.0,0.0,0.0,0.0,0.0,0.0,0.0,0.0,0.0,0.0,0.0,0.0,0.0,0.0,0.0,0.0,0.0,0.0,-0.3364,-0.2013,-0.2013,-0.136,0.0,0.0,0.0,0.0,0.0,0.0,0.0,0.0,0.0,0.0,0.0,0.0,0.0,0.0,0.0,0.0,0.0,0.0,0.0,0.0,0.0,0.0,0.0,0.1737,0.3951,0.4383,0.0,0.0,0.0,0.0,0.0,0.8885,0.8885,0.8952,0.9306,0.9157,0.8888,0.8912,0.8898,0.8902,0.8972,0.9154,0.9354,0.9425,0.932,0.9198,0.9217,0.9248,0.9361,0.9764,0.9758,0.973,0.9781,0.9781,0.0,0.0,0.0,0.0,0.0,0.0,1.9285,2.0982,2.1109,2.1109,2.1109,2.1109,2.1109,2.1109,2.1109,2.0668,1.9813,2.0688,2.0648,1.9826,2.0708,2.1109,0.0,0.0,0.0,2.1069,2.0575,2.0661,2.1109,2.1109,2.1109,2.1109,2.1109,2.1109,2.1109,0.0,0.0,0.0,0.0,0.0,0.0,0.0,0.0,0.0,0.0,0.0,0.0,0.0,0.0,0.0,0.0,0.0,0.0,0.0,0.0,0.0,0.0,-0.2765,-0.3364,-0.2013,-0.2013,-0.136,0.0,0.0,0.0,0.0,0.0,0.0,0.0,0.0,0.0,0.0,0.0,0.0,0.0,0.0,0.0,0.0,0.0,0.0,0.0,0.0,0.0,0.0,0.0,0.1135,0.2753,0.4082,0.0,0.0,0.0,0.0,0.0,0.8885,0.8885,0.8952,0.9306,0.9157,0.8971,0.9093,0.9025,0.8989,0.9429,0.9618,0.9727,0.9747,1.0134,1.0164,0.935,0.9371,0.9605,0.0,0.0,1.0042,0.9686,0.0,0.0,0.0,0.0,0.0,0.0,0.0,1.9285,2.0982,2.1109,2.1109,2.1109,2.1109,2.1109,2.1109,2.1109,2.0668,1.9813,2.0688,2.0648,1.9826,2.0708,2.1109,0.0,0.0,2.1022,2.1102,2.1009,2.1029,2.1109,2.1109,2.1109,2.1109,2.1109,2.1109,2.1109,0.0,0.0,0.0,0.0,0.0,0.0,0.0,0.0,0.0,0.0,0.0,0.0,0.0,0.0,0.0,0.0,0.0,0.0,0.0,0.0,0.0,-0.0101,-0.1159,-0.1561,-0.0958,-0.0907,-0.0605,0.0,0.0,0.0,0.0,0.0,0.0,0.0,0.0,0.0,0.0,0.0,0.0,0.0,0.0,0.0,0.0,0.0,0.0,0.0,0.0,0.0,0.0,0.0,0.1549,0.3557,0.4298,0.0,0.0,0.0,0.0,0.0,0.8885,0.8885,0.8993,0.9507,0.9276,0.9003,0.953,0.9273,0.9053,0.966,0.9513,0.9344,0.9747,0.9849,0.9795,0.9554,0.9907,1.0178,1.0083,1.012,1.011,0.0,0.0,0.0,0.0,0.0,0.0,0.0,0.0,0.0,2.0976,2.1109,2.1109,2.1109,2.1109,2.1109,2.1109,2.1109,2.0668,1.9813,2.0688,2.0648,1.9826,2.0708,2.1109,2.1089,0.0,2.0815,2.1082,2.0768,2.0822,2.1109,2.1109,2.1109,2.1109,2.1109,2.1109,2.1109,0.0,0.0,0.0,0.0,0.0,0.0,0.0,0.0,0.0,0.0,0.0,0.0,0.0,0.0,0.0,0.0,0.0,0.0,0.0,0.0,-0.2464,-0.0101,0.0,0.0,0.0,0.0,0.0,0.0,0.0,0.0,0.0,0.0,0.0,0.0,0.0,0.0,0.0,0.0,0.0,0.0,0.0,0.0,0.0,0.0,0.0,0.0,0.0,0.0,0.0,0.0,0.0,0.0,0.0,0.0,0.0,0.8706,0.8885,0.8885,0.8885,0.8885,0.9006,0.9588,0.9327,0.9087,0.9862,0.9441,0.9104,0.9879,0.95,0.9167,0.9812,0.9588,0.9445,0.9863,1.0317,1.0561,1.0405,1.028,1.0249,1.0371,1.028,0.0,0.0,0.0,0.0,0.0,0.0,0.0,2.0912,2.1109,2.1109,2.1109,2.1109,2.1109,2.1109,2.1109,2.0768,2.0114,2.0788,2.0755,2.0134,2.0802,2.1109,2.1082,2.0635,2.0695,2.1069,2.0621,2.0702,2.1109,2.1109,2.1109,2.1109,2.1109,2.1109,2.1109,0.0,0.0,0.0,0.0,0.0,0.0,0.0,0.0,0.0,0.0,0.0,0.0,0.0,0.0,0.0,0.0,0.0,0.0,0.0,0.0,-0.1511,-0.005,0.0,0.0,0.0,0.0,0.0,0.0,0.0,0.0,0.0,0.0,0.0,0.0,0.0,0.0,0.0,0.0,0.0,0.0,0.0,0.0,0.0,0.0,0.0,0.0,0.0,0.0,0.0,0.0,0.0,0.0,0.0,0.0,0.5362,0.8118,0.8885,0.8885,0.8885,0.8885,0.8959,0.9334,0.9174,0.9114,1.0063,0.9574,0.9134,1.008,0.9985,0.9842,1.0185,0.9988,0.9876,1.0195,1.0283,1.0399,1.0653,0.0,1.0677,1.0687,0.0,0.0,0.0,0.0,0.0,0.0,0.0,0.0,2.0912,2.1109,2.1109,2.1109,2.1109,2.1109,2.1109,2.1109,2.1076,2.1015,2.1082,2.1076,2.1015,2.1082,2.1109,2.1109,2.1062,2.1069,2.1109,2.1062,2.1069,2.1109,2.1109,2.1109,2.1109,2.1109,2.1109,2.1109,0.0,0.0,0.0,0.0,0.0,0.0,0.0,0.0,0.0,0.0,0.0,0.0,0.0,0.0,0.0,0.0,0.0,0.0,0.0,0.0,-0.1386,-0.005,0.0,0.0,0.0,0.0,0.0,0.0,0.0,0.0,0.0,0.0,0.0,0.0,0.0,0.0,0.0,0.0,0.0,0.0,0.0,0.0,0.0,0.0,0.0,0.0,0.0,0.0,0.0,0.0,0.1835,0.2955,0.5061,0.6386,0.7371,0.8559,0.8885,0.8885,0.8885,0.8211,0.7862,0.9294,0.8593,0.8025,0.9886,0.9727,0.9469,1.0368,1.0019,0.9585,0.97,0.9934,1.0144,1.0259,1.0432,1.0592,1.0704,1.0721,0.0,0.0,0.0,0.0,0.0,0.0,0.0,0.0,0.0,0.0,0.0,2.1109,2.1109,2.1109,2.1109,2.1109,2.1109,2.1109,2.1109,2.1109,2.1109,2.1109,2.1109,2.1109,2.1109,2.1109,2.1109,2.1109,2.1109,2.1109,2.1109,2.1109,2.1109,2.1109,2.1109,2.1109,2.1109,2.1109,0.0,0.0,0.0,0.0,0.0,0.0,0.0,0.0,0.0,0.0,0.0,0.0,0.0,0.0,0.0,0.0,0.0,0.0,0.0,-0.2026,-0.098,-0.0049,0.0,0.0,0.0,0.0,0.0,0.0,0.0,0.0,0.0,0.0,0.0,0.0,0.0,0.0,0.0,0.0,0.0,0.0,0.0,0.0,0.0,0.0,0.0,0.0,0.0,0.0,0.0,0.0,0.2688,0.3856,0.0,0.7216,0.8135,0.8714,0.8546,0.8211,0.8211,0.7482,0.7075,0.8598,0.8229,0.7958,0.9896,0.9812,0.9612,1.0415,1.0168,0.9774,0.9683,1.0002,1.028,0.0,1.0449,1.0616,0.0,0.0,0.0,0.0,0.0,0.0,0.0,0.0,0.0,0.0,0.0,0.0,0.0,2.0786,2.1109,0.0,2.1109,2.1109,2.1109,2.1109,2.1109,2.1109,2.1109,2.1109,2.1109,2.1109,2.1109,2.1109,2.1109,2.1109,2.1109,2.1109,2.1109,2.1109,2.1109,2.1109,2.1109,2.1109,2.1109,2.1109,0.0,0.0,0.0,0.0,0.0,0.0,0.0,0.0,0.0,0.0,0.0,0.0,0.0,0.0,0.0,0.0,0.0,0.0,0.0,-0.0672,0.0,0.0,0.0,0.0,0.0,0.0,0.0,0.0,0.0,0.0,0.0,0.0,0.0,0.0,0.0,0.0,0.0,0.0,0.0,0.0,0.0,0.0,0.0,0.0,0.0,0.0,0.0,0.0,0.0,0.0,0.2013,0.2581,0.5554,0.0,0.0,0.8407,0.7875,0.6702,0.6705,0.6702,0.6756,0.7035,0.8163,0.9351,1.0103,0.9815,0.9557,1.0158,1.0514,1.0626,1.0331,1.028,1.0283,1.028,1.0283,1.0385,0.0,0.0,0.0,0.0,0.0,0.0,0.0,0.0,0.0,0.0,0.0,0.0,0.0,2.0132,2.1109,0.0,2.1109,2.1109,2.1109,2.1109,2.1109,2.1109,2.1109,2.1109,2.1109,2.1109,2.1109,2.1109,2.1109,2.1109,2.1109,2.1109,2.1109,2.1109,2.1109,2.1109,2.1109,2.1109,2.1109,2.1109,0.0,0.0,0.0,0.0,0.0,0.0,0.0,0.0,0.0,0.0,0.0,0.0,0.0,0.0,0.0,0.0,0.0,0.0,0.0,-0.0654,0.0,0.0,0.0,0.0,0.0,0.0,0.0,0.0,0.0,0.0,0.0,0.0,0.0,0.0,0.0,0.0,0.0,0.0,0.0,0.0,0.0,0.0,0.0,0.0,0.0,0.0,0.0,0.0,0.0,0.0,0.0,0.0,0.7132,0.0,0.0,0.8856,0.868,0.831,0.8559,0.6932,0.5758,0.8257,0.7479,0.683,0.9364,0.9903,0.993,1.0219,1.0351,1.0317,1.0012,1.0304,1.0521,1.0314,1.0456,1.0619,0.0,0.0,0.0,0.0,0.0,0.0,0.0,0.0,0.0,0.0,0.0,0.0,0.0,2.0132,0.0,0.0,2.1109,2.1109,2.1109,2.1109,2.1109,2.1109,2.1109,2.1109,2.1109,2.1109,2.1109,2.1109,2.1109,2.1109,2.1109,2.1109,2.1109,2.1109,2.1109,2.1109,2.1109,2.1109,2.1109,2.1109,0.0,0.0,0.0,0.0,0.0,0.0,0.0,0.0,0.0,0.0,-0.8123,-0.8018,0.0,0.0,0.0,0.0,0.0,0.0,0.0,0.0,0.0,0.0,0.0,0.0,0.0,0.0,0.0,0.0,0.0,0.0,0.0,0.0,0.0,0.0,0.0,0.0,0.0,0.0,0.0,0.0,0.0,0.0,0.0,0.0,0.0,0.0,0.0,0.0,0.0,0.0,0.0,0.0,0.7811,0.0,0.8595,0.8244,0.772,0.7208,0.6655,0.5111,0.4307,0.7195,0.6858,0.6504,0.9374,1.0025,1.0065,1.0399,1.0456,1.0399,1.0212,1.0473,0.0,1.0483,1.0605,1.0721,0.0,0.0,0.0,0.0,0.0,0.0,0.0,0.0,0.0,0.0,0.0,0.0,0.0,0.0,0.0,0.0,2.1109,2.1109,2.1109,2.1109,2.1109,2.1109,2.1109,2.1109,2.1109,2.1109,2.1109,2.1109,2.1109,2.1109,2.1109,2.1109,2.1109,2.1109,2.1109,2.1109,2.1109,2.1109,2.1109,2.1109,0.0,0.0,0.0,0.0,0.0,0.0,0.0,0.0,0.0,0.0,-0.7889,-0.7431,0.0,0.0,0.0,0.0,0.0,0.0,0.0,0.0,0.0,0.0,0.0,0.0,0.0,0.0,0.0,0.0,0.0,0.0,0.0,0.0,0.0,0.0,0.0,0.0,0.0,0.0,0.0,0.0,0.0,0.0,0.0,0.0,0.0,0.0,0.0,0.0,0.0,0.0,0.0,0.0,0.7795,0.8547,0.8598,0.7116,0.5937,0.472,0.3074,0.256,0.2915,0.5001,0.646,0.7881,0.9862,1.0202,1.0145,1.0633,1.07,1.0687,1.0714,1.0721,1.0721,1.0721,1.0721,1.0721,1.0721,0.0,0.0,0.0,0.0,0.0,0.0,0.0,0.0,0.0,0.0,0.0,0.0,0.0,0.0,2.1039,2.1109,2.1109,2.1109,2.1109,2.1109,0.0,2.1109,2.1109,2.1109,2.1109,2.1109,2.1109,2.1109,2.1109,2.1109,2.1109,2.1109,2.1109,2.1109,2.1109,2.1109,2.1109,2.1109,2.1109,0.0,0.0,0.0,0.0,0.0,0.0,0.0,0.0,0.0,0.0,0.0,0.0,0.0,0.0,0.0,0.0,0.0,0.0,0.0,0.0,0.0,0.0,0.0,0.0,0.0,0.0,0.0,0.0,0.0,0.0,0.0,0.0,0.0,0.0,0.0,0.0,0.0,0.0,0.0,0.0,0.0,0.0,0.0,0.0,0.0,0.0,0.0,0.0,0.0,0.0,0.0,0.0,0.7622,0.8316,0.8568,0.8442,0.7425,0.6271,0.6105,0.5136,0.4587,0.6291,0.8091,0.9606,1.0397,1.0507,1.0456,1.0677,1.0534,1.0446,1.0677,1.0721,1.0721,1.0721,1.0721,0.0,0.0,0.0,0.0,0.0,0.0,0.0,0.0,0.0,0.0,0.0,0.0,0.0,0.0,0.0,0.0,2.1039,2.1109,2.1109,2.1109,2.1109,2.1109,0.0,2.1109,2.1109,2.1109,2.1109,2.1109,2.1109,2.1109,2.1109,2.1109,2.1109,2.1109,2.1109,2.1109,2.1109,2.1109,2.1109,2.1109,2.1109,0.0,0.0,0.0,0.0,0.0,0.0,0.0,0.0,0.0,0.0,0.0,0.0,0.0,0.0,0.0,0.0,0.0,0.0,0.0,0.0,0.0,0.0,0.0,0.0,0.0,0.0,0.0,0.0,0.0,0.0,0.0,0.0,0.0,0.0,0.0,0.0,0.0,0.0,0.0,0.0,0.0,0.0,0.0,0.0,0.0,0.0,0.0,0.0,0.0,0.0,0.0,0.0,0.0,0.0,0.8538,0.7843,0.7319,0.6778,0.6107,0.5371,0.5241,0.6999,0.8912,1.0348,1.0575,1.0605,1.0622,1.0704,1.0599,1.0538,1.069,1.0721,1.0721,1.0721,0.0,0.0,0.0,0.0,0.0,0.0,0.0,0.0,0.0,0.0,0.0,0.0,0.0,0.0,0.0,1.7532,1.9285,2.1039,2.1109,2.1109,2.1109,2.1109,2.1109,2.1109,2.1109,2.1109,2.1109,2.1109,2.1109,2.1109,2.1109,2.1109,2.1109,2.1109,2.1109,2.1109,2.1109,2.1109,2.1109,2.1109,2.1109,2.1109,0.0,0.0,0.0,0.0,0.0,0.0,0.0,0.0,0.0,0.0,0.0,0.0,0.0,0.0,0.0,0.0,0.0,0.0,0.0,0.0,0.0,0.0,0.0,0.0,0.0,0.0,0.0,0.0,0.0,0.0,0.0,0.0,0.0,0.0,0.0,0.0,0.0,0.0,0.0,0.0,0.0,0.0,0.0,0.0,0.0151,0.0353,0.0353,0.1913,0.4016,0.4268,0.0,0.0,0.0,0.0,0.8535,0.711,0.6855,0.6753,0.5379,0.5204,0.5816,0.7749,0.9428,1.0592,1.0541,1.0588,1.066,1.0711,1.0721,1.0721,1.0721,1.0721,1.0721,0.0,0.0,0.0,0.0,0.0,0.0,0.0,0.0,0.0,0.0,0.0,0.0,0.0,0.0,0.0,1.5789,1.7532,1.9285,2.1039,2.1109,2.1109,2.1109,2.1109,2.1109,2.1109,2.1109,2.1109,2.1109,2.1109,2.1109,2.1109,2.1109,2.1109,2.1109,2.1109,2.1109,2.1109,2.1109,2.1109,2.1109,2.1109,2.1109,2.1109,0.0,0.0,0.0,0.0,0.0,0.0,0.0,0.0,0.0,0.0,-0.309,-0.2212,0.0,0.0,0.0,0.0,0.0,0.0,0.0,0.0,0.0,0.0,0.0,0.0,0.0,0.0,0.0,0.0,0.0,0.0,0.0,0.0,0.0,0.0,0.0,0.0,0.0,0.0,0.0,0.0,0.0,0.0,0.0,0.0,0.0706,0.1712,0.1712,0.2715,0.4166,0.5322,0.5979,0.0,0.0,0.0,0.8533,0.8279,0.7523,0.6698,0.6462,0.6738,0.7582,0.9632,1.0122,1.0172,1.0605,1.0507,1.0412,0.0,1.0721,1.0721,1.0721,1.0721,0.0,0.0,0.0,0.0,0.0,0.0,0.0,0.0,0.0,0.0,0.0,0.0,0.0,0.0,0.0,0.0,1.5789,1.7532,1.9285,2.1039,2.1109,2.1109,2.1109,2.1109,2.1109,2.1109,2.1109,2.1109,2.1109,2.1109,2.1109,2.1109,2.1109,2.1109,2.1109,2.1109,2.1109,2.1109,2.1109,2.1109,2.1109,2.1109,2.1109,2.1109,0.0,0.0,0.0,0.0,0.0,0.0,0.0,0.0,0.0,0.0,0.0,-0.0862,0.0,0.0,0.0,0.0,0.0,0.0,0.0,0.0,0.0,0.0,0.0,0.0,0.0,0.0,0.0,0.0,0.0,0.0,0.0,0.0,0.0,0.0,0.0,0.0,0.0,0.0,0.0,0.0,0.0,0.0,0.0,0.0,0.0871,0.2098,0.212,0.3524,0.5478,0.5986,0.6684,0.7386,0.7865,0.0,0.0,0.0,0.8237,0.7992,0.834,0.8555,0.8937,1.0285,1.0331,1.0105,1.0619,1.0555,1.046,1.0677,1.0721,1.0721,1.0721,0.0,0.0,0.0,0.0,0.0,0.0,0.0,0.0,0.0,0.0,0.0,0.0,0.0,0.0,0.0,0.0,1.5074,1.5848,1.8506,2.0329,2.1109,2.1109,2.1109,2.1109,2.1109,2.1109,2.1109,2.1109,2.1109,2.1109,2.1109,2.1109,2.1109,2.1109,2.1109,2.1109,2.1109,2.1109,2.1109,2.1109,2.1109,2.1109,2.1109,2.1109,2.1109,0.0,0.0,0.0,0.0,0.0,0.0,0.0,0.0,0.0,0.0,0.0,0.0,0.0,0.0,0.0,0.0,0.0,0.0,0.0,0.0,0.0,0.0,0.0,0.0,0.0,0.0,0.0,0.0,0.0,0.0,0.0,0.0,0.0,0.0,0.0,0.0,0.0,0.0,0.0,0.0,0.0,0.0,0.0,0.0,0.0881,0.2178,0.2587,0.4285,0.6412,0.6687,0.7463,0.8194,0.8025,0.8218,0.0,0.0,0.0,0.8996,0.9568,0.9632,0.9713,1.0382,1.0179,0.9994,1.0504,0.0,1.0432,0.0,1.0694,1.0721,1.0721,0.0,0.0,0.0,0.0,0.0,0.0,0.0,0.0,0.0,0.0,0.0,0.0,0.0,0.0,0.0,0.0,1.5913,1.5913,1.9221,2.1109,2.1109,2.1109,2.1109,2.1109,2.1109,2.1109,2.1109,2.1109,2.1109,2.1109,2.1109,2.1109,2.1109,2.1109,2.1109,2.1109,2.1109,2.1109,2.1109,2.1109,2.1109,2.1109,2.1109,2.1109,2.1109,0.0,0.0,0.0,0.0,0.0,0.0,0.0,0.0,0.0,0.0,0.0,0.0,0.0,0.0,0.0,0.0,0.0,0.0,0.0,0.0,0.0,0.0,0.0,0.0,0.0,0.0,0.0,0.0,0.0,0.0,0.0,0.0,0.0,0.0,0.0,0.0,0.0,0.0,0.0,0.0,0.0,0.0,0.0,0.0,0.0829,0.2178,0.3585,0.4932,0.6259,0.7702,0.812,0.8002,0.7992,0.815,0.8357,0.0,0.0,0.0,0.932,0.9398,0.9503,0.9906,0.9856,0.9751,1.0202,0.0,1.0217,1.0446,1.0619,1.0721,0.0,0.0,0.0,0.0,0.0,0.0,0.0,0.0,0.0,0.0,0.0,0.0,0.0,0.0,0.0,0.0,0.0,1.5913,1.5913,1.9221,2.1109,2.1109,2.1109,2.1109,2.1109,2.1109,2.1109,2.1109,2.1109,2.1109,2.1109,2.1109,2.1109,2.1109,2.1109,2.1109,2.1109,2.1109,2.1109,2.1109,2.1109,2.1109,2.1109,2.1109,2.1109,2.1109,0.0,0.0,0.0,0.0,0.0,0.0,0.0,0.0,0.0,0.0,0.0,0.0,0.0,0.0,0.0,0.0,0.0,0.0,0.0,0.0,0.0,0.0,0.0,0.0,0.0,0.0,0.0,0.0,0.0,0.0,0.0,0.0,0.0,0.0,0.0,0.0,0.0,0.0,0.0,0.0,0.0,0.0,0.0103,0.1074,0.241,0.403,0.5328,0.6811,0.8211,0.8488,0.8516,0.8438,0.8248,0.8289,0.8418,0.8469,0.856,0.8733,0.9183,0.9096,0.9103,0.9744,0.9683,0.9581,1.0029,1.0168,1.0292,1.0334,1.0551,0.0,0.0,0.0,0.0,0.0,0.0,0.0,0.0,0.0,0.0,0.0,0.0,0.0,0.0,0.0,0.0,0.0,0.0,0.0,1.5843,1.8088,1.9877,2.1039,2.1109,2.1109,2.1109,2.1109,2.1109,2.1109,2.1109,2.1109,2.1109,2.1109,2.1109,2.1109,2.1109,2.1109,2.1109,2.1109,2.1109,2.1109,2.1109,2.1109,2.1089,2.0902,2.0828,2.0808,0.0,0.0,0.0,0.0,0.0,0.0,0.0,0.0,0.0,0.0,0.0,0.0,0.0,0.0,0.0,0.0,0.0,0.0,0.0,0.0,0.0,0.0,0.0,0.0,0.0,0.0,0.0,0.0,0.0,0.0,0.0,0.0,0.0,0.0,0.0,0.0,0.0,0.0,0.0338,0.0862,0.0221,0.0715,0.1845,0.2231,0.3403,0.5095,0.6505,0.7697,0.8631,0.8907,0.891,0.8754,0.8557,0.8489,0.8482,0.8482,0.8482,0.8547,0.89,0.8784,0.8764,0.931,0.93,0.9273,0.9724,0.9981,1.0154,1.0259,1.0514,0.0,0.0,0.0,0.0,0.0,0.0,0.0,0.0,0.0,0.0,0.0,0.0,0.0,0.0,0.0,0.0,0.0,0.0,0.0,1.5673,1.7317,1.9093,2.0893,2.1056,2.1109,2.1109,2.1109,2.1109,2.1109,2.1109,2.1109,2.1109,2.1109,2.1109,2.1109,2.1109,2.1109,2.1109,2.1109,2.1049,2.0962,2.0962,2.0902,2.0795,2.0595,2.0528,2.0501,0.0,0.0,0.0,0.0,0.0,0.0,0.0,0.0,0.0,0.0,0.0,0.0,0.0,0.0,0.0,0.0,0.0,0.0,0.0,0.0,0.0,0.0,0.0,0.0,0.0,0.0,0.0,0.0,0.0,0.0,0.0,0.0,0.0,0.0,0.0054,0.0056,0.0059,0.0059,0.1066,0.251,0.0815,0.2259,0.5195,0.3463,0.3729,0.5186,0.7003,0.739,0.7252,0.9039,0.932,0.8895,0.8881,0.8723,0.8476,0.8476,0.8472,0.8469,0.0,0.0,0.0,0.8665,0.8706,0.0,0.9262,0.0,0.9893,1.0192,1.049,0.0,0.0,0.0,0.0,0.0,0.0,0.0,0.0,0.0,0.0,0.0,0.0,0.0,0.0,0.0,0.0,0.0,0.0,1.3864,1.5336,1.7102,1.8882,2.06,2.0949,2.1096,2.1096,2.1109,2.1109,2.1109,2.1109,2.1109,2.1109,2.1102,2.1096,2.1096,2.1089,2.1082,2.1082,2.1089,2.0922,2.0661,2.0661,2.0488,2.0173,2.016,2.0221,2.0221,0.0,0.0,0.0,0.0,0.0,0.0,0.0,0.0,0.0,0.0,0.0,0.0,0.0,0.0,0.0,0.0,0.0,0.0,0.0,0.0,0.0,0.0,0.0,0.0,0.0,0.0,0.0,0.0,0.0,0.0,0.0,0.0,0.0,0.005,0.1037,0.1441,0.1482,0.1706,0.2027,0.2397,0.3323,0.413,0.4873,0.586,0.6357,0.6725,0.8546,0.9131,0.9102,0.955,0.9537,0.9201,0.8876,0.857,0.8381,0.8381,0.8252,0.8187,0.8299,0.0,0.0,0.0,0.0,0.0,0.0,0.0,0.9527,0.9612,0.0,0.0,0.0,0.0,0.0,0.0,0.0,0.0,0.0,0.0,0.0,0.0,0.0,0.0,0.0,0.0,0.0,0.0,1.0799,1.17,1.3537,1.6412,1.8662,2.0293,2.0641,2.0795,2.0795,2.1002,2.1109,2.1109,2.1109,2.1109,2.1102,2.0895,2.0795,2.0782,2.0568,2.0474,2.0494,2.0708,2.0621,2.0354,2.0354,2.0307,2.0207,2.0,1.992,1.9887,0.0,0.0,0.0,0.0,0.0,0.0,0.0,0.048,0.0638,0.0,0.0,0.0,0.0051,0.0508,0.0857,0.0857,0.136,0.1661,0.1661,0.1644,0.1692,0.166,0.1147,0.0847,0.0857,0.0297,0.0,0.0,0.0,0.0,0.0,0.0,0.0292,0.0893,0.1659,0.2298,0.2914,0.3783,0.425,0.4428,0.4864,0.5841,0.7132,0.7617,0.8045,0.8566,0.9771,1.0117,1.0032,1.0154,0.9914,0.9517,0.9256,0.8798,0.8384,0.8513,0.8309,0.8008,0.815,0.8174,0.8194,0.8275,0.0,0.0,0.8669,0.9008,0.934,0.0,0.0,0.0,0.0,0.0,0.0,0.0,0.0,0.0,0.0,0.0,0.0,0.0,0.0,0.0,0.0,0.0,0.0,1.0405,1.0243,1.1143,1.3575,1.6219,1.844,1.9987,2.0341,2.0494,2.0494,2.0655,2.0742,2.0742,2.0742,2.0742,2.0735,2.0568,2.0494,2.0481,2.0307,2.0167,2.0067,2.0241,2.0207,2.0054,2.0054,1.9973,1.9853,1.9679,1.9619,1.9593,0.0,0.0,0.0,0.0,0.0,0.0,0.0,0.1481,0.1787,0.0,0.1497,0.1743,0.0556,0.1511,0.2213,0.2213,0.3316,0.4016,0.4016,0.4016,0.4016,0.4016,0.2864,0.2213,0.2213,0.1041,0.0,0.0,0.0,0.0,0.0,0.0,0.0,0.2205,0.0,0.3103,0.4323,0.5991,0.7056,0.7464,0.6032,0.7518,1.0402,0.8901,0.9127,1.0273,1.0602,1.0531,1.0321,1.0582,1.0314,0.9859,0.9791,0.9211,0.8601,0.8821,0.8447,0.8012,0.7995,0.7988,0.7988,0.7988,0.7988,0.0,0.8543,0.8855,0.9228,0.0,0.0,0.0,0.0,0.0,0.0,0.0,0.0,0.0,0.0,0.0,0.0,0.0,0.0,0.0,0.0,1.0263,1.0256,1.0256,1.0239,1.1592,1.465,1.6276,1.7918,1.9694,2.0034,2.0187,2.0187,2.0221,2.0173,2.0173,2.0173,2.0173,2.0173,2.0201,2.0187,2.012,2.0147,1.9993,1.9753,1.9753,1.9753,1.9753,1.9753,1.9593,1.9424,1.9424,1.9424,1.9424,0.0,0.0,0.0,0.0,0.0,0.0,0.0,0.3452,0.3498,0.3234,0.3435,0.353,0.3267,0.3465,0.3615,0.3615,0.3865,0.4016,0.4016,0.4016,0.4016,0.4016,0.3765,0.3615,0.3615,0.3353,0.0,0.0,0.0,0.0,0.0,0.0,0.0,0.3635,0.462,0.5252,0.5734,0.7277,0.8219,0.8634,0.8756,0.931,0.998,1.0142,1.0075,0.9981,1.0524,1.0531,1.029,1.0348,1.0287,1.0107,0.9622,0.9262,0.9016,0.8659,0.8408,0.8197,0.8022,0.7988,0.7988,0.7988,0.7988,0.0,0.8099,0.8313,0.8552,0.0,0.8889,0.0,0.0,0.0,0.0,0.0,0.0,0.0,0.0,0.0,0.0,0.0,0.0,0.0,0.0,1.0168,1.0031,1.0031,0.9978,1.1286,1.4486,1.4963,1.6453,1.9394,1.9733,1.9887,1.9887,2.0114,2.0173,2.0173,2.0173,2.0173,2.0167,1.9993,1.9887,1.9873,1.9639,1.9506,1.9511,1.9511,1.9511,1.9511,1.9511,1.9477,1.9424,1.9424,1.9424,1.9424,0.2013,0.2514,0.0,0.0,0.0,0.0,0.0,0.0,0.477,0.4066,0.4016,0.4016,0.4016,0.4618,0.502,0.502,0.5622,0.5972,0.5972,0.5972,0.5972,0.5972,0.537,0.502,0.502,0.4368,0.4016,0.0,0.0,0.0,0.0,0.0,0.0,0.5004,0.564,0.6314,0.7042,0.7947,0.853,0.8935,0.9581,0.9914,1.01,1.0548,1.0534,1.031,1.0612,1.0626,1.0477,1.0331,1.028,1.0229,0.9924,0.9576,0.9149,0.8798,0.8503,0.8238,0.8032,0.7988,0.7988,0.7988,0.7988,0.0,0.0,0.8269,0.8418,0.8567,0.8716,0.8845,0.892,0.0,0.0,0.0,0.0,0.0,0.0,0.0,0.0,0.0,0.0,0.0,0.0,0.9981,0.9872,0.9872,1.0587,1.2037,1.4485,1.537,1.6915,1.9307,1.9506,1.9586,1.9586,1.9726,1.98,1.98,1.98,1.98,1.98,1.9653,1.9586,1.9579,1.9432,1.9424,1.9424,1.9424,1.9424,1.9424,1.9424,1.9424,1.9424,1.9424,1.9424,1.9424,0.4116,0.4216,0.0,0.0,0.0,0.0,0.0,0.0,0.5977,0.4918,0.4768,0.478,0.4865,0.5818,0.6483,0.6532,0.7503,0.8093,0.8039,0.8059,0.8049,0.7992,0.6983,0.6381,0.6381,0.532,0.4768,0.0,0.0,0.0,0.0,0.0,0.0,0.6379,0.6357,0.6986,0.8086,0.8289,0.8615,0.9076,0.9669,1.0022,1.0232,1.0585,1.0683,1.0643,1.07,1.0721,1.0673,1.0382,1.028,1.027,1.0212,0.9734,0.9221,0.8991,0.8642,0.8272,0.8039,0.7988,0.7988,0.7988,0.7988,0.8022,0.0,0.0,0.0,0.0,0.0,0.0,0.0,0.0,0.0,0.0,0.0,0.0,0.0,0.0,0.0,0.0,0.0,0.0,0.0,0.9764,0.9791,0.9819,1.102,1.2573,1.4485,1.5843,1.7449,1.9366,1.9424,1.9424,1.9424,1.9424,1.9424,1.9424,1.9424,1.9424,1.9424,1.9424,1.9424,1.9424,1.9424,1.9424,1.9424,1.9424,1.9424,1.9424,1.9424,1.9424,1.9424,1.9424,1.9424,1.9424,0.4466,0.497,0.5777,0.0,0.0,0.0,0.0,0.0,0.7736,0.7584,0.7534,0.768,0.7978,0.8007,0.814,0.8395,0.8528,0.8523,0.8262,0.836,0.8313,0.8002,0.7839,0.7786,0.7786,0.7637,0.7534,0.0,0.0,0.0,0.0,0.0,0.0,0.7783,0.7651,0.7909,0.8442,0.8594,0.892,0.9384,0.9985,1.0086,0.0,1.0504,1.0558,1.0365,1.0626,1.0721,1.0673,0.0,1.028,1.0232,0.0,0.9635,0.93,0.9022,0.0,0.0,0.0,0.0,0.0,0.0,0.7988,0.7995,0.0,0.0,0.8046,0.8062,0.0,0.0,0.0,0.0,0.0,0.0,0.0,0.0,0.0,0.0,0.0,0.0,0.0,0.0,0.0,0.0,0.9686,0.9812,0.994,1.1378,1.4426,1.4782,1.6267,1.9307,1.9424,1.9424,1.9424,1.9424,1.9424,1.9424,1.9424,1.9424,1.9424,1.9424,1.9424,1.9424,1.9424,1.9424,1.9424,1.9424,1.9424,1.9424,1.9424,1.9424,1.9424,1.9424,1.9424,1.9424,0.6526,0.6778,0.7182,0.7182,0.0,0.0,0.0,0.0,0.7988,0.7988,0.7988,0.8153,0.8448,0.8428,0.8516,0.8815,0.8842,0.8791,0.8665,0.8547,0.8428,0.8303,0.8083,0.7988,0.7988,0.7988,0.7988,0.7988,0.7988,0.0,0.0,0.0,0.0,0.0,0.7924,0.8143,0.8499,0.874,0.9052,0.0,0.0,0.9937,0.0,1.049,1.0643,1.0531,1.0483,1.0575,1.0649,0.0,1.0246,0.0,0.0,0.0,0.0,0.9388,0.0,0.0,0.0,0.0,0.0,0.0,0.0,0.0,0.8296,0.0,0.7988,0.0,0.0,0.0,0.0,0.0,0.0,0.0,0.857,0.0,0.0,0.0,0.0,0.0,0.0,0.0,0.0,0.0,0.0,0.0,0.0,1.3049,1.4407,1.6306,1.7994,1.9366,1.9424,1.9424,1.9424,1.9424,1.9424,1.9424,1.9424,1.9424,1.9424,1.9424,1.9424,1.9424,1.9424,1.9424,1.9424,1.9424,1.9424,1.9424,1.9424,1.9424,1.9424,1.9424,1.9424,1.9424,0.7988,0.7988,0.7988,0.7988,0.0,0.0,0.0,0.0,0.816,0.816,0.8147,0.8336,0.8635,0.8594,0.8686,0.9028,0.9062,0.9042,0.8998,0.8754,0.8608,0.8608,0.8241,0.8029,0.816,0.8032,0.7988,0.0,0.0,0.0,0.0,0.0,0.0,0.0,0.7988,0.8204,0.8506,0.8896,0.9232,0.9534,0.9914,1.0066,1.0107,1.0463,1.0649,1.069,1.0477,1.0538,1.0639,1.012,1.0236,0.0,1.0086,0.0,0.9802,0.0,0.0,0.0,0.8764,0.0,0.0,0.0,0.0,0.0,0.0,0.0,0.0,0.0,0.0,0.0,0.0,0.0,0.0,0.0,0.0,0.8733,0.0,0.0,0.0,0.0,0.0,0.0,0.0,0.0,0.0,0.954,1.2143,1.3917,1.4381,1.7187,1.8946,1.9366,1.9424,1.9424,1.9424,1.9424,1.9424,1.9424,1.9424,1.9424,1.9424,1.9424,1.9424,1.9424,1.9424,1.9424,1.9424,1.9424,1.9424,1.9424,1.9424,1.9424,1.9424,1.9424,1.9424,1.9424,0.7988,0.7988,0.7988,0.7988,0.7988,0.0,0.0,0.0,0.8469,0.8469,0.8598,0.8801,0.9156,0.8876,0.8882,0.9327,0.9367,0.9303,0.9214,0.9008,0.8868,0.8868,0.8302,0.8174,0.8462,0.8187,0.7988,0.0,0.0,0.0,0.0,0.0,0.0,0.0,0.7988,0.8204,0.852,0.9117,0.9537,0.9859,1.0453,1.069,1.0663,0.0,1.0473,1.0717,1.0711,0.0,0.0,1.0368,1.028,0.0,0.0,0.0,0.0,0.0,0.0,0.0,0.0,0.0,0.0,1.0479,0.0,0.0,0.0,0.0,0.9948,0.0,0.0,0.0,0.0,0.0,0.0,0.0,0.0,0.0,0.0,0.0,0.0,0.0,0.0,0.0,0.0,0.0,0.0,0.9388,1.1082,1.275,1.4323,1.6121,1.7806,1.9366,1.9424,1.9424,1.9424,1.9424,1.9424,1.9424,1.9424,1.9424,1.9424,1.9424,1.9424,1.9424,1.9424,1.9424,1.9424,1.9424,1.9424,1.9424,1.9424,1.9424,1.9424,1.9424,1.9424,1.9424,0.8029,0.7988,0.7988,0.7988,0.7988,0.7988,0.7988,0.8073,0.8258,0.8455,0.8526,0.875,0.9249,0.9215,0.9256,0.951,0.9618,0.9608,0.9462,0.9317,0.9232,0.9232,0.8849,0.8587,0.8482,0.8384,0.8235,0.7988,0.0,0.0,0.0,0.0,0.0,0.0,0.0,0.8204,0.852,0.9127,0.9551,0.0,0.0,1.0429,1.0439,0.0,0.0,1.0721,1.0721,1.1439,0.0,1.2083,1.294,1.3988,1.3793,1.3678,1.3592,1.3595,1.3135,0.0,0.0,0.0,1.3102,1.2906,0.0,0.0,0.0,0.0,0.0,0.0,0.0,0.0,0.0,0.0,0.0,0.0,0.0,0.0,0.0,0.0,0.0,0.0,0.0,0.0,0.0,0.0,0.0,0.9279,1.1641,1.3365,0.0,1.6657,1.8486,1.9072,1.9265,1.9424,1.9424,1.9424,1.9424,1.9424,1.9424,1.9424,1.9424,1.9424,1.9424,1.9424,1.9424,1.9424,1.9424,1.9424,1.9424,1.9424,1.9424,1.9424,1.9424,1.9424,1.9424,1.9424,0.8049,0.7988,0.7988,0.7988,0.7988,0.8025,0.818,0.8241,0.8404,0.8754,0.8801,0.8971,0.9415,0.9415,0.9442,0.9595,0.9642,0.9693,0.9761,0.9425,0.934,0.9608,0.913,0.8842,0.8801,0.8591,0.8442,0.8305,0.0,0.8046,0.0,0.0,0.0,0.0,0.0,0.8096,0.837,0.9083,0.949,0.0,0.0,1.0721,0.0,0.0,1.1534,1.1699,0.0,1.3259,1.4191,1.4002,1.4854,1.5868,1.5712,1.562,1.5615,1.5474,1.5085,1.4695,1.4509,1.4798,0.0,1.4875,1.5,0.0,1.4869,0.0,0.0,0.0,0.0,0.0,0.0,0.0,0.0,0.0,0.0,0.0,0.0,0.8885,0.0,0.0,0.0,0.9032,0.0,0.0,0.9032,0.9076,1.1946,1.3704,0.0,0.0,1.8925,1.8925,1.9212,1.9424,1.9424,1.9424,1.9424,1.9424,1.9424,1.9424,1.9424,1.9424,1.9424,1.9424,1.9424,1.9424,1.9424,1.9424,1.9424,1.9424,1.9424,1.9424,1.9424,1.9424,1.9424,1.9424,0.8246,0.8137,0.8088,0.7988,0.8002,0.8157,0.8438,0.8618,0.8879,0.9313,0.9374,0.9442,0.9602,0.9496,0.9469,0.9608,0.9486,0.9581,0.9936,0.9306,0.9232,0.9947,0.9222,0.896,0.9371,0.8821,0.8662,0.8885,0.0,0.0,0.0,0.0,0.0,0.0,0.8187,0.0,0.8146,0.9109,0.9514,0.959,1.0153,1.1577,1.3387,1.3223,1.3319,1.3779,1.5329,1.5983,1.6048,1.6048,1.6108,1.6172,1.6172,1.6172,1.6085,1.5633,1.5561,1.5463,1.496,1.5961,1.6967,1.6413,0.0,0.0,0.0,0.0,1.5274,0.0,0.0,0.0,0.0,0.0,0.0,0.0,0.0,0.0,0.0,0.0,0.9099,0.0,0.0,0.9198,0.895,0.9062,0.9142,0.9002,1.1926,1.3749,0.0,0.0,1.8891,1.8925,1.9165,1.9325,1.9424,1.9397,1.9397,1.9424,1.9424,1.9424,1.9424,1.9424,1.9424,1.9424,1.9424,1.9424,1.9424,1.9424,1.9424,1.9424,1.9424,1.9424,1.9424,1.9424,1.9424,1.9424,1.0757,1.0145,0.9167,0.8187,0.8221,0.8394,0.8469,0.871,0.896,0.9238,0.931,0.9479,0.9737,0.9832,0.9846,0.9774,0.973,0.971,0.9724,0.9544,0.9571,0.9866,0.9659,0.949,0.9384,0.9228,0.9079,0.8885,0.8554,0.0,0.8528,0.0,0.0,0.0,0.0,1.0386,0.9528,1.0426,1.1102,1.1626,1.1784,1.2943,0.0,0.0,1.6926,1.7082,1.6172,1.6759,1.7859,1.7859,1.8704,1.9744,1.9744,1.9744,1.9637,1.908,1.8918,1.8805,1.8319,1.8467,1.8726,1.8583,1.8522,1.845,0.0,0.0,0.0,0.0,0.0,0.0,0.0,0.0,0.0,0.0,0.0,0.0,0.0,0.0,0.0,1.2186,0.0,1.0177,0.8995,0.8974,0.9414,1.046,1.2346,1.3967,0.0,0.0,0.0,1.8911,1.8571,1.8704,1.9417,1.8931,1.8938,1.9424,1.9424,1.9424,1.9424,1.9424,1.9424,1.9424,1.9424,1.9424,1.9424,1.9424,1.9424,1.9424,1.9424,1.9424,1.9424,1.9424,1.9424,1.9424,1.184,1.1312,1.0583,0.985,0.9618,0.9365,0.8786,0.8937,0.0,0.9507,0.9561,0.0,0.9988,1.0039,0.998,1.0025,0.9842,0.9778,0.9897,0.9595,0.9561,0.9845,0.9798,0.9622,0.9388,0.9381,0.93,0.913,0.928,0.0,0.9564,0.0,0.0,0.0,0.0,1.1507,1.0905,1.2005,1.2858,1.3559,1.3698,0.0,0.0,1.7707,1.8758,1.9483,1.8506,1.8832,1.961,1.961,2.0265,2.1109,2.1109,2.1109,2.0995,2.0408,2.0173,2.0107,1.9526,1.9424,1.9424,1.9424,1.9118,1.8871,1.8871,1.8611,1.801,0.0,0.0,0.0,0.0,0.0,0.0,0.0,0.0,0.0,0.0,0.0,0.0,0.0,1.2643,1.1845,1.0899,1.0241,1.0186,1.1055,1.291,0.0,0.0,0.0,0.0,1.8475,1.8408,1.8611,1.8978,1.8657,1.8718,1.9172,1.9172,1.9239,1.9424,1.9424,1.9424,1.9424,1.9424,1.9424,1.9424,1.9424,1.9424,1.9424,1.9424,1.9424,1.9424,1.9424,1.9424,1.9424,1.2227,1.2139,1.2106,1.2021,1.1397,0.0,0.0,0.9363,0.0,0.9883,0.0,0.9924,1.0192,1.0117,1.0041,1.0239,0.9873,0.9805,1.0195,0.9647,0.9452,0.9933,0.9774,0.9574,0.9442,0.9439,0.9555,0.9785,0.0,0.0,0.0,0.0,0.0,0.0,0.0,0.0,0.0,1.343,1.4445,1.538,1.5696,1.7002,1.8689,1.8561,1.9586,2.1109,2.1109,2.1109,2.1109,2.1109,2.1109,2.1109,2.1109,2.1109,2.0995,2.0408,2.0173,2.0107,1.9526,1.9424,1.9424,1.9424,1.9424,1.9424,1.9424,1.9424,1.9004,1.7624,1.7325,1.678,0.0,0.0,0.0,0.0,0.0,0.0,0.0,0.0,1.4171,1.3884,0.0,0.0,1.3567,1.2226,1.1483,1.1647,1.3747,0.0,0.0,0.0,0.0,1.8049,1.8524,0.0,1.8551,0.0,1.8617,1.8985,1.8945,1.9078,1.9424,1.9424,1.9424,1.9424,1.9424,1.9424,1.9424,1.9424,1.9424,1.9424,1.9424,1.9424,1.9424,1.9424,1.9424,1.9424,1.3633,1.3542,1.3376,1.2729,1.1574,1.0875,1.1219,1.0428,0.973,0.9693,0.9764,0.9842,0.9897,0.9926,0.9997,1.0024,0.9903,0.0,0.0,0.0,0.0,0.9849,0.9812,0.9771,0.9744,0.9744,1.0399,0.0,0.0,0.0,0.0,0.0,0.0,0.0,0.0,0.0,1.513,1.4037,0.0,1.7184,1.7497,1.8551,1.9924,2.0427,2.0763,2.1109,2.1109,2.1109,2.1109,2.1109,2.1109,2.1109,2.1109,2.1109,2.0995,2.0408,2.0173,2.0107,1.9526,1.9424,1.9424,1.9424,1.9424,1.9424,1.9424,1.9424,1.9307,1.9062,1.9004,1.8506,1.685,0.0,0.0,0.0,0.0,0.0,0.0,0.0,0.0,0.0,0.0,1.5292,0.0,1.364,1.3372,1.4556,0.0,0.0,0.0,0.0,0.0,0.0,0.0,0.0,0.0,0.0,1.8517,1.9285,1.9038,1.9078,1.9424,1.9424,1.9424,1.9424,1.9424,1.9424,1.9424,1.9424,1.9424,1.9424,1.9424,1.9424,1.9424,1.9424,1.9424,1.9424,1.543,1.5097,1.4588,1.3635,1.2544,0.0,0.0,1.0517,0.9825,0.9836,0.9835,0.9971,1.0049,0.999,1.0017,1.0161,0.9954,0.9852,0.9872,0.9734,0.9673,0.9815,0.9822,0.9747,0.9595,0.9744,1.0519,1.1988,0.0,0.0,0.0,0.0,0.0,0.0,0.0,1.6457,0.0,0.0,0.0,1.901,1.9491,2.0054,2.0722,2.1002,2.1109,2.1109,2.1109,2.1109,2.1109,2.1109,2.1109,2.1109,2.1109,2.1002,2.0795,2.0361,2.0127,1.9913,1.9486,1.9424,1.9424,1.9424,1.9424,1.9424,1.9424,1.9424,1.9424,1.9424,1.9424,1.9138,1.8154,1.7729,0.0,0.0,0.0,0.0,0.0,0.0,1.7935,0.0,0.0,0.0,0.0,0.0,0.0,0.0,0.0,0.0,0.0,0.0,0.0,0.0,0.0,0.0,0.0,0.0,0.0,1.9132,1.8991,1.9078,1.9424,1.9424,1.9424,1.9424,1.9424,1.9424,1.9424,1.9424,1.9424,1.9424,1.9424,1.9424,1.9424,1.9424,1.9424,1.9424,1.6424,1.6011,1.5312,1.4213,1.344,1.2729,1.1964,1.1259,1.0607,1.0043,0.9936,1.0049,1.0168,1.0073,1.0039,1.0131,0.9944,0.9846,0.9842,0.9747,0.981,1.0247,1.0283,1.0363,1.0522,1.0707,1.1478,0.0,0.0,0.0,0.0,0.0,0.0,0.0,0.0,0.0,0.0,0.0,1.974,2.0374,2.0895,2.1109,2.1109,2.1109,2.1109,2.1109,2.1109,2.1109,2.1109,2.1109,2.1109,2.1109,2.1109,2.0909,2.0615,2.0321,2.0027,1.9733,1.9446,1.9424,1.9424,1.9424,1.9424,1.9424,1.9424,1.9424,1.9424,1.9424,1.9424,1.9299,1.9058,1.8965,0.0,0.0,0.0,0.0,0.0,0.0,0.0,0.0,0.0,0.0,1.7976,0.0,0.0,0.0,0.0,0.0,0.0,0.0,0.0,0.0,0.0,1.8397,1.8397,0.0,1.8671,0.0,1.8951,1.9078,1.9424,1.9424,1.9424,1.9424,1.9424,1.9424,1.9424,1.9424,1.9424,1.9424,1.9424,1.9424,1.9424,1.9424,1.9424,1.9424,0.0,1.5264,0.0,0.0,0.0,0.0,1.4177,1.4094,1.2967,1.0183,0.9842,0.9846,0.9863,0.9849,0.9795,0.9683,0.9764,0.9713,0.9459,0.9669,1.0399,1.1728,1.1885,1.2675,1.4069,1.4163,1.4935,0.0,0.0,0.0,0.0,0.0,0.0,0.0,0.0,0.0,0.0,1.9205,1.986,2.0661,2.0982,2.1109,2.1109,2.1109,2.1109,2.1109,2.1109,2.1109,2.1109,2.1109,2.1109,2.1109,2.1109,2.0909,2.0615,2.0321,2.0027,1.9733,1.9446,1.9424,1.9424,1.9424,1.9424,1.9424,1.9424,1.9424,1.9424,1.9424,1.9424,1.9417,1.939,1.9105,1.8831,0.0,0.0,0.0,0.0,0.0,1.7995,1.7995,0.0,0.0,0.0,1.7414,0.0,0.0,0.0,0.0,0.0,0.0,0.0,1.7615,0.0,1.8035,1.8035,1.8357,0.0,1.9325,1.9052,1.9078,1.9424,1.9424,1.9424,1.9424,1.9424,1.9424,1.9424,1.9424,1.9424,1.9424,1.9424,1.9424,1.9424,1.9424,1.9424,1.9424,0.0,0.0,0.0,0.0,0.0,0.0,0.0,1.4496,1.4084,1.2859,1.2693,1.2333,1.1378,1.2093,1.2247,1.1228,1.2115,1.2627,1.2532,1.261,1.2952,1.3523,1.3603,1.3944,1.4604,1.4604,1.537,0.0,0.0,0.0,0.0,0.0,0.0,0.0,0.0,1.8424,1.8965,1.9613,2.0194,2.0702,2.0995,2.1109,2.1109,2.1109,2.1109,2.1109,2.1109,2.1109,2.1109,2.1109,2.1109,2.1082,2.0902,2.0648,2.0354,2.006,1.9766,1.9512,1.9457,1.9424,1.9424,1.9424,1.9424,1.9424,1.9424,1.9424,1.9424,1.9424,1.9424,1.9424,1.9424,1.9272,1.9092,0.0,0.0,0.0,0.0,0.0,0.0,1.8495,0.0,1.833,0.0,0.0,0.0,0.0,0.0,0.0,0.0,0.0,0.0,1.8116,0.0,1.8484,1.8838,1.8778,1.8958,1.9424,1.9245,1.9252,1.9424,1.9424,1.9424,1.9424,1.9424,1.9424,1.9424,1.9424,1.9424,1.9424,1.9424,1.9424,1.9424,1.9424,1.9424,1.9424,1.8162,0.0,1.699,0.0,1.6016,1.6029,1.5027,1.5529,1.5976,1.5773,1.5878,1.5192,1.3108,1.3944,1.4158,1.2967,1.391,1.4543,1.4471,1.4528,1.4806,1.521,1.5274,0.0,1.6031,1.6031,1.6562,1.7683,1.6868,0.0,0.0,0.0,0.0,0.0,1.8484,1.8865,1.9098,1.9806,2.0274,2.0575,2.0862,2.1036,2.1109,2.1109,2.1109,2.1109,2.1109,2.1109,2.1109,2.1109,2.1049,2.0949,2.0742,2.0474,2.0174,1.9887,1.9593,1.9424,1.9424,1.9424,1.9424,1.9424,1.9424,1.9424,1.9424,1.9424,1.9424,1.9424,1.9424,1.9424,1.9424,1.9424,1.9272,1.8971,0.0,0.0,0.0,0.0,0.0,1.8771,1.8537,1.8477,1.8764,1.8063,0.0,0.0,0.0,0.0,0.0,0.0,0.0,0.0,0.0,0.0,0.0,1.8858,1.8991,1.9424,1.9424,1.9424,1.9424,1.9424,1.9424,1.9424,1.9424,1.9424,1.9424,1.9424,1.9424,1.9424,1.9424,1.9424,1.9424,1.9424,1.9424,1.9424,1.7319,1.7014,1.6474,1.4886,1.595,1.6785,1.6168,1.7932,1.9101,1.8522,1.8948,1.811,1.4901,1.4604,1.4513,1.4407,1.4532,1.4471,1.4127,1.441,1.5205,0.0,0.0,1.7741,1.9307,1.9366,1.9366,1.9366,0.0,0.0,1.8477,0.0,1.847,1.8504,1.9092,1.9417,1.9379,1.9679,1.9973,2.0261,2.0561,2.0855,2.1109,2.1109,2.1109,2.1109,2.1109,2.1109,2.1109,2.1109,2.0915,2.0681,2.0675,2.0474,2.0174,1.9887,1.9593,1.9424,1.9424,1.9424,1.9424,1.9424,1.9424,1.9424,1.9424,1.9424,1.9424,1.9424,1.9424,1.9424,1.9424,1.9424,1.9272,1.8971,0.0,0.0,0.0,0.0,0.0,1.8497,1.823,1.8115,1.847,1.7943,0.0,0.0,0.0,0.0,0.0,0.0,0.0,1.7582,1.7595,0.0,1.8002,1.835,1.8791,1.9424,1.9424,1.9424,1.9424,1.9424,1.9424,1.9424,1.9424,1.9424,1.9424,1.9424,1.9424,1.9424,1.9424,1.9424,1.9424,1.9424,1.9424,1.9424,1.7608,1.8044,1.8346,1.7446,1.8039,1.8584,1.8403,1.8943,1.9299,1.9112,1.931,1.901,1.7994,1.787,1.7418,0.0,1.6839,1.7407,0.0,1.7432,1.7622,1.8494,1.8223,1.8244,1.8771,1.8771,1.8771,1.8771,0.0,0.0,0.0,1.849,1.8704,1.9098,1.9285,1.9424,1.9444,1.9679,1.9967,2.0261,2.0561,2.0848,2.1109,2.1109,2.1109,2.1109,2.1109,2.1109,2.1109,2.1109,2.0915,2.0641,2.0434,2.0174,1.988,1.9593,1.9497,1.9424,1.9424,1.9424,1.9424,1.9424,1.9424,1.9424,1.9424,1.9424,1.9424,1.9424,1.9424,1.9424,1.9424,1.9424,1.9272,1.8971,1.9092,0.0,0.0,0.0,0.0,1.8784,1.8531,1.8464,0.0,1.843,0.0,0.0,0.0,0.0,0.0,0.0,0.0,0.0,1.8497,0.0,1.8945,1.8838,1.8978,1.9424,1.9424,1.9424,1.9424,1.9424,1.9424,1.9424,1.9424,1.9424,1.9424,1.9424,1.9424,1.9424,1.9424,1.9424,1.9424,1.9424,1.9424,1.9424,1.833,1.8851,1.931,1.8885,1.9125,1.9292,1.9072,1.9225,1.9343,1.9065,1.929,1.9424,1.9424,1.9424,0.0,1.7981,1.8498,1.8978,1.9403,1.9025,1.8985,1.9352,1.9018,1.8818,1.8818,0.0,0.0,1.8818,1.8818,1.8818,1.8818,1.8818,1.9018,1.9424,1.9424,1.9424,1.9437,1.9559,1.9867,2.0247,2.0434,2.0748,2.1109,2.1109,2.1109,2.1109,2.1109,2.1109,2.1109,2.1109,2.0842,2.0474,2.0294,1.996,1.9599,1.9419,1.9424,1.9424,1.9424,1.9424,1.9424,1.9424,1.9424,1.9424,1.9424,1.9424,1.9424,1.9424,1.9424,1.9424,1.9424,1.9424,1.9305,1.9118,1.9245,1.9299,1.9118,0.0,0.0,0.0,0.0,0.0,0.0,1.8764,0.0,0.0,0.0,0.0,0.0,0.0,0.0,1.8744,1.8764,0.0,1.9199,1.9018,1.9072,1.9424,1.9424,1.9424,1.9424,1.9424,1.9424,1.9424,1.9424,1.9424,1.9424,1.9424,1.9424,1.9424,1.9424,1.9424,1.9424,1.9424,1.9424,1.9424,1.931,1.937,0.0,0.0,1.9339,0.0,1.8637,1.9018,1.9229,1.8624,1.9025,1.9424,1.9424,1.9424,1.9424,1.9424,0.0,0.0,0.0,1.939,1.9383,1.9424,1.9383,1.9363,1.9363,1.9363,1.9383,1.9424,1.9424,1.9424,1.9424,1.9424,1.9424,1.9424,1.9424,1.9424,1.9424,1.9424,1.97,2.0173,2.0173,2.0581,2.1109,2.1109,2.1109,2.1109,2.1109,2.1109,2.1109,2.1109,2.0722,2.0173,2.0173,1.9833,1.9424,1.9424,1.9424,1.9424,1.9424,1.9424,1.9424,1.9424,1.9424,1.9424,1.9424,1.9424,1.9424,1.9424,1.9424,1.9424,1.9424,1.9424,1.9424,1.9424,1.9424,1.9417,1.9397,0.0,0.0,0.0,0.0,0.0,0.0,1.8945,1.8945,0.0,0.0,0.0,0.0,0.0,1.7943,1.8537,1.8551,1.8684,1.8951,1.8951,1.9092,1.9424,1.9424,1.9424,1.9424,1.9424,1.9424,1.9424,1.9424,1.9424,1.9424,1.9424,1.9424,1.9424,1.9424,1.9424,1.9424,1.9424,1.9424,1.9424,0.0,0.0,1.9225,1.8778,1.9065,1.9377,1.9178,1.9336,1.9377,1.9236,1.9336,1.9424,1.9424,1.9424,1.9424,1.9424,1.8958,1.8891,1.9397,1.8945,1.8898,1.941,1.8938,1.8698,1.8698,1.8698,1.8918,1.9424,1.9424,1.9424,1.9424,1.9424,1.9424,1.9424,1.9424,1.9424,1.9424,1.9424,1.97,2.0173,2.0173,2.0581,2.1109,2.1109,2.1109,2.1109,2.1109,2.1109,2.1109,2.1109,2.0722,2.0173,2.0173,1.9833,1.9424,1.9424,1.9424,1.9424,1.9424,1.9424,1.9424,1.9424,1.9424,1.9424,1.9424,1.9424,1.9424,1.9424,1.9424,1.9424,1.9424,1.9424,1.9424,1.9424,1.9424,1.9292,1.9058,1.8965,0.0,0.0,1.8731,1.8844,1.8918,1.9132,1.9165,0.0,0.0,0.0,0.0,1.8718,1.8778,1.9145,1.9216,1.9192,1.9259,1.9265,1.9299,1.9424,1.9424,1.9424,1.9424,1.9424,1.9424,1.9424,1.9424,1.9424,1.9424,1.9424,1.9424,1.9424,1.9424,1.9424,1.9424,1.9424,1.9424,1.9424,1.8464,1.8925,1.9323,1.8945,1.9158,1.9424,1.9424,1.9424,1.9424,1.9424,1.9424,1.9424,1.9424,1.9424,1.9424,1.9424,1.9078,1.9025,1.9403,1.9065,1.9038,1.941,1.9115,1.8891,1.8891,1.8891,1.9052,1.9424,1.9424,1.9424,1.9424,1.9424,1.9424,1.9424,1.9424,1.9497,1.9566,1.9566,1.99,2.0434,2.0434,2.0708,2.1109,2.1109,2.1109,2.1109,2.1109,2.1109,2.1109,2.1109,2.0808,2.0408,2.0274,1.9927,1.9539,1.9464,1.9424,1.9424,1.9424,1.9424,1.9424,1.9424,1.9424,1.9424,1.9424,1.9424,1.9424,1.9424,1.9424,1.9424,1.9424,1.9424,1.9424,1.9424,1.9252,1.9112,1.8945,1.8804,0.0,1.8691,1.8824,1.8978,1.9112,1.9272,1.9299,1.9138,0.0,0.0,1.9118,1.8998,1.9058,1.9417,1.9424,1.9424,1.9424,1.9424,1.9424,1.9424,1.9424,1.9424,1.9424,1.9424,1.9424,1.9424,1.9424,1.9424,1.9424,1.9424,1.9424,1.9424,1.9424,1.9424,1.9424,1.9424,1.9424,1.9424,1.9424,1.9424,1.9424,1.9424,1.9424,1.9424,1.9424,1.9424,1.9424,1.9424,1.9424,1.9424,1.9424,1.9424,1.9424,1.9424,1.9424,1.9424,1.9424,1.9424,1.9424,1.9424,1.9424,1.9424,1.9424,1.9424,1.9424,1.9424,1.9424,1.9424,1.9424,1.9424,1.9424,1.943,1.9412,1.9573,1.9806,1.9846,2.018,2.0675,2.0675,2.0848,2.1109,2.1109,2.1109,2.1109,2.1109,2.1109,2.1109,2.1109,2.0915,2.0635,2.0381,2.0074,1.9805,1.9784,1.9625,1.9424,1.9424,1.9424,1.9424,1.9424,1.9424,1.9424,1.9424,1.9424,1.9424,1.9424,1.9424,1.9424,1.9424,1.9424,1.9397,1.931,1.9058,1.8891,1.8804,0.0,1.8644,1.8891,1.8965,1.9092,1.9339,1.9424,1.9424,1.9424,1.9132,1.9098,0.0,1.9125,1.9105,1.9417,1.9424,1.9424,1.9424,1.9424,1.9424,1.9424,1.9424,1.9424,1.9424,1.9424,1.9424,1.9424,1.9424,1.9424,1.9424,1.9424,1.9424,1.9424,1.9424,1.9424,1.9424,1.9424,1.9424,1.9424,1.9424,1.9424,1.9424,1.9424,1.9424,1.9424,1.9424,1.9424,1.9424,1.9424,1.9424,1.9424,1.9424,1.9424,1.9424,1.9424,1.9424,1.9424,1.9424,1.9424,1.9424,1.9424,1.9424,1.9424,1.9424,1.9424,1.9424,1.9424,1.9424,1.9424,1.9424,1.9424,1.9424,1.9437,1.9626,1.976,1.9813,2.006,2.0361,2.0675,2.0675,2.0848,2.1109,2.1109,2.1109,2.1109,2.1109,2.1109,2.1109,2.1109,2.0915,2.0668,2.0621,2.0234,2.0017,2.1212,2.0568,1.9424,1.9424,1.9424,1.9424,1.9424,1.9424,1.9424,1.9424,1.9424,1.9424,1.9424,1.9424,1.9424,1.9424,1.9424,1.9205,1.8704,1.8798,1.8695,1.8195,0.0,1.8871,1.8918,1.9145,1.9319,1.9366,1.9424,1.9424,1.9424,1.9325,1.9377,1.9424,1.9325,1.9377,1.9424,1.9424,1.9424,1.9424,1.9424,1.9424,1.9424,1.9424,1.9424,1.9424,1.9424,1.9424,1.9424,1.9424,1.9424,1.9424,1.9424,1.9424,1.9424,1.9424,1.9424,1.9424,1.9424,1.9424,1.9424,1.9424,1.9424,1.9424,1.9424,1.9424,1.9424,1.9424,1.9424,1.9424,1.9424,1.9424,1.9424,1.9424,1.9424,1.9424,1.9424,1.9424,1.9424,1.9424,1.9424,1.9424,1.9424,1.9424,1.9424,1.9424,1.9424,1.9424,1.9424,1.9424,1.9424,1.9424,1.9424,1.9511,1.9606,1.974,1.9973,2.0281,2.0414,2.0641,2.0909,2.0909,2.0989,2.1109,2.1109,2.1109,2.1109,2.1109,2.1109,2.1109,2.1109,2.1022,2.1063,2.1746,2.1797,2.1819,2.3259,2.2213,2.0587,2.0587,2.0587,2.0759,2.1544,2.1152,2.0587,2.0587,1.9982,1.9424,1.9424,1.9424,1.9424,1.9424,1.9424,1.9336,1.9005,1.8938,0.0,0.0,1.8695,1.8925,1.8925,1.9185,1.9424,1.9424,1.9424,1.9424,1.9424,1.9424,1.9424,1.9424,1.9424,1.9424,1.9424,1.9424,1.9424,1.9424,1.9424,1.9424,1.9424,1.9424,1.9424,1.9424,1.9424,1.9424,1.9424,1.9424,1.9424,1.9424,1.9424,1.9424,1.9424,1.9424,1.9424,1.9424,1.9424,1.9424,1.9424,1.9424,1.9424,1.9424,1.9424,1.9424,1.9424,1.9424,1.9424,1.9424,1.9424,1.9424,1.9424,1.9424,1.9424,1.9424,1.9424,1.9424,1.9424,1.9424,1.9424,1.9424,1.9424,1.9424,1.9424,1.9424,1.9424,1.9424,1.9424,1.9424,1.9424,1.9424,1.9424,1.9519,1.9806,1.9873,2.0187,2.0681,2.0748,2.0909,2.1109,2.1109,2.1109,2.1109,2.1109,2.1109,2.1109,2.1109,2.1355,2.1664,2.1664,2.1908,2.2409,2.3444,2.3733,2.3972,2.5344,2.4343,2.2699,2.2217,2.2089,2.2363,2.3543,2.2927,2.2089,2.2089,2.1266,2.0429,2.0429,2.0429,2.0429,2.0429,2.0429,2.0386,2.0238,0.0,0.0,0.0,1.9097,1.8951,1.9018,1.9225,1.9424,1.9424,1.9424,1.9424,1.9424,1.9424,1.9424,1.9424,1.9424,1.9424,1.9424,1.9424,1.9424,1.9424,1.9424,1.9424,1.9424,1.9424,1.9424,1.9424,1.9424,1.9424,1.9424,1.9424,1.9424,1.9424,1.9424,1.9424,1.9424,1.9424,1.9424,1.9424,1.9424,1.9424,1.9424,1.9424,1.9424,1.9424,1.9424,1.9424,1.9424,1.9424,1.9424,1.9424,1.9424,1.9424,1.9424,1.9424,1.9424,1.9424,1.9424,1.9424,1.9424,1.9424,1.9424,1.9424,1.9424,1.9424,1.9424,1.9424,1.9424,1.9424,1.9424,1.9424,1.9424,1.9424,1.9424,1.9519,1.9813,2.008,2.0381,2.0695,2.0962,2.1089,2.1109,2.1109,2.1109,2.1109,2.1109,2.1109,2.1109,2.1109,2.2097,2.3387,2.3387,2.4417,2.5672,2.5769,2.5592,2.5677,2.7144,2.6998,2.591,2.4144,2.3654,2.3654,2.3766,2.371,2.3654,2.3654,2.3543,2.3487,2.3487,2.3487,2.3487,2.3487,2.3487,2.3275,2.2716,0.0,0.0,2.0572,1.9612,1.9025,1.9299,1.9352,1.9424,1.9424,1.9424,1.9424,1.9424,1.9424,1.9424,1.9424,1.9424,1.9424,1.9424,1.9424,1.9424,1.9424,1.9424,1.9424,1.9424,1.9424,1.9424,1.9424,1.9424,1.9424,1.9424,1.9424,1.9424,1.9424,1.9424,1.9424,1.9424,1.9424,1.9424,1.9424,1.9424,1.9424,1.9424,1.9424,1.9424,1.9424,1.9424,1.9424,1.9424,1.9424,1.9424,1.9424,1.9424,1.9424,1.9424,1.9424,1.9424,1.9424,1.9424,1.9424,1.9424,1.9424,1.9424,1.9424,1.9424,1.9424,1.9424,1.9424,1.9424,1.9424,1.9424,1.9424,1.9424,1.943,1.9553,1.9786,2.008,2.0381,2.0668,2.0949,2.1062,2.1109,2.1109,2.1109,2.1109,2.1109,2.1109,2.1727,2.2654,2.2654,2.3683,2.5077,2.5077,2.5497,2.6158,2.7194,2.7407,2.7597,2.8911,2.9089,2.8634,2.7698,2.6313,2.5434,2.6381,2.5882,2.5215,2.5215,2.4488,2.3822,2.3822,2.3822,2.3822,2.3822,2.3822,2.3731,2.3513,0.0,2.2736,2.2664,2.2212,2.1621,2.0852,2.0752,2.0422,1.9482,1.9424,1.9424,1.9424,1.9424,1.9424,1.9424,1.9424,1.9424,1.9424,1.9424,1.9424,1.9424,1.9424,1.9424,1.9424,1.9424,1.9424,1.9424,1.9424,1.9424,1.9424,1.9424,1.9424,1.9424,1.9424,1.9424,1.9424,1.9424,1.9424,1.9424,1.9424,1.9424,1.9424,1.9424,1.9424,1.9424,1.9424,1.9424,1.9424,1.9424,1.9424,1.9424,1.9424,1.9424,1.9424,1.9424,1.9424,1.9424,1.9424,1.9424,1.9424,1.9424,1.9424,1.9424,1.9424,1.9424,1.9424,1.9424,1.9424,1.9424,1.9424,1.9424,1.9412,1.9506,1.9706,2.0,2.0381,2.0581,2.0842,2.1109,2.1109,2.1109,2.1109,2.1109,2.1109,2.1172,2.1664,2.2591,2.3698,2.4178,2.5383,2.6772,2.6772,2.7073,2.7751,2.8852,2.9216,2.9347,3.02,3.0312,3.0137,2.9844,2.8535,2.7406,2.829,2.765,2.6771,2.6771,2.5991,2.5215,2.5215,2.5215,2.5215,2.5215,2.5215,2.5215,2.5215,2.4829,2.4544,2.4544,2.41,2.3431,2.242,2.2315,2.187,2.0873,2.0371,2.009,2.009,1.9649,1.9424,1.9424,1.9424,1.9424,1.9424,1.9424,1.9424,1.9424,1.9424,1.9424,1.9424,1.9424,1.9424,1.9424,1.9424,1.9424,1.9424,1.9424,1.9424,1.9424,1.9424,1.9424,1.9424,1.9424,1.9424,1.9424,1.9424,1.9424,1.9424,1.9424,1.9424,1.9424,1.9424,1.9424,1.9424,1.9424,1.9424,1.9424,1.9424,1.9424,1.9424,1.9424,1.9424,1.9424,1.9424,1.9424,1.9424,1.9424,1.9424,1.9424,1.9424,1.9424,1.9424,1.9424,1.9424,1.9424,1.9424,1.9424,1.9512,1.98,1.9806,2.0114,2.0675,2.0743,2.0898,2.1109,2.1109,2.1109,2.1109,2.1109,2.1109,2.1292,2.2959,2.3636,2.3876,2.5436,2.7073,2.8417,2.8417,2.953,3.0889,3.0889,3.0889,3.0889,3.0889,3.0566,3.0205,3.0205,2.9893,2.9473,2.9033,2.8603,2.8301,2.8301,2.8291,2.8291,2.8291,2.8291,2.8291,2.8291,2.8291,2.8291,2.8291,2.7051,2.61,2.61,2.482,2.3822,2.3822,2.3822,2.3822,2.3822,2.2476,2.1643,2.1643,2.0256,1.9424,1.9424,1.9424,1.9424,1.9424,1.9424,1.9424,1.9424,1.9424,1.9424,1.9424,1.9424,1.9424,1.9424,1.9424,1.9424,1.9424,1.9424,1.9424,1.9424,1.9424,1.9424,1.9424,1.9424,1.9424,1.9424,1.9424,1.9424,1.9424,1.9424,1.9424,1.9424,1.9424,1.9424,1.9424,1.9424,1.9424,1.9424,1.9424,1.9424,1.9424,1.9424,1.9424,1.9424,1.9424,1.9424,1.9424,1.9424,1.9424,1.9424,1.9424,1.9424,1.9424,1.9424,1.9424,1.9424,1.9424,1.9424,1.9512,1.9806,2.0007,2.0307,2.0743,2.2107,2.2809,2.2834,2.2834,2.2834,2.2834,2.2834,2.2834,2.3014,2.4655,2.5993,2.7022,2.7503,2.8733,3.0147,3.0147,3.0518,3.0889,3.0889,3.0889,3.0889,3.0889,3.0791,3.0684,3.0684,3.0351,2.9902,2.9482,2.9053,2.873,2.873,2.8506,2.8291,2.8291,2.8291,2.8291,2.8291,2.8291,2.8291,2.8291,2.795,2.7618,2.7618,2.7232,2.6554,2.5544,2.5434,2.4986,2.3933,2.3375,2.3151,2.3151,2.1756,2.0479,1.9482,1.9424,1.9424,1.9424,1.9424,1.9424,1.9424,1.9424,1.9424,1.9424,1.9424,1.9424,1.9424,1.9424,1.9424,1.9482,2.0479,2.0371,1.9482,2.0537,2.0307,1.9424,1.9424,1.9424,1.9424,1.9424,1.9424,1.9424,1.9424,1.9424,1.9424,1.9424,1.9424,1.9424,1.9424,1.9424,1.9424,1.9424,1.9424,1.9424,1.9424,1.9424,1.9424,1.9424,1.9424,1.9424,1.9424,1.9424,1.9424,1.9424,1.9424,1.9424,1.9424,1.9424,1.9424,1.9424,1.9486,1.9686,1.9973,2.0274,2.0931,2.1893,2.3058,2.3931,2.454,2.454,2.454,2.454,2.454,2.454,2.4717,2.6349,2.7563,2.8477,2.9157,3.002,3.0889,3.0889,3.0889,3.0889,3.0889,3.0889,3.0889,3.0889,3.0889,3.0889,3.0889,3.0684,3.041,3.0156,2.9629,2.918,2.918,2.8984,2.8799,2.8799,2.8799,2.8799,2.8799,2.8799,2.8799,2.8799,2.8799,2.8799,2.8799,2.8799,2.8452,2.7592,2.7473,2.7142,2.618,2.5557,2.493,2.4364,2.3511,2.2602,2.1707,2.1649,2.1649,2.1649,2.0894,2.0772,2.1407,2.0102,1.9424,1.9424,1.9424,1.9707,2.0256,2.0256,2.0594,2.1152,2.1479,2.1422,2.1152,2.1472,2.1422,2.1159,2.1159,2.1159,2.1159,2.1159,2.1159,2.1045,1.9424,1.9424,1.9424,1.9424,1.9424,1.9424,1.9424,1.9424,1.9424,1.9424,1.9424,1.9424,1.9424,1.9424,1.9424,1.9424,1.9424,1.9424,1.9424,1.9424,1.9424,1.9424,1.9424,1.9424,1.9424,1.9424,1.9379,1.9464,1.9673,1.996,2.0274,2.0733,2.1865,2.3636,2.3876,2.484,2.6219,2.6219,2.6219,2.6219,2.6219,2.6219,2.6401,2.7991,2.8605,2.8842,3.0333,3.0889,3.0889,3.0889,3.0889,3.0889,3.0889,3.0889,3.0889,3.0889,3.0889,3.0889,3.0889,3.0889,3.0889,3.0889,3.0283,2.9734,2.9629,2.9655,2.9626,2.9626,2.9626,2.9626,2.9626,2.9626,2.9626,2.9626,2.9626,2.9626,2.9626,2.9626,2.9626,2.9626,2.9626,2.9626,2.9626,2.8342,2.6884,2.5426,2.531,2.5252,2.5136,2.5069,2.5069,2.5069,2.3359,2.3145,2.453,2.1415,1.9843,1.9815,1.954,2.0141,2.1586,2.1586,2.2315,2.3543,2.2476,2.2702,2.371,2.2476,2.2702,2.3822,2.3822,2.3822,2.3822,2.3822,2.3822,2.3599,1.9424,1.9424,1.9424,1.9424,1.9424,1.9424,1.9424,1.9424,1.9424,1.9424,1.9424,1.9424,1.9424,1.9424,1.9424,1.9424,1.9424,1.9424,1.9424,1.9424,1.9424,1.9424,1.9424,1.9424,1.9424,1.9424,1.9479,1.9706,1.9766,2.0067,2.0643,2.1968,2.2953,2.3698,2.6236,2.7572,2.7871,2.7871,2.7871,2.7871,2.7871,2.7871,2.8051,2.9717,3.0333,3.0401,3.0772,3.0889,3.0889,3.0889,3.0889,3.0889,3.0889,3.0889,3.0889,3.0889,3.0889,3.0889,3.0889,3.0889,3.0889,3.0889,3.0752,3.0508,3.0146,2.9805,2.9626,2.9626,2.9626,2.9626,2.9626,2.9626,2.9626,2.9626,2.9626,2.9626,2.9626,2.9626,2.9626,2.9626,2.9626,2.9626,2.9626,2.9281,2.8465,2.6941,2.6827,2.6301,2.5186,2.5069,2.5069,2.5069,2.4704,2.4605,2.4953,2.3917,2.3213,2.2822,2.0486,2.0141,2.1586,2.1586,2.1749,2.2202,2.4258,2.4599,2.3877,2.4765,2.4599,2.3822,2.3822,2.3822,2.3822,2.3822,2.3822,2.3766,1.9424,1.9424,1.9424,1.9424,1.9424,1.9424,1.9424,1.9424,1.9424,1.9424,1.9424,1.9424,1.9424,1.9424,1.9424,1.9424,1.9424,1.9424,1.9424,1.9424,1.97,2.0422,2.0422,2.0422,2.0422,2.0563,2.0382,1.98,1.994,2.0234,2.0737,2.2516,2.3825,2.484,2.7331,2.8842,2.9589,2.9589,2.9589,2.9589,2.9589,2.9589,2.9707,3.0587,3.0889,3.0889,3.0889,3.0889,3.0889,3.0889,3.0889,3.0889,3.0889,3.0889,3.0889,3.0889,3.0889,3.0889,3.0889,3.0889,3.0889,3.0889,3.0889,3.083,3.0586,3.0351,3.0205,3.0205,3.0205,3.0205,3.0205,3.0205,3.0205,3.0205,3.0205,3.0205,3.0205,3.0205,3.0205,3.0205,3.0205,3.0205,3.0205,3.0205,2.99,2.9067,2.901,2.8654,2.793,2.7871,2.7871,2.7871,2.6967,2.6804,2.7506,2.5729,2.5295,2.6215,2.3014,2.2266,2.3758,2.3758,2.4147,2.482,2.5709,2.6045,2.5936,2.6045,2.6045,2.5945,2.5945,2.5945,2.5945,2.5945,2.5489,2.4986,1.9424,1.9424,1.9424,1.9424,1.9424,1.9424,1.9424,1.9424,1.9424,1.9424,1.9424,1.9424,1.9424,1.9424,1.9424,1.9424,1.9649,1.9758,1.9758,2.004,2.0709,2.1919,2.1975,2.1975,2.1975,2.2245,2.1591,1.9873,2.0167,2.0577,2.1245,2.3138,2.4901,2.647,2.811,2.9589,3.0889,3.0889,3.0889,3.0889,3.0889,3.0889,3.0889,3.0889,3.0889,3.0889,3.0889,3.0889,3.0889,3.0889,3.0889,3.0889,3.0889,3.0889,3.0889,3.0889,3.0889,3.0889,3.0889,3.0889,3.0889,3.0889,3.0889,3.0889,3.0889,3.0889,3.0889,3.0889,3.0889,3.0889,3.0889,3.0889,3.0889,3.0889,3.0889,3.0889,3.0889,3.0889,3.0889,3.0889,3.0889,3.0889,3.0889,3.0889,3.0889,3.0889,3.0889,3.0889,3.0889,3.0889,3.0889,3.0889,2.9329,2.9074,3.0312,2.7409,2.7014,2.8969,2.6058,2.5165,2.61,2.61,2.6771,2.7843,2.6888,2.7168,2.8237,2.6997,2.7222,2.8291,2.8291,2.8291,2.8291,2.8291,2.7501,2.6662,1.9424,1.9424,1.9424,1.9424,1.9424,1.9424,1.9424,1.9424,1.9424,1.9424,1.9424,1.9424,1.9424,1.9424,1.9424,1.9424,2.0594,2.1309,2.1309,2.2484,2.3263,2.3487,2.3487,2.3487,2.3487,2.3958,2.2855,2.0174,2.0468,2.1493,2.3259,2.4869,2.653,2.8179,2.9835,3.0704,3.0889,3.0889,3.0889,3.0889,3.0889,3.0889,3.0889,3.0889,3.0889,3.0889,3.0889,3.0889,3.0889,3.0889,3.0889,3.0889,3.0889,3.0889,3.0889,3.0889,3.0889,3.0889,3.0889,3.0889,3.0889,3.0889,3.0889,3.0889,3.0889,3.0889,3.0889,3.0889,3.0889,3.0889,3.0889,3.0889,3.0889,3.0889,3.0889,3.0889,3.0889,3.0889,3.0889,3.0889,3.0889,3.0889,3.0889,3.0889,3.0889,3.0889,3.0889,3.0889,3.0889,3.0889,3.0889,3.0889,3.0645,3.0616,3.0801,2.992,2.9487,2.9473,2.8639,2.7452,2.61,2.61,2.6209,2.6436,2.7565,2.8121,2.8291,2.8067,2.8121,2.8291,2.8291,2.8291,2.8291,2.8291,2.8184,2.8014,1.9424,1.9424,1.9424,1.9424,1.9424,1.9424,1.9424,1.9424,1.9424,1.9424,2.0148,2.0644,2.0644,2.1373,2.1885,2.1885,2.2428,2.2814,2.2814,2.3431,2.4156,2.5041,2.5096,2.5096,2.5096,2.5631,2.492,2.2802,2.3263,2.3954,2.4955,2.6591,2.7743,2.8477,3.0147,3.0889,3.0889,3.0889,3.0889,3.0889,3.0889,3.0889,3.0889,3.0889,3.0889,3.0889,3.0889,3.0889,3.0889,3.0889,3.0889,3.0889,3.0889,3.0889,3.0889,3.0889,3.0889,3.0889,3.0889,3.0889,3.0889,3.0889,3.0889,3.0889,3.0889,3.0889,3.0889,3.0889,3.0889,3.0889,3.0889,3.0889,3.0889,3.0889,3.0889,3.0889,3.0889,3.0889,3.0889,3.0889,3.0889,3.0889,3.0889,3.0889,3.0889,3.0889,3.0889,3.0889,3.0889,3.0889,3.0889,3.0889,3.0889,3.0889,3.0889,3.0684,3.0244,2.9626,2.9375,2.8588,2.733,2.733,2.733,2.7384,2.8014,2.8291,2.8291,2.8291,2.8291,2.8291,2.8291,2.8291,2.8291,2.8291,2.8291,2.8291]}]]